| time (UTC) | temp F | wind direction | speed MPH | gust MPH | rain 1hr in | rain 24hr in | rain mn in | humidity % | barometer mb |
| 20260509101406 | 65 | 145 | 4.0 | 8.0 | 0.00 | 0.00 | 0.00 | 64 | 1013.5 |
| 20260509101349 | 71 | 352 | 5.0 | 12.0 | 0.00 | 0.03 | 0.00 | 56 | 1013.0 |
| 20260509101343 | 66 | 57 | 11.0 | 11.0 | 0.00 | 0.00 | 0.00 | 68 | 1016.6 |
| 20260509101341 | 73 | 333 | 2.0 | 4.0 | 0.00 | 0.00 | 0.00 | 45 | 1015.9 |
| 20260509101332 | 73 | 94 | 2.0 | 6.0 | 0.00 | 0.00 | 0.00 | 48 | 1013.1 |
| 20260509101327 | 73 | 306 | 2.0 | 4.0 | 0.00 | 0.00 | 0.00 | 53 | 1038.5 |
| 20260509101320 | 68 | 232 | 6.0 | 6.0 | 0.00 | 0.00 | 0.00 | 51 | 1016.8 |
| 20260509101315 | 71 | 11 | 2.0 | 2.0 | 0.00 | 0.00 | 0.00 | 54 | 1052.0 |
| 20260509100905 | 64 | 169 | 4.0 | 12.0 | 0.00 | 0.00 | 0.00 | 63 | 1013.6 |
| 20260509100849 | 72 | 248 | 5.0 | 10.0 | 0.00 | 0.03 | 0.00 | 56 | 1013.0 |
| 20260509100844 | 72 | 5 | 0.0 | 4.0 | 0.00 | 0.00 | 0.00 | 46 | 1015.9 |
| 20260509100841 | 65 | 53 | 7.0 | 13.0 | 0.00 | 0.00 | 0.00 | 68 | 1016.7 |
| 20260509100835 | 73 | 307 | 2.0 | 6.0 | 0.00 | 0.00 | 0.00 | 65 | 1017.2 |
| 20260509100831 | 73 | 272 | 1.0 | 6.0 | 0.00 | 0.00 | 0.00 | 54 | 1038.6 |
| 20260509100826 | 68 | 209 | 0.0 | 5.0 | 0.00 | 0.00 | 0.00 | 50 | 1016.9 |
| 20260509100814 | 69 | 163 | 1.0 | 3.0 | 0.00 | 0.00 | 0.00 | 58 | 1051.9 |
| 20260509100402 | 64 | 178 | 4.0 | 8.0 | 0.00 | 0.00 | 0.00 | 65 | 1013.6 |
| 20260509100351 | 73 | 161 | 0.0 | 0.0 | 0.00 | 0.00 | 0.00 | 58 | 1014.3 |
| 20260509100349 | 72 | 269 | 5.0 | 6.0 | 0.00 | 0.04 | 0.00 | 57 | 1013.0 |
| 20260509100338 | 73 | 341 | 3.0 | 3.0 | 0.00 | 0.00 | 0.00 | 45 | 1015.9 |
| 20260509100335 | 73 | 270 | 3.0 | 7.0 | 0.00 | 0.00 | 0.00 | 64 | 1017.2 |
| 20260509100327 | 73 | 304 | 2.0 | 3.0 | 0.00 | 0.00 | 0.00 | 57 | 1038.6 |
| 20260509100320 | 68 | 238 | 0.0 | 4.0 | 0.00 | 0.00 | 0.00 | 49 | 1016.8 |
| 20260509095859 | 64 | 215 | 1.0 | 11.0 | 0.00 | 0.00 | 0.00 | 64 | 1013.6 |
| 20260509095848 | 72 | 347 | 3.0 | 9.0 | 0.00 | 0.05 | 0.00 | 57 | 1013.1 |
| 20260509095844 | 72 | 217 | 0.0 | 0.0 | 0.00 | 0.00 | 0.00 | 48 | 1015.9 |
| 20260509095837 | 66 | 51 | 7.0 | 12.0 | 0.00 | 0.00 | 0.00 | 68 | 1016.7 |
| 20260509095833 | 72 | 12 | 2.0 | 4.0 | 0.00 | 0.00 | 0.00 | 57 | 1038.7 |
| 20260509095831 | 73 | 142 | 2.0 | 6.0 | 0.00 | 0.00 | 0.00 | 49 | 1013.1 |
| 20260509095820 | 68 | 155 | 1.0 | 5.0 | 0.00 | 0.00 | 0.00 | 47 | 1016.8 |
| 20260509095403 | 64 | 192 | 9.0 | 9.0 | 0.00 | 0.00 | 0.00 | 64 | 1013.6 |
| 20260509095350 | 72 | 299 | 4.0 | 10.0 | 0.00 | 0.06 | 0.00 | 56 | 1013.0 |
| 20260509095338 | 72 | 20 | 0.0 | 0.0 | 0.00 | 0.00 | 0.00 | 48 | 1015.9 |
| 20260509095334 | 72 | 124 | 1.0 | 3.0 | 0.00 | 0.00 | 0.00 | 50 | 1013.1 |
| 20260509095332 | 73 | 246 | 1.0 | 5.0 | 0.00 | 0.00 | 0.00 | 67 | 1017.3 |
| 20260509095327 | 72 | 342 | 2.0 | 4.0 | 0.00 | 0.00 | 0.00 | 62 | 1038.8 |
| 20260509094905 | 64 | 161 | 5.0 | 11.0 | 0.00 | 0.00 | 0.00 | 63 | 1013.7 |
| 20260509094851 | 71 | 301 | 4.0 | 12.0 | 0.00 | 0.07 | 0.00 | 58 | 1013.0 |
| 20260509094848 | 72 | 170 | 0.0 | 0.0 | 0.00 | 0.00 | 0.00 | 62 | 1014.4 |
| 20260509094843 | 65 | 40 | 5.0 | 12.0 | 0.00 | 0.00 | 0.00 | 69 | 1016.6 |
| 20260509094841 | 71 | 336 | 0.0 | 8.0 | 0.00 | 0.00 | 0.00 | 50 | 1016.0 |
| 20260509094835 | 72 | 254 | 1.0 | 4.0 | 0.00 | 0.00 | 0.00 | 68 | 1017.3 |
| 20260509094831 | 72 | 91 | 3.0 | 6.0 | 0.00 | 0.00 | 0.00 | 50 | 1013.1 |
| 20260509094828 | 71 | 332 | 0.0 | 4.0 | 0.00 | 0.00 | 0.00 | 58 | 1038.8 |
| 20260509094826 | 67 | 200 | 0.0 | 7.0 | 0.00 | 0.00 | 0.00 | 49 | 1016.8 |
| 20260509094359 | 65 | 188 | 3.0 | 10.0 | 0.00 | 0.00 | 0.00 | 66 | 1013.6 |
| 20260509094346 | 71 | 348 | 11.0 | 12.0 | 0.00 | 0.07 | 0.00 | 56 | 1013.0 |
| 20260509094344 | 71 | 317 | 0.0 | 4.0 | 0.00 | 0.00 | 0.00 | 51 | 1016.0 |
| 20260509094338 | 66 | 65 | 9.0 | 11.0 | 0.00 | 0.00 | 0.00 | 67 | 1016.6 |
| 20260509094335 | 72 | 304 | 2.0 | 4.0 | 0.00 | 0.00 | 0.00 | 68 | 1017.3 |
| 20260509094331 | 72 | 129 | 4.0 | 7.0 | 0.00 | 0.00 | 0.00 | 49 | 1013.1 |
| 20260509094327 | 71 | 339 | 3.0 | 3.0 | 0.00 | 0.00 | 0.00 | 60 | 1038.8 |
| 20260509094323 | 67 | 190 | 0.0 | 5.0 | 0.00 | 0.00 | 0.00 | 50 | 1016.9 |
| 20260509093908 | 64 | 219 | 1.0 | 11.0 | 0.00 | 0.00 | 0.00 | 69 | 1013.7 |
| 20260509093852 | 72 | 6 | 5.0 | 10.0 | 0.00 | 0.08 | 0.00 | 57 | 1013.0 |
| 20260509093843 | 67 | 49 | 5.0 | 12.0 | 0.00 | 0.00 | 0.00 | 68 | 1016.5 |
| 20260509093838 | 70 | 294 | 0.0 | 0.0 | 0.00 | 0.00 | 0.00 | 51 | 1016.1 |
| 20260509093835 | 72 | 277 | 4.0 | 4.0 | 0.00 | 0.00 | 0.00 | 67 | 1017.3 |
| 20260509093828 | 70 | 294 | 1.0 | 2.0 | 0.00 | 0.00 | 0.00 | 60 | 1038.9 |
| 20260509093823 | 67 | 245 | 0.0 | 4.0 | 0.00 | 0.00 | 0.00 | 49 | 1016.9 |
| 20260509093359 | 64 | 163 | 4.0 | 8.0 | 0.00 | 0.00 | 0.00 | 68 | 1013.7 |
| 20260509093353 | 71 | 316 | 4.0 | 8.0 | 0.00 | 0.08 | 0.00 | 56 | 1012.9 |
| 20260509093351 | 71 | 106 | 0.0 | 0.0 | 0.00 | 0.00 | 0.00 | 64 | 1014.6 |
| 20260509093340 | 65 | 57 | 5.0 | 10.0 | 0.00 | 0.00 | 0.00 | 70 | 1016.5 |
| 20260509093338 | 70 | 311 | 0.0 | 5.0 | 0.00 | 0.00 | 0.00 | 53 | 1016.1 |
| 20260509093332 | 72 | 91 | 7.0 | 7.0 | 0.00 | 0.00 | 0.00 | 51 | 1013.0 |
| 20260509093330 | 70 | 294 | 3.0 | 3.0 | 0.00 | 0.00 | 0.00 | 59 | 1038.9 |
| 20260509093320 | 67 | 200 | 0.0 | 6.0 | 0.00 | 0.00 | 0.00 | 50 | 1017.0 |
| 20260509092905 | 64 | 188 | 1.0 | 7.0 | 0.00 | 0.00 | 0.00 | 67 | 1013.6 |
| 20260509092852 | 71 | 0 | 2.0 | 9.0 | 0.00 | 0.08 | 0.00 | 55 | 1013.0 |
| 20260509092844 | 70 | 355 | 3.0 | 8.0 | 0.00 | 0.00 | 0.00 | 51 | 1016.2 |
| 20260509092837 | 65 | 51 | 6.0 | 10.0 | 0.00 | 0.00 | 0.00 | 71 | 1016.5 |
| 20260509092832 | 72 | 269 | 0.0 | 6.0 | 0.00 | 0.00 | 0.00 | 68 | 1017.4 |
| 20260509092830 | 70 | 297 | 2.0 | 3.0 | 0.00 | 0.00 | 0.00 | 60 | 1039.0 |
| 20260509092820 | 66 | 186 | 1.0 | 6.0 | 0.00 | 0.00 | 0.00 | 52 | 1016.9 |
| 20260509092359 | 64 | 226 | 3.0 | 6.0 | 0.00 | 0.00 | 0.00 | 68 | 1013.6 |
| 20260509092349 | 71 | 20 | 5.0 | 9.0 | 0.00 | 0.08 | 0.00 | 55 | 1012.9 |
| 20260509092344 | 70 | 298 | 0.0 | 7.0 | 0.00 | 0.00 | 0.00 | 52 | 1016.2 |
| 20260509092340 | 64 | 101 | 6.0 | 11.0 | 0.00 | 0.00 | 0.00 | 71 | 1016.6 |
| 20260509092337 | 72 | 140 | 4.0 | 5.0 | 0.00 | 0.00 | 0.00 | 52 | 1013.0 |
| 20260509092332 | 72 | 269 | 2.0 | 4.0 | 0.00 | 0.00 | 0.00 | 69 | 1017.5 |
| 20260509092328 | 70 | 297 | 0.0 | 4.0 | 0.00 | 0.00 | 0.00 | 62 | 1039.0 |
| 20260509092321 | 66 | 218 | 3.0 | 6.0 | 0.00 | 0.00 | 0.00 | 50 | 1016.9 |
| 20260509091906 | 64 | 301 | 1.0 | 10.0 | 0.00 | 0.00 | 0.00 | 68 | 1013.6 |
| 20260509091848 | 70 | 106 | 0.0 | 0.0 | 0.00 | 0.00 | 0.00 | 67 | 1014.6 |
| 20260509091846 | 70 | 334 | 9.0 | 10.0 | 0.00 | 0.08 | 0.00 | 56 | 1012.9 |
| 20260509091840 | 64 | 76 | 9.0 | 11.0 | 0.00 | 0.00 | 0.00 | 70 | 1016.6 |
| 20260509091838 | 70 | 9 | 0.0 | 7.0 | 0.00 | 0.00 | 0.00 | 52 | 1016.3 |
| 20260509091835 | 71 | 316 | 3.0 | 4.0 | 0.00 | 0.00 | 0.00 | 70 | 1017.6 |
| 20260509091831 | 71 | 116 | 3.0 | 6.0 | 0.00 | 0.00 | 0.00 | 53 | 1013.0 |
| 20260509091820 | 66 | 236 | 0.0 | 3.0 | 0.00 | 0.00 | 0.00 | 48 | 1016.8 |
| 20260509091402 | 64 | 161 | 7.0 | 8.0 | 0.00 | 0.00 | 0.00 | 67 | 1013.5 |
| 20260509091347 | 70 | 273 | 0.0 | 3.0 | 0.00 | 0.00 | 0.00 | 52 | 1016.4 |
| 20260509091337 | 65 | 82 | 7.0 | 13.0 | 0.00 | 0.00 | 0.00 | 71 | 1016.5 |
| 20260509091332 | 71 | 265 | 1.0 | 3.0 | 0.00 | 0.00 | 0.00 | 71 | 1017.5 |
| 20260509091327 | 70 | 89 | 0.0 | 3.0 | 0.00 | 0.00 | 0.00 | 63 | 1039.1 |
| 20260509091321 | 66 | 258 | 0.0 | 6.0 | 0.00 | 0.00 | 0.00 | 48 | 1016.7 |
| 20260509090859 | 64 | 184 | 6.0 | 8.0 | 0.00 | 0.00 | 0.00 | 67 | 1013.5 |
| 20260509090848 | 70 | 1 | 6.0 | 7.0 | 0.00 | 0.09 | 0.00 | 58 | 1012.9 |
| 20260509090843 | 66 | 92 | 10.0 | 13.0 | 0.00 | 0.00 | 0.00 | 70 | 1016.5 |
| 20260509090841 | 69 | 278 | 0.0 | 5.0 | 0.00 | 0.00 | 0.00 | 54 | 1016.4 |
| 20260509090832 | 71 | 264 | 2.0 | 6.0 | 0.00 | 0.00 | 0.00 | 71 | 1017.5 |
| 20260509090820 | 66 | 160 | 4.0 | 6.0 | 0.00 | 0.00 | 0.00 | 58 | 1016.7 |
| 20260509090359 | 63 | 161 | 1.0 | 9.0 | 0.00 | 0.00 | 0.00 | 68 | 1013.6 |
| 20260509090349 | 70 | 354 | 6.0 | 9.0 | 0.00 | 0.09 | 0.00 | 56 | 1013.0 |
| 20260509090345 | 69 | 106 | 0.0 | 0.0 | 0.00 | 0.00 | 0.00 | 69 | 1014.9 |
| 20260509090341 | 68 | 17 | 7.0 | 7.0 | 0.00 | 0.00 | 0.00 | 53 | 1016.5 |
| 20260509090337 | 65 | 81 | 11.0 | 11.0 | 0.00 | 0.00 | 0.00 | 71 | 1016.4 |
| 20260509090335 | 71 | 298 | 0.0 | 3.0 | 0.00 | 0.00 | 0.00 | 71 | 1017.5 |
| 20260509090331 | 71 | 175 | 2.0 | 4.0 | 0.00 | 0.00 | 0.00 | 55 | 1012.8 |
| 20260509085859 | 63 | 168 | 2.0 | 8.0 | 0.00 | 0.00 | 0.00 | 69 | 1013.5 |
| 20260509085847 | 70 | 313 | 2.0 | 10.0 | 0.00 | 0.09 | 0.00 | 56 | 1012.9 |
| 20260509085841 | 68 | 293 | 1.0 | 7.0 | 0.00 | 0.00 | 0.00 | 55 | 1016.6 |
| 20260509085838 | 71 | 311 | 2.0 | 3.0 | 0.00 | 0.00 | 0.00 | 73 | 1017.6 |
| 20260509085832 | 70 | 201 | 3.0 | 4.0 | 0.00 | 0.00 | 0.00 | 55 | 1012.8 |
| 20260509085827 | 69 | 50 | 2.0 | 3.0 | 0.00 | 0.00 | 0.00 | 61 | 1039.3 |
| 20260509085823 | 66 | 148 | 2.0 | 6.0 | 0.00 | 0.00 | 0.00 | 57 | 1016.6 |
| 20260509085402 | 63 | 169 | 7.0 | 9.0 | 0.00 | 0.00 | 0.00 | 66 | 1013.6 |
| 20260509085346 | 70 | 40 | 3.0 | 8.0 | 0.00 | 0.09 | 0.00 | 57 | 1012.9 |
| 20260509085338 | 68 | 318 | 0.0 | 2.0 | 0.00 | 0.00 | 0.00 | 55 | 1016.6 |
| 20260509085335 | 70 | 311 | 0.0 | 3.0 | 0.00 | 0.00 | 0.00 | 74 | 1017.6 |
| 20260509085330 | 68 | 50 | 0.0 | 4.0 | 0.00 | 0.00 | 0.00 | 63 | 1039.3 |
| 20260509085323 | 66 | 153 | 5.0 | 10.0 | 0.00 | 0.00 | 0.00 | 56 | 1016.7 |
| 20260509084902 | 63 | 186 | 2.0 | 8.0 | 0.00 | 0.00 | 0.00 | 67 | 1013.7 |
| 20260509084846 | 70 | 342 | 5.0 | 8.0 | 0.00 | 0.09 | 0.00 | 61 | 1013.0 |
| 20260509084838 | 68 | 285 | 0.0 | 7.0 | 0.00 | 0.00 | 0.00 | 54 | 1016.7 |
| 20260509084834 | 69 | 146 | 2.0 | 5.0 | 0.00 | 0.00 | 0.00 | 56 | 1012.8 |
| 20260509084820 | 66 | 215 | 0.0 | 3.0 | 0.00 | 0.00 | 0.00 | 57 | 1016.6 |
| 20260509084402 | 63 | 165 | 5.0 | 10.0 | 0.00 | 0.00 | 0.00 | 67 | 1013.6 |
| 20260509084347 | 68 | 319 | 0.0 | 4.0 | 0.00 | 0.00 | 0.00 | 54 | 1016.8 |
| 20260509084340 | 65 | 88 | 8.0 | 10.0 | 0.00 | 0.00 | 0.00 | 70 | 1016.7 |
| 20260509084337 | 69 | 197 | 1.0 | 3.0 | 0.00 | 0.00 | 0.00 | 59 | 1013.0 |
| 20260509084332 | 69 | 312 | 0.0 | 2.0 | 0.00 | 0.00 | 0.00 | 76 | 1017.7 |
| 20260509084330 | 68 | 19 | 2.0 | 5.0 | 0.00 | 0.00 | 0.00 | 64 | 1039.5 |
| 20260509084321 | 67 | 268 | 1.0 | 3.0 | 0.00 | 0.00 | 0.00 | 55 | 1016.5 |
| 20260509083859 | 63 | 221 | 1.0 | 10.0 | 0.00 | 0.00 | 0.00 | 67 | 1013.6 |
| 20260509083846 | 66 | 67 | 8.0 | 10.0 | 0.00 | 0.00 | 0.00 | 70 | 1016.6 |
| 20260509083838 | 68 | 327 | 3.0 | 8.0 | 0.00 | 0.00 | 0.00 | 55 | 1016.8 |
| 20260509083834 | 68 | 132 | 2.0 | 5.0 | 0.00 | 0.00 | 0.00 | 59 | 1013.0 |
| 20260509083830 | 67 | 10 | 3.0 | 5.0 | 0.00 | 0.00 | 0.00 | 65 | 1039.6 |
| 20260509083824 | 67 | 305 | 0.0 | 0.0 | 0.00 | 0.00 | 0.00 | 51 | 1016.6 |
| 20260509083359 | 64 | 167 | 3.0 | 6.0 | 0.00 | 0.00 | 0.00 | 67 | 1013.6 |
| 20260509083357 | 69 | 359 | 5.0 | 8.0 | 0.00 | 0.10 | 0.00 | 61 | 1013.1 |
| 20260509083346 | 68 | 106 | 0.0 | 0.0 | 0.00 | 0.00 | 0.00 | 73 | 1014.9 |
| 20260509083344 | 67 | 43 | 0.0 | 2.0 | 0.00 | 0.00 | 0.00 | 59 | 1016.8 |
| 20260509083333 | 67 | 59 | 2.0 | 4.0 | 0.00 | 0.00 | 0.00 | 64 | 1039.6 |
| 20260509083331 | 68 | 125 | 2.0 | 4.0 | 0.00 | 0.00 | 0.00 | 61 | 1013.0 |
| 20260509083329 | 66 | 155 | 0.0 | 4.0 | 0.00 | 0.00 | 0.00 | 52 | 1016.6 |
| 20260509082859 | 63 | 136 | 3.0 | 8.0 | 0.00 | 0.00 | 0.00 | 66 | 1013.6 |
| 20260509082849 | 68 | 303 | 4.0 | 7.0 | 0.00 | 0.10 | 0.00 | 64 | 1013.2 |
| 20260509082838 | 67 | 297 | 0.0 | 1.0 | 0.00 | 0.00 | 0.00 | 55 | 1016.9 |
| 20260509082832 | 68 | 277 | 1.0 | 3.0 | 0.00 | 0.00 | 0.00 | 79 | 1017.8 |
| 20260509082830 | 67 | 3 | 2.0 | 4.0 | 0.00 | 0.00 | 0.00 | 63 | 1039.7 |
| 20260509082827 | 66 | 295 | 0.0 | 1.0 | 0.00 | 0.00 | 0.00 | 52 | 1016.6 |
| 20260509082359 | 63 | 192 | 2.0 | 5.0 | 0.00 | 0.00 | 0.00 | 68 | 1013.6 |
| 20260509082346 | 68 | 326 | 6.0 | 10.0 | 0.00 | 0.11 | 0.00 | 64 | 1013.1 |
| 20260509082340 | 65 | 51 | 4.0 | 11.0 | 0.00 | 0.00 | 0.00 | 71 | 1016.7 |
| 20260509082338 | 67 | 294 | 0.0 | 5.0 | 0.00 | 0.00 | 0.00 | 55 | 1017.0 |
| 20260509082332 | 67 | 275 | 1.0 | 3.0 | 0.00 | 0.00 | 0.00 | 78 | 1017.8 |
| 20260509082327 | 67 | 6 | 1.0 | 3.0 | 0.00 | 0.00 | 0.00 | 66 | 1039.7 |
| 20260509082320 | 66 | 218 | 0.0 | 3.0 | 0.00 | 0.00 | 0.00 | 57 | 1016.6 |
| 20260509081900 | 63 | 159 | 4.0 | 8.0 | 0.00 | 0.00 | 0.00 | 66 | 1013.6 |
| 20260509081849 | 68 | 349 | 6.0 | 7.0 | 0.00 | 0.11 | 0.00 | 64 | 1013.2 |
| 20260509081838 | 67 | 324 | 0.0 | 5.0 | 0.00 | 0.00 | 0.00 | 60 | 1016.9 |
| 20260509081831 | 67 | 64 | 3.0 | 4.0 | 0.00 | 0.00 | 0.00 | 65 | 1013.2 |
| 20260509081827 | 67 | 9 | 3.0 | 3.0 | 0.00 | 0.00 | 0.00 | 66 | 1039.8 |
| 20260509081821 | 65 | 232 | 0.0 | 1.0 | 0.00 | 0.00 | 0.00 | 62 | 1016.6 |
| 20260509081405 | 63 | 168 | 7.0 | 10.0 | 0.00 | 0.00 | 0.00 | 69 | 1013.6 |
| 20260509081349 | 68 | 0 | 4.0 | 9.0 | 0.00 | 0.11 | 0.00 | 63 | 1013.4 |
| 20260509081341 | 66 | 19 | 5.0 | 7.0 | 0.00 | 0.00 | 0.00 | 57 | 1016.9 |
| 20260509081337 | 67 | 75 | 7.0 | 8.0 | 0.00 | 0.00 | 0.00 | 69 | 1016.6 |
| 20260509081332 | 67 | 263 | 3.0 | 3.0 | 0.00 | 0.00 | 0.00 | 80 | 1017.8 |
| 20260509081330 | 66 | 28 | 2.0 | 3.0 | 0.00 | 0.00 | 0.00 | 67 | 1039.8 |
| 20260509081321 | 65 | 188 | 0.0 | 2.0 | 0.00 | 0.00 | 0.00 | 60 | 1016.7 |
| 20260509080859 | 62 | 157 | 2.0 | 8.0 | 0.00 | 0.00 | 0.00 | 68 | 1013.6 |
| 20260509080851 | 68 | 331 | 1.0 | 8.0 | 0.00 | 0.11 | 0.00 | 67 | 1013.4 |
| 20260509080838 | 66 | 56 | 0.0 | 6.0 | 0.00 | 0.00 | 0.00 | 58 | 1016.9 |
| 20260509080832 | 66 | 259 | 1.0 | 4.0 | 0.00 | 0.00 | 0.00 | 80 | 1017.9 |
| 20260509080830 | 66 | 28 | 2.0 | 5.0 | 0.00 | 0.00 | 0.00 | 67 | 1040.0 |
| 20260509080827 | 65 | 207 | 0.0 | 2.0 | 0.00 | 0.00 | 0.00 | 60 | 1016.7 |
| 20260509080359 | 63 | 220 | 2.0 | 10.0 | 0.00 | 0.00 | 0.00 | 66 | 1013.6 |
| 20260509080350 | 67 | 330 | 4.0 | 6.0 | 0.00 | 0.11 | 0.00 | 70 | 1013.3 |
| 20260509080344 | 67 | 234 | 1.0 | 4.0 | 0.00 | 0.00 | 0.00 | 64 | 1016.6 |
| 20260509080338 | 66 | 31 | 1.0 | 9.0 | 0.00 | 0.00 | 0.00 | 61 | 1017.1 |
| 20260509080332 | 66 | 260 | 3.0 | 6.0 | 0.00 | 0.00 | 0.00 | 80 | 1017.9 |
| 20260509080330 | 66 | 28 | 0.0 | 3.0 | 0.00 | 0.00 | 0.00 | 66 | 1040.0 |
| 20260509080327 | 65 | 148 | 0.0 | 6.0 | 0.00 | 0.00 | 0.00 | 60 | 1016.7 |
| 20260509075859 | 63 | 169 | 4.0 | 6.0 | 0.00 | 0.00 | 0.00 | 68 | 1013.7 |
| 20260509075850 | 67 | 257 | 3.0 | 7.0 | 0.00 | 0.11 | 0.00 | 70 | 1013.2 |
| 20260509075841 | 65 | 296 | 0.0 | 9.0 | 0.00 | 0.00 | 0.00 | 59 | 1017.1 |
| 20260509075838 | 66 | 271 | 2.0 | 3.0 | 0.00 | 0.00 | 0.00 | 81 | 1018.0 |
| 20260509075832 | 65 | 21 | 1.0 | 2.0 | 0.00 | 0.00 | 0.00 | 70 | 1013.4 |
| 20260509075830 | 65 | 9 | 0.0 | 2.0 | 0.00 | 0.00 | 0.00 | 68 | 1040.1 |
| 20260509075827 | 64 | 153 | 0.0 | 4.0 | 0.00 | 0.00 | 0.00 | 63 | 1016.6 |
| 20260509075402 | 63 | 204 | 1.0 | 5.0 | 0.00 | 0.00 | 0.00 | 70 | 1013.6 |
| 20260509075351 | 67 | 339 | 3.0 | 7.0 | 0.00 | 0.11 | 0.00 | 70 | 1013.2 |
| 20260509075343 | 67 | 43 | 3.0 | 5.0 | 0.00 | 0.00 | 0.00 | 66 | 1016.6 |
| 20260509075341 | 65 | 299 | 2.0 | 6.0 | 0.00 | 0.00 | 0.00 | 81 | 1018.1 |
| 20260509075338 | 66 | 63 | 8.0 | 9.0 | 0.00 | 0.00 | 0.00 | 58 | 1017.1 |
| 20260509075331 | 64 | 47 | 1.0 | 2.0 | 0.00 | 0.00 | 0.00 | 72 | 1013.4 |
| 20260509075327 | 65 | 9 | 0.0 | 3.0 | 0.00 | 0.00 | 0.00 | 67 | 1040.1 |
| 20260509075321 | 64 | 276 | 0.0 | 3.0 | 0.00 | 0.00 | 0.00 | 61 | 1016.7 |
| 20260509074859 | 62 | 165 | 2.0 | 6.0 | 0.00 | 0.00 | 0.00 | 69 | 1013.7 |
| 20260509074852 | 66 | 302 | 5.0 | 8.0 | 0.00 | 0.11 | 0.00 | 70 | 1013.2 |
| 20260509074847 | 65 | 58 | 4.0 | 9.0 | 0.00 | 0.00 | 0.00 | 61 | 1017.2 |
| 20260509074837 | 64 | 47 | 1.0 | 2.0 | 0.00 | 0.00 | 0.00 | 74 | 1013.4 |
| 20260509074832 | 65 | 246 | 2.0 | 4.0 | 0.00 | 0.00 | 0.00 | 82 | 1018.1 |
| 20260509074827 | 65 | 6 | 1.0 | 4.0 | 0.00 | 0.00 | 0.00 | 69 | 1040.0 |
| 20260509074824 | 63 | 214 | 0.0 | 5.0 | 0.00 | 0.00 | 0.00 | 61 | 1016.7 |
| 20260509074359 | 62 | 170 | 5.0 | 7.0 | 0.00 | 0.00 | 0.00 | 69 | 1013.7 |
| 20260509074346 | 66 | 358 | 4.0 | 6.0 | 0.00 | 0.11 | 0.00 | 71 | 1013.3 |
| 20260509074341 | 65 | 24 | 1.0 | 10.0 | 0.00 | 0.00 | 0.00 | 62 | 1017.3 |
| 20260509074337 | 67 | 355 | 2.0 | 6.0 | 0.00 | 0.00 | 0.00 | 67 | 1016.6 |
| 20260509074332 | 65 | 246 | 1.0 | 4.0 | 0.00 | 0.00 | 0.00 | 82 | 1018.0 |
| 20260509074328 | 64 | 52 | 1.0 | 4.0 | 0.00 | 0.00 | 0.00 | 69 | 1040.1 |
| 20260509074324 | 63 | 252 | 0.0 | 3.0 | 0.00 | 0.00 | 0.00 | 61 | 1016.7 |
| 20260509073906 | 62 | 162 | 4.0 | 7.0 | 0.00 | 0.00 | 0.00 | 70 | 1013.6 |
| 20260509073846 | 66 | 343 | 6.0 | 6.0 | 0.00 | 0.11 | 0.00 | 72 | 1013.2 |
| 20260509073838 | 64 | 332 | 5.0 | 9.0 | 0.00 | 0.00 | 0.00 | 61 | 1017.4 |
| 20260509073834 | 62 | 47 | 0.0 | 2.0 | 0.00 | 0.00 | 0.00 | 76 | 1013.5 |
| 20260509073832 | 64 | 269 | 4.0 | 6.0 | 0.00 | 0.00 | 0.00 | 84 | 1018.0 |
| 20260509073824 | 63 | 165 | 0.0 | 4.0 | 0.00 | 0.00 | 0.00 | 61 | 1016.7 |
| 20260509073359 | 62 | 181 | 2.0 | 5.0 | 0.00 | 0.00 | 0.00 | 70 | 1013.6 |
| 20260509073349 | 66 | 340 | 3.0 | 7.0 | 0.00 | 0.12 | 0.00 | 72 | 1013.2 |
| 20260509073347 | 64 | 28 | 6.0 | 10.0 | 0.00 | 0.00 | 0.00 | 63 | 1017.4 |
| 20260509073337 | 65 | 262 | 3.0 | 4.0 | 0.00 | 0.00 | 0.00 | 69 | 1016.7 |
| 20260509073335 | 61 | 47 | 0.0 | 2.0 | 0.00 | 0.00 | 0.00 | 77 | 1013.5 |
| 20260509073332 | 64 | 298 | 1.0 | 4.0 | 0.00 | 0.00 | 0.00 | 84 | 1018.0 |
| 20260509073327 | 64 | 316 | 3.0 | 4.0 | 0.00 | 0.00 | 0.00 | 73 | 1040.2 |
| 20260509073321 | 64 | 219 | 1.0 | 5.0 | 0.00 | 0.00 | 0.00 | 61 | 1016.7 |
| 20260509072905 | 61 | 123 | 1.0 | 7.0 | 0.00 | 0.00 | 0.00 | 71 | 1013.6 |
| 20260509072849 | 65 | 6 | 3.0 | 7.0 | 0.00 | 0.12 | 0.00 | 74 | 1013.2 |
| 20260509072841 | 63 | 304 | 4.0 | 8.0 | 0.00 | 0.00 | 0.00 | 62 | 1017.4 |
| 20260509072832 | 63 | 284 | 3.0 | 4.0 | 0.00 | 0.00 | 0.00 | 84 | 1018.0 |
| 20260509072830 | 64 | 160 | 0.0 | 5.0 | 0.00 | 0.00 | 0.00 | 60 | 1016.6 |
| 20260509072827 | 63 | 302 | 0.0 | 4.0 | 0.00 | 0.00 | 0.00 | 72 | 1040.3 |
| 20260509072359 | 61 | 142 | 1.0 | 7.0 | 0.00 | 0.00 | 0.00 | 71 | 1013.7 |
| 20260509072346 | 65 | 274 | 3.0 | 6.0 | 0.00 | 0.12 | 0.00 | 75 | 1013.1 |
| 20260509072338 | 63 | 42 | 6.0 | 8.0 | 0.00 | 0.00 | 0.00 | 63 | 1017.4 |
| 20260509072335 | 63 | 274 | 2.0 | 4.0 | 0.00 | 0.00 | 0.00 | 85 | 1018.0 |
| 20260509072331 | 60 | 18 | 0.0 | 2.0 | 0.00 | 0.00 | 0.00 | 82 | 1013.7 |
| 20260509072327 | 63 | 358 | 2.0 | 4.0 | 0.00 | 0.00 | 0.00 | 72 | 1040.3 |
| 20260509072321 | 65 | 287 | 0.0 | 4.0 | 0.00 | 0.00 | 0.00 | 58 | 1016.6 |
| 20260509071859 | 61 | 200 | 2.0 | 9.0 | 0.00 | 0.00 | 0.00 | 71 | 1013.5 |
| 20260509071856 | 65 | 330 | 2.0 | 7.0 | 0.00 | 0.12 | 0.00 | 75 | 1013.1 |
| 20260509071846 | 63 | 106 | 0.0 | 0.0 | 0.00 | 0.00 | 0.00 | 83 | 1015.4 |
| 20260509071838 | 63 | 338 | 3.0 | 7.0 | 0.00 | 0.00 | 0.00 | 65 | 1017.6 |
| 20260509071832 | 63 | 232 | 3.0 | 5.0 | 0.00 | 0.00 | 0.00 | 85 | 1018.1 |
| 20260509071827 | 62 | 31 | 4.0 | 4.0 | 0.00 | 0.00 | 0.00 | 76 | 1040.3 |
| 20260509071359 | 61 | 117 | 4.0 | 7.0 | 0.00 | 0.00 | 0.00 | 70 | 1013.6 |
| 20260509071346 | 64 | 323 | 2.0 | 8.0 | 0.00 | 0.13 | 0.00 | 75 | 1013.0 |
| 20260509071344 | 64 | 265 | 1.0 | 6.0 | 0.00 | 0.00 | 0.00 | 71 | 1016.7 |
| 20260509071338 | 62 | 308 | 2.0 | 5.0 | 0.00 | 0.00 | 0.00 | 64 | 1017.4 |
| 20260509071334 | 58 | 18 | 2.0 | 2.0 | 0.00 | 0.00 | 0.00 | 84 | 1013.9 |
| 20260509071332 | 63 | 296 | 0.0 | 4.0 | 0.00 | 0.00 | 0.00 | 85 | 1018.0 |
| 20260509071327 | 61 | 14 | 2.0 | 2.0 | 0.00 | 0.00 | 0.00 | 75 | 1040.4 |
| 20260509071321 | 65 | 285 | 0.0 | 3.0 | 0.00 | 0.00 | 0.00 | 55 | 1016.6 |
| 20260509070859 | 61 | 171 | 4.0 | 5.0 | 0.00 | 0.00 | 0.00 | 71 | 1013.6 |
| 20260509070846 | 64 | 338 | 3.0 | 6.0 | 0.00 | 0.15 | 0.00 | 76 | 1013.0 |
| 20260509070844 | 62 | 10 | 3.0 | 8.0 | 0.00 | 0.00 | 0.00 | 65 | 1017.5 |
| 20260509070840 | 63 | 266 | 4.0 | 6.0 | 0.00 | 0.00 | 0.00 | 71 | 1016.7 |
| 20260509070834 | 58 | 18 | 1.0 | 2.0 | 0.00 | 0.00 | 0.00 | 85 | 1013.9 |
| 20260509070832 | 62 | 325 | 3.0 | 6.0 | 0.00 | 0.00 | 0.00 | 85 | 1018.0 |
| 20260509070827 | 61 | 14 | 0.0 | 4.0 | 0.00 | 0.00 | 0.00 | 74 | 1040.3 |
| 20260509070821 | 65 | 356 | 0.0 | 0.0 | 0.00 | 0.00 | 0.00 | 57 | 1016.7 |
| 20260509070406 | 61 | 173 | 3.0 | 5.0 | 0.00 | 0.00 | 0.00 | 72 | 1013.6 |
| 20260509070350 | 64 | 321 | 2.0 | 7.0 | 0.00 | 0.17 | 0.00 | 77 | 1013.0 |
| 20260509070344 | 63 | 293 | 2.0 | 7.0 | 0.00 | 0.00 | 0.00 | 72 | 1016.7 |
| 20260509070341 | 62 | 319 | 1.0 | 6.0 | 0.00 | 0.00 | 0.00 | 66 | 1017.5 |
| 20260509070335 | 62 | 322 | 3.0 | 5.0 | 0.00 | 0.00 | 0.00 | 85 | 1018.0 |
| 20260509070332 | 57 | 18 | 0.0 | 2.0 | 0.00 | 0.00 | 0.00 | 86 | 1013.9 |
| 20260509070327 | 61 | 342 | 3.0 | 4.0 | 0.00 | 0.00 | 0.00 | 75 | 1040.3 |
| 20260509070321 | 64 | 356 | 0.0 | 1.0 | 0.00 | 0.00 | 0.00 | 57 | 1016.6 |
| 20260509065859 | 61 | 178 | 2.0 | 6.0 | 0.00 | 0.00 | 0.00 | 70 | 1013.5 |
| 20260509065846 | 64 | 302 | 2.0 | 6.0 | 0.00 | 0.18 | 0.00 | 78 | 1012.9 |
| 20260509065841 | 61 | 340 | 0.0 | 0.0 | 0.00 | 0.00 | 0.00 | 67 | 1017.6 |
| 20260509065835 | 62 | 252 | 2.0 | 6.0 | 0.00 | 0.00 | 0.00 | 85 | 1018.0 |
| 20260509065831 | 56 | 18 | 2.0 | 3.0 | 0.00 | 0.00 | 0.00 | 87 | 1014.0 |
| 20260509065827 | 60 | 343 | 0.0 | 3.0 | 0.00 | 0.00 | 0.00 | 80 | 1040.3 |
| 20260509065824 | 64 | 301 | 1.0 | 2.0 | 0.00 | 0.00 | 0.00 | 58 | 1016.6 |
| 20260509065405 | 61 | 115 | 2.0 | 6.0 | 0.00 | 0.00 | 0.00 | 71 | 1013.4 |
| 20260509065346 | 64 | 327 | 4.0 | 10.0 | 0.00 | 0.18 | 0.00 | 78 | 1013.0 |
| 20260509065344 | 60 | 317 | 0.0 | 3.0 | 0.00 | 0.00 | 0.00 | 68 | 1017.5 |
| 20260509065337 | 63 | 263 | 6.0 | 7.0 | 0.00 | 0.00 | 0.00 | 72 | 1016.7 |
| 20260509065333 | 59 | 343 | 3.0 | 4.0 | 0.00 | 0.00 | 0.00 | 79 | 1040.3 |
| 20260509065331 | 56 | 18 | 1.0 | 2.0 | 0.00 | 0.00 | 0.00 | 87 | 1014.0 |
| 20260509065324 | 63 | 340 | 0.0 | 0.0 | 0.00 | 0.00 | 0.00 | 60 | 1016.6 |
| 20260509064859 | 61 | 128 | 2.0 | 4.0 | 0.00 | 0.00 | 0.00 | 70 | 1013.4 |
| 20260509064855 | 61 | 106 | 0.0 | 0.0 | 0.00 | 0.00 | 0.00 | 86 | 1015.4 |
| 20260509064849 | 64 | 314 | 2.0 | 6.0 | 0.00 | 0.18 | 0.00 | 78 | 1012.9 |
| 20260509064841 | 63 | 273 | 4.0 | 8.0 | 0.00 | 0.00 | 0.00 | 73 | 1016.7 |
| 20260509064838 | 60 | 26 | 3.0 | 4.0 | 0.00 | 0.00 | 0.00 | 69 | 1017.5 |
| 20260509064835 | 61 | 268 | 1.0 | 2.0 | 0.00 | 0.00 | 0.00 | 87 | 1017.9 |
| 20260509064831 | 55 | 331 | 0.0 | 2.0 | 0.00 | 0.00 | 0.00 | 88 | 1014.0 |
| 20260509064821 | 63 | 337 | 0.0 | 3.0 | 0.00 | 0.00 | 0.00 | 60 | 1016.6 |
| 20260509064359 | 61 | 120 | 3.0 | 4.0 | 0.00 | 0.00 | 0.00 | 71 | 1013.4 |
| 20260509064349 | 63 | 334 | 4.0 | 7.0 | 0.00 | 0.18 | 0.00 | 78 | 1012.9 |
| 20260509064338 | 60 | 294 | 0.0 | 3.0 | 0.00 | 0.00 | 0.00 | 69 | 1017.6 |
| 20260509064334 | 54 | 298 | 0.0 | 2.0 | 0.00 | 0.00 | 0.00 | 88 | 1014.1 |
| 20260509064332 | 60 | 267 | 1.0 | 4.0 | 0.00 | 0.00 | 0.00 | 87 | 1017.9 |
| 20260509064327 | 59 | 2 | 1.0 | 3.0 | 0.00 | 0.00 | 0.00 | 81 | 1040.4 |
| 20260509064321 | 63 | 315 | 3.0 | 4.0 | 0.00 | 0.00 | 0.00 | 59 | 1016.6 |
| 20260509063906 | 61 | 166 | 1.0 | 6.0 | 0.00 | 0.00 | 0.00 | 70 | 1013.5 |
| 20260509063849 | 63 | 359 | 5.0 | 8.0 | 0.00 | 0.18 | 0.00 | 79 | 1012.9 |
| 20260509063841 | 60 | 311 | 0.0 | 5.0 | 0.00 | 0.00 | 0.00 | 69 | 1017.5 |
| 20260509063837 | 62 | 263 | 1.0 | 6.0 | 0.00 | 0.00 | 0.00 | 73 | 1016.7 |
| 20260509063832 | 60 | 282 | 3.0 | 4.0 | 0.00 | 0.00 | 0.00 | 87 | 1017.9 |
| 20260509063830 | 59 | 2 | 3.0 | 3.0 | 0.00 | 0.00 | 0.00 | 81 | 1040.4 |
| 20260509063821 | 64 | 307 | 0.0 | 1.0 | 0.00 | 0.00 | 0.00 | 59 | 1016.5 |
| 20260509063359 | 60 | 189 | 3.0 | 5.0 | 0.00 | 0.00 | 0.00 | 69 | 1013.5 |
| 20260509063346 | 63 | 51 | 7.0 | 9.0 | 0.00 | 0.18 | 0.00 | 80 | 1013.0 |
| 20260509063341 | 62 | 244 | 3.0 | 4.0 | 0.00 | 0.00 | 0.00 | 73 | 1016.7 |
| 20260509063338 | 59 | 67 | 3.0 | 6.0 | 0.00 | 0.00 | 0.00 | 71 | 1017.6 |
| 20260509063336 | 59 | 341 | 3.0 | 4.0 | 0.00 | 0.00 | 0.00 | 81 | 1040.3 |
| 20260509063332 | 53 | 334 | 1.0 | 2.0 | 0.00 | 0.00 | 0.00 | 89 | 1014.1 |
| 20260509063324 | 64 | 236 | 0.0 | 0.0 | 0.00 | 0.00 | 0.00 | 58 | 1016.4 |
| 20260509062908 | 60 | 167 | 5.0 | 6.0 | 0.00 | 0.00 | 0.00 | 68 | 1013.5 |
| 20260509062849 | 62 | 356 | 3.0 | 8.0 | 0.00 | 0.19 | 0.00 | 80 | 1012.9 |
| 20260509062838 | 59 | 32 | 3.0 | 8.0 | 0.00 | 0.00 | 0.00 | 72 | 1017.7 |
| 20260509062832 | 60 | 284 | 0.0 | 0.0 | 0.00 | 0.00 | 0.00 | 86 | 1017.9 |
| 20260509062830 | 59 | 341 | 2.0 | 7.0 | 0.00 | 0.00 | 0.00 | 81 | 1040.4 |
| 20260509062821 | 63 | 278 | 0.0 | 0.0 | 0.00 | 0.00 | 0.00 | 56 | 1016.5 |
| 20260509062403 | 60 | 171 | 2.0 | 5.0 | 0.00 | 0.00 | 0.00 | 67 | 1013.5 |
| 20260509062346 | 62 | 337 | 1.0 | 9.0 | 0.00 | 0.19 | 0.00 | 81 | 1013.0 |
| 20260509062338 | 58 | 70 | 5.0 | 8.0 | 0.00 | 0.00 | 0.00 | 74 | 1017.6 |
| 20260509062334 | 52 | 340 | 1.0 | 2.0 | 0.00 | 0.00 | 0.00 | 92 | 1014.2 |
| 20260509062330 | 59 | 16 | 6.0 | 7.0 | 0.00 | 0.00 | 0.00 | 81 | 1040.4 |
| 20260509062321 | 63 | 284 | 0.0 | 0.0 | 0.00 | 0.00 | 0.00 | 57 | 1016.5 |
| 20260509061900 | 60 | 175 | 2.0 | 7.0 | 0.00 | 0.00 | 0.00 | 68 | 1013.5 |
| 20260509061847 | 62 | 337 | 4.0 | 9.0 | 0.00 | 0.19 | 0.00 | 81 | 1013.0 |
| 20260509061840 | 61 | 281 | 3.0 | 6.0 | 0.00 | 0.00 | 0.00 | 73 | 1016.7 |
| 20260509061838 | 58 | 5 | 4.0 | 6.0 | 0.00 | 0.00 | 0.00 | 74 | 1017.5 |
| 20260509061833 | 59 | 32 | 4.0 | 6.0 | 0.00 | 0.00 | 0.00 | 82 | 1040.5 |
| 20260509061831 | 51 | 337 | 1.0 | 2.0 | 0.00 | 0.00 | 0.00 | 93 | 1014.2 |
| 20260509061825 | 63 | 291 | 0.0 | 0.0 | 0.00 | 0.00 | 0.00 | 58 | 1016.4 |
| 20260509061401 | 60 | 169 | 4.0 | 5.0 | 0.00 | 0.00 | 0.00 | 66 | 1013.4 |
| 20260509061349 | 62 | 309 | 6.0 | 7.0 | 0.00 | 0.19 | 0.00 | 82 | 1012.9 |
| 20260509061343 | 61 | 267 | 2.0 | 3.0 | 0.00 | 0.00 | 0.00 | 73 | 1016.5 |
| 20260509061338 | 57 | 11 | 4.0 | 7.0 | 0.00 | 0.00 | 0.00 | 74 | 1017.5 |
| 20260509061334 | 51 | 322 | 0.0 | 3.0 | 0.00 | 0.00 | 0.00 | 93 | 1014.1 |
| 20260509061332 | 59 | 273 | 0.0 | 0.0 | 0.00 | 0.00 | 0.00 | 87 | 1017.9 |
| 20260509061330 | 59 | 24 | 1.0 | 4.0 | 0.00 | 0.00 | 0.00 | 82 | 1040.5 |
| 20260509061322 | 62 | 292 | 0.0 | 0.0 | 0.00 | 0.00 | 0.00 | 61 | 1016.5 |
| 20260509060900 | 60 | 146 | 3.0 | 4.0 | 0.00 | 0.00 | 0.00 | 67 | 1013.3 |
| 20260509060852 | 62 | 321 | 5.0 | 7.0 | 0.00 | 0.19 | 0.00 | 83 | 1013.0 |
| 20260509060847 | 57 | 0 | 6.0 | 9.0 | 0.00 | 0.00 | 0.00 | 75 | 1017.5 |
| 20260509060838 | 61 | 267 | 2.0 | 4.0 | 0.00 | 0.00 | 0.00 | 73 | 1016.5 |
| 20260509060834 | 50 | 340 | 0.0 | 3.0 | 0.00 | 0.00 | 0.00 | 93 | 1014.1 |
| 20260509060832 | 59 | 280 | 0.0 | 0.0 | 0.00 | 0.00 | 0.00 | 87 | 1017.9 |
| 20260509060830 | 62 | 274 | 0.0 | 3.0 | 0.00 | 0.00 | 0.00 | 63 | 1016.4 |
| 20260509060406 | 60 | 127 | 2.0 | 4.0 | 0.00 | 0.00 | 0.00 | 66 | 1013.3 |
| 20260509060346 | 57 | 106 | 0.0 | 0.0 | 0.00 | 0.00 | 0.00 | 91 | 1015.4 |
| 20260509060341 | 60 | 278 | 2.0 | 4.0 | 0.00 | 0.00 | 0.00 | 71 | 1016.5 |
| 20260509060338 | 57 | 5 | 6.0 | 10.0 | 0.00 | 0.00 | 0.00 | 76 | 1017.5 |
| 20260509060335 | 50 | 331 | 2.0 | 2.0 | 0.00 | 0.00 | 0.00 | 93 | 1014.1 |
| 20260509060332 | 59 | 292 | 0.0 | 0.0 | 0.00 | 0.00 | 0.00 | 87 | 1017.9 |
| 20260509060327 | 57 | 83 | 0.0 | 0.0 | 0.00 | 0.00 | 0.00 | 85 | 1040.4 |
| 20260509060321 | 61 | 203 | 0.0 | 5.0 | 0.00 | 0.00 | 0.00 | 62 | 1016.4 |
| 20260509055859 | 61 | 126 | 2.0 | 4.0 | 0.00 | 0.00 | 0.00 | 66 | 1013.3 |
| 20260509055849 | 61 | 307 | 2.0 | 8.0 | 0.00 | 0.19 | 0.00 | 84 | 1012.9 |
| 20260509055838 | 57 | 13 | 8.0 | 9.0 | 0.00 | 0.00 | 0.00 | 77 | 1017.5 |
| 20260509055835 | 58 | 277 | 0.0 | 0.0 | 0.00 | 0.00 | 0.00 | 88 | 1017.9 |
| 20260509055833 | 57 | 83 | 0.0 | 0.0 | 0.00 | 0.00 | 0.00 | 86 | 1040.5 |
| 20260509055831 | 49 | 344 | 1.0 | 1.0 | 0.00 | 0.00 | 0.00 | 94 | 1014.2 |
| 20260509055821 | 61 | 235 | 0.0 | 5.0 | 0.00 | 0.00 | 0.00 | 61 | 1016.3 |
| 20260509055359 | 61 | 184 | 1.0 | 4.0 | 0.00 | 0.00 | 0.00 | 65 | 1013.3 |
| 20260509055346 | 61 | 323 | 4.0 | 7.0 | 0.00 | 0.19 | 0.00 | 84 | 1012.9 |
| 20260509055338 | 57 | 355 | 4.0 | 10.0 | 0.00 | 0.00 | 0.00 | 76 | 1017.5 |
| 20260509055332 | 58 | 277 | 0.0 | 0.0 | 0.00 | 0.00 | 0.00 | 88 | 1017.9 |
| 20260509055327 | 56 | 83 | 0.0 | 0.0 | 0.00 | 0.00 | 0.00 | 88 | 1040.5 |
| 20260509055321 | 61 | 215 | 6.0 | 9.0 | 0.00 | 0.00 | 0.00 | 59 | 1016.3 |
| 20260509054900 | 61 | 210 | 2.0 | 2.0 | 0.00 | 0.00 | 0.00 | 65 | 1013.2 |
| 20260509054849 | 60 | 309 | 5.0 | 7.0 | 0.00 | 0.19 | 0.00 | 85 | 1012.9 |
| 20260509054846 | 57 | 106 | 0.0 | 0.0 | 0.00 | 0.00 | 0.00 | 92 | 1015.5 |
| 20260509054841 | 57 | 339 | 3.0 | 8.0 | 0.00 | 0.00 | 0.00 | 76 | 1017.6 |
| 20260509054837 | 60 | 243 | 0.0 | 4.0 | 0.00 | 0.00 | 0.00 | 69 | 1016.4 |
| 20260509054835 | 58 | 277 | 0.0 | 0.0 | 0.00 | 0.00 | 0.00 | 88 | 1017.8 |
| 20260509054830 | 62 | 215 | 4.0 | 8.0 | 0.00 | 0.00 | 0.00 | 55 | 1016.3 |
| 20260509054406 | 60 | 257 | 0.0 | 1.0 | 0.00 | 0.00 | 0.00 | 69 | 1013.2 |
| 20260509054352 | 60 | 332 | 5.0 | 6.0 | 0.00 | 0.20 | 0.00 | 86 | 1012.9 |
| 20260509054338 | 56 | 10 | 4.0 | 8.0 | 0.00 | 0.00 | 0.00 | 77 | 1017.7 |
| 20260509054334 | 48 | 261 | 0.0 | 1.0 | 0.00 | 0.00 | 0.00 | 94 | 1014.2 |
| 20260509054332 | 57 | 277 | 0.0 | 0.0 | 0.00 | 0.00 | 0.00 | 88 | 1017.8 |
| 20260509054330 | 55 | 83 | 0.0 | 3.0 | 0.00 | 0.00 | 0.00 | 90 | 1040.4 |
| 20260509053903 | 60 | 257 | 0.0 | 2.0 | 0.00 | 0.00 | 0.00 | 70 | 1013.2 |
| 20260509053849 | 60 | 313 | 4.0 | 6.0 | 0.00 | 0.20 | 0.00 | 86 | 1012.9 |
| 20260509053844 | 56 | 39 | 5.0 | 5.0 | 0.00 | 0.00 | 0.00 | 78 | 1017.7 |
| 20260509053841 | 57 | 277 | 0.0 | 0.0 | 0.00 | 0.00 | 0.00 | 89 | 1017.8 |
| 20260509053837 | 47 | 261 | 1.0 | 1.0 | 0.00 | 0.00 | 0.00 | 94 | 1014.2 |
| 20260509053827 | 54 | 83 | 0.0 | 2.0 | 0.00 | 0.00 | 0.00 | 91 | 1040.3 |
| 20260509053824 | 63 | 190 | 1.0 | 3.0 | 0.00 | 0.00 | 0.00 | 49 | 1016.0 |
| 20260509053400 | 59 | 258 | 0.0 | 2.0 | 0.00 | 0.00 | 0.00 | 67 | 1013.2 |
| 20260509053346 | 59 | 314 | 2.0 | 4.0 | 0.00 | 0.20 | 0.00 | 87 | 1012.9 |
| 20260509053342 | 47 | 261 | 0.0 | 2.0 | 0.00 | 0.00 | 0.00 | 94 | 1014.2 |
| 20260509053340 | 60 | 236 | 2.0 | 3.0 | 0.00 | 0.00 | 0.00 | 66 | 1016.2 |
| 20260509053338 | 56 | 311 | 2.0 | 4.0 | 0.00 | 0.00 | 0.00 | 78 | 1017.8 |
| 20260509053332 | 57 | 277 | 0.0 | 0.0 | 0.00 | 0.00 | 0.00 | 89 | 1017.8 |
| 20260509053327 | 54 | 83 | 0.0 | 1.0 | 0.00 | 0.00 | 0.00 | 91 | 1040.3 |
| 20260509053324 | 64 | 183 | 0.0 | 3.0 | 0.00 | 0.00 | 0.00 | 47 | 1015.9 |
| 20260509052906 | 58 | 261 | 0.0 | 3.0 | 0.00 | 0.00 | 0.00 | 70 | 1013.1 |
| 20260509052847 | 59 | 316 | 3.0 | 4.0 | 0.00 | 0.20 | 0.00 | 87 | 1013.0 |
| 20260509052838 | 56 | 30 | 2.0 | 5.0 | 0.00 | 0.00 | 0.00 | 79 | 1017.8 |
| 20260509052830 | 63 | 70 | 0.0 | 0.0 | 0.00 | 0.00 | 0.00 | 45 | 1015.8 |
| 20260509052827 | 54 | 83 | 1.0 | 3.0 | 0.00 | 0.00 | 0.00 | 92 | 1040.3 |
| 20260509052400 | 58 | 274 | 2.0 | 3.0 | 0.00 | 0.00 | 0.00 | 70 | 1013.0 |
| 20260509052349 | 59 | 324 | 2.0 | 5.0 | 0.00 | 0.20 | 0.00 | 88 | 1013.0 |
| 20260509052344 | 56 | 0 | 2.0 | 3.0 | 0.00 | 0.00 | 0.00 | 80 | 1017.9 |
| 20260509052341 | 60 | 252 | 1.0 | 4.0 | 0.00 | 0.00 | 0.00 | 67 | 1016.1 |
| 20260509052332 | 56 | 277 | 0.0 | 0.0 | 0.00 | 0.00 | 0.00 | 89 | 1017.8 |
| 20260509052330 | 53 | 83 | 1.0 | 2.0 | 0.00 | 0.00 | 0.00 | 92 | 1040.4 |
| 20260509052324 | 63 | 69 | 0.0 | 0.0 | 0.00 | 0.00 | 0.00 | 45 | 1015.9 |
| 20260509051909 | 57 | 276 | 2.0 | 2.0 | 0.00 | 0.00 | 0.00 | 71 | 1013.0 |
| 20260509051846 | 56 | 106 | 0.0 | 0.0 | 0.00 | 0.00 | 0.00 | 92 | 1015.3 |
| 20260509051841 | 55 | 57 | 1.0 | 2.0 | 0.00 | 0.00 | 0.00 | 80 | 1017.8 |
| 20260509051837 | 60 | 267 | 3.0 | 4.0 | 0.00 | 0.00 | 0.00 | 68 | 1016.0 |
| 20260509051834 | 46 | 261 | 0.0 | 2.0 | 0.00 | 0.00 | 0.00 | 94 | 1014.2 |
| 20260509051832 | 56 | 277 | 0.0 | 0.0 | 0.00 | 0.00 | 0.00 | 90 | 1017.6 |
| 20260509051827 | 53 | 83 | 1.0 | 3.0 | 0.00 | 0.00 | 0.00 | 93 | 1040.4 |
| 20260509051400 | 57 | 268 | 2.0 | 3.0 | 0.00 | 0.00 | 0.00 | 72 | 1013.0 |
| 20260509051346 | 59 | 285 | 4.0 | 4.0 | 0.00 | 0.20 | 0.00 | 88 | 1013.0 |
| 20260509051338 | 55 | 57 | 1.0 | 2.0 | 0.00 | 0.00 | 0.00 | 81 | 1017.7 |
| 20260509051335 | 46 | 261 | 1.0 | 2.0 | 0.00 | 0.00 | 0.00 | 94 | 1014.0 |
| 20260509051327 | 52 | 83 | 0.0 | 2.0 | 0.00 | 0.00 | 0.00 | 93 | 1040.5 |
| 20260509051324 | 62 | 70 | 0.0 | 0.0 | 0.00 | 0.00 | 0.00 | 47 | 1015.6 |
| 20260509050900 | 57 | 281 | 2.0 | 3.0 | 0.00 | 0.00 | 0.00 | 71 | 1013.0 |
| 20260509050846 | 59 | 312 | 0.0 | 0.0 | 0.00 | 0.20 | 0.00 | 88 | 1012.9 |
| 20260509050838 | 55 | 57 | 1.0 | 3.0 | 0.00 | 0.00 | 0.00 | 81 | 1017.7 |
| 20260509050835 | 56 | 277 | 0.0 | 0.0 | 0.00 | 0.00 | 0.00 | 90 | 1017.5 |
| 20260509050831 | 46 | 260 | 1.0 | 1.0 | 0.00 | 0.00 | 0.00 | 94 | 1014.0 |
| 20260509050821 | 62 | 70 | 0.0 | 0.0 | 0.00 | 0.00 | 0.00 | 47 | 1015.6 |
| 20260509050400 | 57 | 260 | 2.0 | 4.0 | 0.00 | 0.00 | 0.00 | 72 | 1013.1 |
| 20260509050352 | 56 | 106 | 0.0 | 0.0 | 0.00 | 0.00 | 0.00 | 92 | 1015.2 |
| 20260509050346 | 59 | 312 | 0.0 | 0.0 | 0.00 | 0.20 | 0.00 | 88 | 1012.8 |
| 20260509050338 | 55 | 57 | 2.0 | 2.0 | 0.00 | 0.00 | 0.00 | 81 | 1017.6 |
| 20260509050332 | 55 | 277 | 0.0 | 0.0 | 0.00 | 0.00 | 0.00 | 90 | 1017.5 |
| 20260509050330 | 52 | 83 | 2.0 | 3.0 | 0.00 | 0.00 | 0.00 | 93 | 1040.5 |
| 20260509050324 | 62 | 69 | 0.0 | 0.0 | 0.00 | 0.00 | 0.00 | 47 | 1015.5 |
| 20260509045903 | 57 | 263 | 1.0 | 2.0 | 0.00 | 0.00 | 0.00 | 72 | 1012.9 |
| 20260509045846 | 59 | 312 | 0.0 | 0.0 | 0.00 | 0.20 | 0.00 | 89 | 1012.7 |
| 20260509045838 | 54 | 57 | 0.0 | 2.0 | 0.00 | 0.00 | 0.00 | 81 | 1017.5 |
| 20260509045831 | 45 | 260 | 1.0 | 2.0 | 0.00 | 0.00 | 0.00 | 93 | 1013.8 |
| 20260509045827 | 51 | 83 | 1.0 | 2.0 | 0.00 | 0.00 | 0.00 | 93 | 1040.4 |
| 20260509045824 | 61 | 70 | 0.0 | 0.0 | 0.00 | 0.00 | 0.00 | 48 | 1015.6 |
| 20260509045409 | 56 | 269 | 3.0 | 3.0 | 0.00 | 0.00 | 0.00 | 73 | 1012.9 |
| 20260509045347 | 54 | 57 | 2.0 | 2.0 | 0.00 | 0.00 | 0.00 | 81 | 1017.6 |
| 20260509045343 | 62 | 343 | 2.0 | 4.0 | 0.00 | 0.00 | 0.00 | 70 | 1015.7 |
| 20260509045341 | 45 | 260 | 0.0 | 3.0 | 0.00 | 0.00 | 0.00 | 93 | 1013.8 |
| 20260509045332 | 55 | 277 | 0.0 | 0.0 | 0.00 | 0.00 | 0.00 | 90 | 1017.2 |
| 20260509045330 | 51 | 83 | 1.0 | 2.0 | 0.00 | 0.00 | 0.00 | 92 | 1040.4 |
| 20260509045321 | 61 | 70 | 0.0 | 0.0 | 0.00 | 0.00 | 0.00 | 48 | 1015.3 |
| 20260509044903 | 56 | 279 | 2.0 | 4.0 | 0.00 | 0.00 | 0.00 | 73 | 1012.9 |
| 20260509044849 | 56 | 106 | 0.0 | 0.0 | 0.00 | 0.00 | 0.00 | 92 | 1015.1 |
| 20260509044847 | 54 | 57 | 2.0 | 3.0 | 0.00 | 0.00 | 0.00 | 82 | 1017.5 |
| 20260509044838 | 55 | 278 | 0.0 | 0.0 | 0.00 | 0.00 | 0.00 | 90 | 1017.3 |
| 20260509044831 | 45 | 261 | 2.0 | 3.0 | 0.00 | 0.00 | 0.00 | 93 | 1013.8 |
| 20260509044827 | 51 | 83 | 0.0 | 0.0 | 0.00 | 0.00 | 0.00 | 92 | 1040.4 |
| 20260509044821 | 60 | 70 | 0.0 | 0.0 | 0.00 | 0.00 | 0.00 | 49 | 1015.3 |
| 20260509044403 | 56 | 252 | 1.0 | 4.0 | 0.00 | 0.00 | 0.00 | 74 | 1012.9 |
| 20260509044346 | 59 | 312 | 0.0 | 0.0 | 0.00 | 0.20 | 0.00 | 88 | 1012.7 |
| 20260509044340 | 61 | 342 | 2.0 | 5.0 | 0.00 | 0.00 | 0.00 | 68 | 1015.5 |
| 20260509044338 | 54 | 56 | 3.0 | 3.0 | 0.00 | 0.00 | 0.00 | 82 | 1017.5 |
| 20260509044332 | 55 | 278 | 0.0 | 0.0 | 0.00 | 0.00 | 0.00 | 91 | 1017.1 |
| 20260509044327 | 51 | 83 | 0.0 | 1.0 | 0.00 | 0.00 | 0.00 | 93 | 1040.3 |
| 20260509044321 | 60 | 69 | 0.0 | 0.0 | 0.00 | 0.00 | 0.00 | 50 | 1015.4 |
| 20260509043906 | 55 | 273 | 2.0 | 4.0 | 0.00 | 0.00 | 0.00 | 75 | 1012.9 |
| 20260509043852 | 59 | 312 | 0.0 | 0.0 | 0.00 | 0.20 | 0.00 | 88 | 1012.7 |
| 20260509043844 | 60 | 328 | 3.0 | 5.0 | 0.00 | 0.00 | 0.00 | 67 | 1015.6 |
| 20260509043838 | 54 | 56 | 0.0 | 1.0 | 0.00 | 0.00 | 0.00 | 82 | 1017.5 |
| 20260509043836 | 51 | 83 | 0.0 | 1.0 | 0.00 | 0.00 | 0.00 | 93 | 1040.3 |
| 20260509043832 | 55 | 278 | 0.0 | 0.0 | 0.00 | 0.00 | 0.00 | 91 | 1017.1 |
| 20260509043821 | 59 | 71 | 0.0 | 1.0 | 0.00 | 0.00 | 0.00 | 51 | 1015.3 |
| 20260509043406 | 55 | 279 | 2.0 | 4.0 | 0.00 | 0.00 | 0.00 | 75 | 1012.9 |
| 20260509043349 | 56 | 106 | 0.0 | 0.0 | 0.00 | 0.00 | 0.00 | 91 | 1015.0 |
| 20260509043346 | 58 | 312 | 0.0 | 0.0 | 0.00 | 0.20 | 0.00 | 88 | 1012.6 |
| 20260509043338 | 54 | 56 | 0.0 | 2.0 | 0.00 | 0.00 | 0.00 | 82 | 1017.5 |
| 20260509043335 | 54 | 278 | 0.0 | 0.0 | 0.00 | 0.00 | 0.00 | 91 | 1017.1 |
| 20260509043332 | 45 | 286 | 1.0 | 2.0 | 0.00 | 0.00 | 0.00 | 93 | 1013.8 |
| 20260509043327 | 50 | 83 | 1.0 | 1.0 | 0.00 | 0.00 | 0.00 | 92 | 1040.3 |
| 20260509043321 | 59 | 72 | 0.0 | 0.0 | 0.00 | 0.00 | 0.00 | 52 | 1015.3 |
| 20260509042907 | 55 | 279 | 2.0 | 4.0 | 0.00 | 0.00 | 0.00 | 76 | 1012.8 |
| 20260509042846 | 58 | 312 | 0.0 | 0.0 | 0.00 | 0.20 | 0.00 | 88 | 1012.5 |
| 20260509042841 | 54 | 55 | 1.0 | 1.0 | 0.00 | 0.00 | 0.00 | 83 | 1017.6 |
| 20260509042835 | 45 | 257 | 1.0 | 1.0 | 0.00 | 0.00 | 0.00 | 93 | 1013.7 |
| 20260509042830 | 59 | 86 | 0.0 | 1.0 | 0.00 | 0.00 | 0.00 | 52 | 1015.3 |
| 20260509042827 | 50 | 83 | 0.0 | 0.0 | 0.00 | 0.00 | 0.00 | 92 | 1040.2 |
| 20260509042400 | 54 | 277 | 2.0 | 3.0 | 0.00 | 0.00 | 0.00 | 76 | 1012.8 |
| 20260509042357 | 61 | 321 | 2.0 | 6.0 | 0.00 | 0.00 | 0.00 | 66 | 1015.5 |
| 20260509042349 | 58 | 312 | 1.0 | 5.0 | 0.00 | 0.20 | 0.00 | 88 | 1012.5 |
| 20260509042344 | 54 | 55 | 0.0 | 0.0 | 0.00 | 0.00 | 0.00 | 83 | 1017.5 |
| 20260509042338 | 45 | 257 | 0.0 | 2.0 | 0.00 | 0.00 | 0.00 | 93 | 1013.7 |
| 20260509042335 | 54 | 278 | 0.0 | 0.0 | 0.00 | 0.00 | 0.00 | 91 | 1017.1 |
| 20260509042330 | 51 | 83 | 0.0 | 1.0 | 0.00 | 0.00 | 0.00 | 92 | 1040.2 |
| 20260509042327 | 58 | 88 | 0.0 | 0.0 | 0.00 | 0.00 | 0.00 | 56 | 1015.4 |
| 20260509041903 | 54 | 291 | 1.0 | 3.0 | 0.00 | 0.00 | 0.00 | 76 | 1012.9 |
| 20260509041850 | 61 | 317 | 5.0 | 6.0 | 0.00 | 0.00 | 0.00 | 66 | 1015.4 |
| 20260509041847 | 58 | 311 | 3.0 | 4.0 | 0.00 | 0.20 | 0.00 | 88 | 1012.6 |
| 20260509041841 | 54 | 55 | 0.0 | 0.0 | 0.00 | 0.00 | 0.00 | 83 | 1017.6 |
| 20260509041832 | 54 | 278 | 0.0 | 0.0 | 0.00 | 0.00 | 0.00 | 91 | 1017.1 |
| 20260509041830 | 51 | 83 | 0.0 | 1.0 | 0.00 | 0.00 | 0.00 | 93 | 1040.1 |
| 20260509041821 | 59 | 88 | 0.0 | 0.0 | 0.00 | 0.00 | 0.00 | 57 | 1015.4 |
| 20260509041400 | 54 | 280 | 1.0 | 4.0 | 0.00 | 0.00 | 0.00 | 77 | 1013.0 |
| 20260509041356 | 61 | 317 | 3.0 | 5.0 | 0.00 | 0.00 | 0.00 | 66 | 1015.4 |
| 20260509041352 | 58 | 311 | 2.0 | 3.0 | 0.00 | 0.20 | 0.00 | 88 | 1012.5 |
| 20260509041344 | 54 | 56 | 0.0 | 2.0 | 0.00 | 0.00 | 0.00 | 83 | 1017.5 |
| 20260509041338 | 46 | 258 | 0.0 | 2.0 | 0.00 | 0.00 | 0.00 | 93 | 1013.8 |
| 20260509041335 | 54 | 278 | 0.0 | 0.0 | 0.00 | 0.00 | 0.00 | 91 | 1017.2 |
| 20260509041327 | 50 | 83 | 0.0 | 0.0 | 0.00 | 0.00 | 0.00 | 92 | 1040.1 |
| 20260509041324 | 59 | 87 | 0.0 | 0.0 | 0.00 | 0.00 | 0.00 | 55 | 1015.4 |
| 20260509040903 | 54 | 258 | 0.0 | 4.0 | 0.00 | 0.00 | 0.00 | 77 | 1013.0 |
| 20260509040852 | 58 | 311 | 2.0 | 4.0 | 0.00 | 0.20 | 0.00 | 88 | 1012.5 |
| 20260509040850 | 61 | 310 | 3.0 | 6.0 | 0.00 | 0.00 | 0.00 | 67 | 1015.4 |
| 20260509040844 | 54 | 56 | 1.0 | 3.0 | 0.00 | 0.00 | 0.00 | 82 | 1017.6 |
| 20260509040841 | 46 | 258 | 1.0 | 2.0 | 0.00 | 0.00 | 0.00 | 93 | 1013.8 |
| 20260509040832 | 54 | 278 | 0.0 | 0.0 | 0.00 | 0.00 | 0.00 | 91 | 1017.2 |
| 20260509040830 | 50 | 83 | 0.0 | 0.0 | 0.00 | 0.00 | 0.00 | 92 | 1040.2 |
| 20260509040827 | 59 | 87 | 0.0 | 0.0 | 0.00 | 0.00 | 0.00 | 55 | 1015.2 |
| 20260509040403 | 54 | 293 | 1.0 | 2.0 | 0.00 | 0.00 | 0.00 | 77 | 1013.0 |
| 20260509040350 | 61 | 290 | 3.0 | 7.0 | 0.00 | 0.00 | 0.00 | 68 | 1015.4 |
| 20260509040341 | 54 | 55 | 2.0 | 3.0 | 0.00 | 0.00 | 0.00 | 82 | 1017.7 |
| 20260509040335 | 46 | 258 | 1.0 | 2.0 | 0.00 | 0.00 | 0.00 | 93 | 1013.8 |
| 20260509040332 | 54 | 279 | 0.0 | 0.0 | 0.00 | 0.00 | 0.00 | 91 | 1017.3 |
| 20260509040330 | 50 | 83 | 0.0 | 1.0 | 0.00 | 0.00 | 0.00 | 92 | 1040.2 |
| 20260509040321 | 59 | 88 | 0.0 | 0.0 | 0.00 | 0.00 | 0.00 | 55 | 1015.3 |
| 20260509035901 | 54 | 287 | 2.0 | 3.0 | 0.00 | 0.00 | 0.00 | 77 | 1013.0 |
| 20260509035850 | 59 | 267 | 4.0 | 6.0 | 0.00 | 0.00 | 0.00 | 72 | 1015.4 |
| 20260509035846 | 58 | 323 | 0.0 | 0.0 | 0.00 | 0.20 | 0.00 | 88 | 1012.5 |
| 20260509035838 | 54 | 56 | 1.0 | 3.0 | 0.00 | 0.00 | 0.00 | 81 | 1017.6 |
| 20260509035835 | 54 | 280 | 0.0 | 0.0 | 0.00 | 0.00 | 0.00 | 90 | 1017.2 |
| 20260509035827 | 50 | 83 | 0.0 | 0.0 | 0.00 | 0.00 | 0.00 | 92 | 1040.2 |
| 20260509035824 | 59 | 88 | 0.0 | 0.0 | 0.00 | 0.00 | 0.00 | 56 | 1015.4 |
| 20260509035400 | 54 | 296 | 1.0 | 4.0 | 0.00 | 0.00 | 0.00 | 77 | 1013.0 |
| 20260509035350 | 59 | 261 | 4.0 | 7.0 | 0.00 | 0.00 | 0.00 | 73 | 1015.4 |
| 20260509035346 | 58 | 323 | 0.0 | 3.0 | 0.00 | 0.20 | 0.00 | 88 | 1012.4 |
| 20260509035341 | 54 | 59 | 0.0 | 3.0 | 0.00 | 0.00 | 0.00 | 81 | 1017.6 |
| 20260509035332 | 46 | 258 | 1.0 | 2.0 | 0.00 | 0.00 | 0.00 | 93 | 1013.6 |
| 20260509035327 | 50 | 83 | 0.0 | 0.0 | 0.00 | 0.00 | 0.00 | 92 | 1040.2 |
| 20260509035321 | 58 | 129 | 0.0 | 0.0 | 0.00 | 0.00 | 0.00 | 57 | 1015.4 |
| 20260509034906 | 54 | 316 | 3.0 | 3.0 | 0.00 | 0.00 | 0.00 | 78 | 1013.0 |
| 20260509034850 | 59 | 244 | 5.0 | 8.0 | 0.00 | 0.00 | 0.00 | 73 | 1015.4 |
| 20260509034841 | 54 | 103 | 3.0 | 4.0 | 0.00 | 0.00 | 0.00 | 81 | 1017.6 |
| 20260509034832 | 54 | 280 | 0.0 | 0.0 | 0.00 | 0.00 | 0.00 | 90 | 1017.2 |
| 20260509034830 | 50 | 83 | 0.0 | 0.0 | 0.00 | 0.00 | 0.00 | 91 | 1040.1 |
| 20260509034821 | 58 | 129 | 0.0 | 0.0 | 0.00 | 0.00 | 0.00 | 61 | 1015.3 |
| 20260509034406 | 54 | 294 | 2.0 | 3.0 | 0.00 | 0.00 | 0.00 | 78 | 1013.0 |
| 20260509034353 | 58 | 255 | 5.0 | 5.0 | 0.00 | 0.00 | 0.00 | 74 | 1015.5 |
| 20260509034346 | 58 | 335 | 0.0 | 0.0 | 0.00 | 0.20 | 0.00 | 88 | 1012.4 |
| 20260509034338 | 55 | 104 | 2.0 | 3.0 | 0.00 | 0.00 | 0.00 | 82 | 1017.6 |
| 20260509034335 | 46 | 259 | 1.0 | 2.0 | 0.00 | 0.00 | 0.00 | 93 | 1013.7 |
| 20260509034333 | 50 | 83 | 0.0 | 0.0 | 0.00 | 0.00 | 0.00 | 91 | 1040.1 |
| 20260509034324 | 58 | 128 | 0.0 | 0.0 | 0.00 | 0.00 | 0.00 | 62 | 1015.4 |
| 20260509033906 | 54 | 275 | 0.0 | 4.0 | 0.00 | 0.00 | 0.00 | 77 | 1013.0 |
| 20260509033856 | 58 | 256 | 2.0 | 5.0 | 0.00 | 0.00 | 0.00 | 75 | 1015.4 |
| 20260509033846 | 58 | 335 | 0.0 | 2.0 | 0.00 | 0.20 | 0.00 | 88 | 1012.2 |
| 20260509033841 | 46 | 255 | 2.0 | 2.0 | 0.00 | 0.00 | 0.00 | 93 | 1013.7 |
| 20260509033838 | 55 | 104 | 0.0 | 0.0 | 0.00 | 0.00 | 0.00 | 82 | 1017.5 |
| 20260509033833 | 50 | 83 | 0.0 | 1.0 | 0.00 | 0.00 | 0.00 | 91 | 1040.1 |
| 20260509033821 | 58 | 129 | 0.0 | 0.0 | 0.00 | 0.00 | 0.00 | 62 | 1015.4 |
| 20260509033404 | 54 | 282 | 1.0 | 6.0 | 0.00 | 0.00 | 0.00 | 77 | 1013.1 |
| 20260509033350 | 58 | 259 | 2.0 | 6.0 | 0.00 | 0.00 | 0.00 | 75 | 1015.3 |
| 20260509033346 | 58 | 335 | 0.0 | 3.0 | 0.00 | 0.20 | 0.00 | 88 | 1012.2 |
| 20260509033344 | 55 | 104 | 0.0 | 1.0 | 0.00 | 0.00 | 0.00 | 81 | 1017.4 |
| 20260509033332 | 46 | 246 | 0.0 | 2.0 | 0.00 | 0.00 | 0.00 | 93 | 1013.7 |
| 20260509033327 | 51 | 83 | 1.0 | 1.0 | 0.00 | 0.00 | 0.00 | 92 | 1040.1 |
| 20260509032903 | 54 | 286 | 1.0 | 4.0 | 0.00 | 0.00 | 0.00 | 77 | 1013.1 |
| 20260509032856 | 57 | 232 | 5.0 | 8.0 | 0.00 | 0.00 | 0.00 | 76 | 1015.3 |
| 20260509032847 | 58 | 335 | 0.0 | 2.0 | 0.00 | 0.20 | 0.00 | 88 | 1012.0 |
| 20260509032844 | 55 | 104 | 1.0 | 2.0 | 0.00 | 0.00 | 0.00 | 81 | 1017.4 |
| 20260509032838 | 46 | 246 | 1.0 | 2.0 | 0.00 | 0.00 | 0.00 | 93 | 1013.7 |
| 20260509032830 | 51 | 83 | 0.0 | 0.0 | 0.00 | 0.00 | 0.00 | 92 | 1040.0 |
| 20260509032821 | 58 | 127 | 0.0 | 0.0 | 0.00 | 0.00 | 0.00 | 63 | 1015.5 |
| 20260509032403 | 54 | 286 | 0.0 | 7.0 | 0.00 | 0.00 | 0.00 | 77 | 1013.1 |
| 20260509032351 | 57 | 244 | 3.0 | 6.0 | 0.00 | 0.00 | 0.00 | 76 | 1015.2 |
| 20260509032349 | 58 | 335 | 1.0 | 3.0 | 0.00 | 0.20 | 0.00 | 88 | 1012.0 |
| 20260509032344 | 55 | 109 | 0.0 | 1.0 | 0.00 | 0.00 | 0.00 | 81 | 1017.4 |
| 20260509032335 | 46 | 246 | 0.0 | 3.0 | 0.00 | 0.00 | 0.00 | 93 | 1013.7 |
| 20260509032333 | 51 | 83 | 0.0 | 0.0 | 0.00 | 0.00 | 0.00 | 92 | 1040.0 |
| 20260509032322 | 59 | 127 | 0.0 | 0.0 | 0.00 | 0.00 | 0.00 | 64 | 1015.5 |
| 20260509031909 | 54 | 296 | 2.0 | 3.0 | 0.00 | 0.00 | 0.00 | 77 | 1013.1 |
| 20260509031855 | 56 | 106 | 0.0 | 0.0 | 0.00 | 0.00 | 0.00 | 91 | 1014.7 |
| 20260509031850 | 58 | 246 | 3.0 | 7.0 | 0.00 | 0.00 | 0.00 | 74 | 1015.3 |
| 20260509031846 | 58 | 340 | 0.0 | 3.0 | 0.00 | 0.20 | 0.00 | 88 | 1012.0 |
| 20260509031839 | 46 | 252 | 2.0 | 2.0 | 0.00 | 0.00 | 0.00 | 93 | 1013.7 |
| 20260509031830 | 51 | 83 | 0.0 | 0.0 | 0.00 | 0.00 | 0.00 | 92 | 1040.0 |
| 20260509031824 | 59 | 127 | 0.0 | 0.0 | 0.00 | 0.00 | 0.00 | 62 | 1015.4 |
| 20260509031400 | 54 | 301 | 0.0 | 2.0 | 0.00 | 0.00 | 0.00 | 77 | 1013.2 |
| 20260509031359 | 59 | 259 | 6.0 | 8.0 | 0.00 | 0.00 | 0.00 | 73 | 1015.2 |
| 20260509031349 | 58 | 340 | 0.0 | 1.0 | 0.00 | 0.20 | 0.00 | 88 | 1011.8 |
| 20260509031338 | 55 | 109 | 1.0 | 3.0 | 0.00 | 0.00 | 0.00 | 80 | 1017.4 |
| 20260509031335 | 46 | 252 | 1.0 | 1.0 | 0.00 | 0.00 | 0.00 | 93 | 1013.6 |
| 20260509031333 | 51 | 83 | 0.0 | 0.0 | 0.00 | 0.00 | 0.00 | 91 | 1040.0 |
| 20260509031330 | 59 | 126 | 0.0 | 1.0 | 0.00 | 0.00 | 0.00 | 62 | 1015.4 |
| 20260509030901 | 54 | 285 | 2.0 | 3.0 | 0.00 | 0.00 | 0.00 | 77 | 1013.2 |
| 20260509030851 | 59 | 250 | 4.0 | 8.0 | 0.00 | 0.00 | 0.00 | 73 | 1015.2 |
| 20260509030846 | 58 | 340 | 0.0 | 0.0 | 0.00 | 0.20 | 0.00 | 88 | 1011.8 |
| 20260509030844 | 55 | 48 | 0.0 | 0.0 | 0.00 | 0.00 | 0.00 | 80 | 1017.5 |
| 20260509030835 | 46 | 252 | 0.0 | 1.0 | 0.00 | 0.00 | 0.00 | 93 | 1013.6 |
| 20260509030830 | 51 | 83 | 0.0 | 0.0 | 0.00 | 0.00 | 0.00 | 92 | 1040.1 |
| 20260509030827 | 58 | 124 | 0.0 | 0.0 | 0.00 | 0.00 | 0.00 | 64 | 1015.4 |
| 20260509030406 | 54 | 294 | 2.0 | 2.0 | 0.00 | 0.00 | 0.00 | 77 | 1013.3 |
| 20260509030346 | 58 | 340 | 0.0 | 0.0 | 0.00 | 0.20 | 0.00 | 88 | 1011.6 |
| 20260509030338 | 56 | 48 | 0.0 | 0.0 | 0.00 | 0.00 | 0.00 | 79 | 1017.4 |
| 20260509030335 | 46 | 252 | 0.0 | 3.0 | 0.00 | 0.00 | 0.00 | 93 | 1013.6 |
| 20260509030330 | 51 | 83 | 0.0 | 0.0 | 0.00 | 0.00 | 0.00 | 92 | 1040.0 |
| 20260509030325 | 58 | 146 | 0.0 | 0.0 | 0.00 | 0.00 | 0.00 | 65 | 1015.4 |
| 20260509025903 | 54 | 292 | 2.0 | 3.0 | 0.00 | 0.00 | 0.00 | 77 | 1013.2 |
| 20260509025852 | 58 | 340 | 0.0 | 0.0 | 0.00 | 0.20 | 0.00 | 88 | 1011.6 |
| 20260509025838 | 56 | 48 | 0.0 | 0.0 | 0.00 | 0.00 | 0.00 | 79 | 1017.4 |
| 20260509025835 | 55 | 280 | 0.0 | 0.0 | 0.00 | 0.00 | 0.00 | 89 | 1016.9 |
| 20260509025827 | 51 | 83 | 0.0 | 0.0 | 0.00 | 0.00 | 0.00 | 92 | 1040.0 |
| 20260509025821 | 58 | 137 | 0.0 | 1.0 | 0.00 | 0.00 | 0.00 | 66 | 1015.3 |
| 20260509025403 | 54 | 289 | 2.0 | 3.0 | 0.00 | 0.00 | 0.00 | 78 | 1013.2 |
| 20260509025346 | 58 | 340 | 0.0 | 0.0 | 0.00 | 0.20 | 0.00 | 88 | 1011.6 |
| 20260509025338 | 56 | 48 | 0.0 | 2.0 | 0.00 | 0.00 | 0.00 | 79 | 1017.4 |
| 20260509025336 | 46 | 340 | 2.0 | 2.0 | 0.00 | 0.00 | 0.00 | 93 | 1013.5 |
| 20260509025333 | 51 | 83 | 0.0 | 0.0 | 0.00 | 0.00 | 0.00 | 92 | 1039.9 |
| 20260509025324 | 57 | 121 | 0.0 | 1.0 | 0.00 | 0.00 | 0.00 | 70 | 1015.4 |
| 20260509024900 | 54 | 267 | 2.0 | 3.0 | 0.00 | 0.00 | 0.00 | 78 | 1013.3 |
| 20260509024849 | 56 | 106 | 0.0 | 0.0 | 0.00 | 0.00 | 0.00 | 90 | 1014.4 |
| 20260509024846 | 58 | 340 | 0.0 | 1.0 | 0.00 | 0.20 | 0.00 | 88 | 1011.7 |
| 20260509024841 | 56 | 48 | 2.0 | 4.0 | 0.00 | 0.00 | 0.00 | 78 | 1017.4 |
| 20260509024835 | 46 | 248 | 1.0 | 3.0 | 0.00 | 0.00 | 0.00 | 93 | 1013.5 |
| 20260509024827 | 51 | 83 | 0.0 | 0.0 | 0.00 | 0.00 | 0.00 | 91 | 1039.9 |
| 20260509024822 | 57 | 152 | 1.0 | 3.0 | 0.00 | 0.00 | 0.00 | 70 | 1015.4 |
| 20260509024400 | 54 | 257 | 2.0 | 5.0 | 0.00 | 0.00 | 0.00 | 78 | 1013.3 |
| 20260509024346 | 58 | 340 | 0.0 | 2.0 | 0.00 | 0.20 | 0.00 | 88 | 1011.7 |
| 20260509024338 | 56 | 49 | 1.0 | 4.0 | 0.00 | 0.00 | 0.00 | 78 | 1017.3 |
| 20260509024332 | 46 | 251 | 0.0 | 2.0 | 0.00 | 0.00 | 0.00 | 93 | 1013.5 |
| 20260509024330 | 51 | 83 | 0.0 | 1.0 | 0.00 | 0.00 | 0.00 | 91 | 1039.9 |
| 20260509024322 | 57 | 160 | 3.0 | 3.0 | 0.00 | 0.00 | 0.00 | 72 | 1015.4 |
| 20260509023901 | 54 | 269 | 3.0 | 4.0 | 0.00 | 0.00 | 0.00 | 78 | 1013.3 |
| 20260509023849 | 58 | 340 | 1.0 | 2.0 | 0.00 | 0.20 | 0.00 | 88 | 1011.7 |
| 20260509023847 | 56 | 48 | 2.0 | 4.0 | 0.00 | 0.00 | 0.00 | 79 | 1017.4 |
| 20260509023835 | 56 | 280 | 0.0 | 0.0 | 0.00 | 0.00 | 0.00 | 89 | 1017.1 |
| 20260509023832 | 46 | 252 | 1.0 | 2.0 | 0.00 | 0.00 | 0.00 | 93 | 1013.5 |
| 20260509023828 | 58 | 160 | 2.0 | 4.0 | 0.00 | 0.00 | 0.00 | 71 | 1015.5 |
| 20260509023400 | 54 | 280 | 2.0 | 4.0 | 0.00 | 0.00 | 0.00 | 78 | 1013.2 |
| 20260509023349 | 57 | 106 | 0.0 | 0.0 | 0.00 | 0.00 | 0.00 | 90 | 1014.5 |
| 20260509023347 | 58 | 340 | 0.0 | 0.0 | 0.00 | 0.20 | 0.00 | 88 | 1011.8 |
| 20260509023338 | 56 | 56 | 3.0 | 3.0 | 0.00 | 0.00 | 0.00 | 79 | 1017.4 |
| 20260509023332 | 56 | 280 | 0.0 | 0.0 | 0.00 | 0.00 | 0.00 | 88 | 1017.0 |
| 20260509023327 | 51 | 83 | 0.0 | 1.0 | 0.00 | 0.00 | 0.00 | 91 | 1039.9 |
| 20260509023325 | 58 | 161 | 3.0 | 5.0 | 0.00 | 0.00 | 0.00 | 69 | 1015.5 |
| 20260509022909 | 54 | 275 | 3.0 | 4.0 | 0.00 | 0.00 | 0.00 | 77 | 1013.2 |
| 20260509022847 | 58 | 340 | 0.0 | 0.0 | 0.00 | 0.20 | 0.00 | 88 | 1011.8 |
| 20260509022838 | 56 | 57 | 3.0 | 3.0 | 0.00 | 0.00 | 0.00 | 79 | 1017.4 |
| 20260509022835 | 56 | 280 | 0.0 | 0.0 | 0.00 | 0.00 | 0.00 | 88 | 1017.1 |
| 20260509022833 | 51 | 83 | 0.0 | 1.0 | 0.00 | 0.00 | 0.00 | 91 | 1039.9 |
| 20260509022822 | 58 | 148 | 4.0 | 5.0 | 0.00 | 0.00 | 0.00 | 68 | 1015.4 |
| 20260509022400 | 54 | 268 | 1.0 | 4.0 | 0.00 | 0.00 | 0.00 | 77 | 1013.3 |
| 20260509022349 | 58 | 340 | 0.0 | 3.0 | 0.00 | 0.20 | 0.00 | 88 | 1011.7 |
| 20260509022341 | 56 | 56 | 0.0 | 2.0 | 0.00 | 0.00 | 0.00 | 79 | 1017.4 |
| 20260509022332 | 47 | 254 | 0.0 | 3.0 | 0.00 | 0.00 | 0.00 | 92 | 1013.5 |
| 20260509022327 | 52 | 83 | 0.0 | 1.0 | 0.00 | 0.00 | 0.00 | 91 | 1039.9 |
| 20260509022325 | 58 | 155 | 4.0 | 4.0 | 0.00 | 0.00 | 0.00 | 67 | 1015.4 |
| 20260509021900 | 54 | 276 | 2.0 | 4.0 | 0.00 | 0.00 | 0.00 | 77 | 1013.2 |
| 20260509021852 | 57 | 106 | 0.0 | 0.0 | 0.00 | 0.00 | 0.00 | 89 | 1014.6 |
| 20260509021850 | 58 | 340 | 3.0 | 4.0 | 0.00 | 0.20 | 0.00 | 88 | 1011.7 |
| 20260509021841 | 56 | 56 | 2.0 | 2.0 | 0.00 | 0.00 | 0.00 | 79 | 1017.3 |
| 20260509021836 | 47 | 259 | 0.0 | 3.0 | 0.00 | 0.00 | 0.00 | 92 | 1013.5 |
| 20260509021832 | 56 | 280 | 0.0 | 0.0 | 0.00 | 0.00 | 0.00 | 88 | 1016.9 |
| 20260509021830 | 52 | 83 | 0.0 | 1.0 | 0.00 | 0.00 | 0.00 | 91 | 1039.9 |
| 20260509021822 | 58 | 147 | 3.0 | 3.0 | 0.00 | 0.00 | 0.00 | 67 | 1015.4 |
| 20260509021403 | 54 | 270 | 2.0 | 4.0 | 0.00 | 0.00 | 0.00 | 77 | 1013.2 |
| 20260509021346 | 58 | 340 | 1.0 | 3.0 | 0.00 | 0.20 | 0.00 | 89 | 1011.7 |
| 20260509021338 | 56 | 56 | 1.0 | 3.0 | 0.00 | 0.00 | 0.00 | 78 | 1017.3 |
| 20260509021334 | 52 | 83 | 0.0 | 0.0 | 0.00 | 0.00 | 0.00 | 91 | 1039.9 |
| 20260509021328 | 58 | 134 | 0.0 | 5.0 | 0.00 | 0.00 | 0.00 | 70 | 1015.4 |
| 20260509020901 | 54 | 271 | 3.0 | 4.0 | 0.00 | 0.00 | 0.00 | 77 | 1013.3 |
| 20260509020852 | 59 | 340 | 1.0 | 4.0 | 0.00 | 0.20 | 0.00 | 89 | 1011.6 |
| 20260509020838 | 47 | 257 | 1.0 | 2.0 | 0.00 | 0.00 | 0.00 | 93 | 1013.5 |
| 20260509020833 | 56 | 280 | 0.0 | 0.0 | 0.00 | 0.00 | 0.00 | 88 | 1017.0 |
| 20260509020828 | 52 | 83 | 0.0 | 0.0 | 0.00 | 0.00 | 0.00 | 91 | 1039.9 |
| 20260509020822 | 57 | 115 | 5.0 | 6.0 | 0.00 | 0.00 | 0.00 | 72 | 1015.4 |
| 20260509020403 | 54 | 271 | 3.0 | 6.0 | 0.00 | 0.00 | 0.00 | 78 | 1013.4 |
| 20260509020349 | 57 | 106 | 0.0 | 0.0 | 0.00 | 0.00 | 0.00 | 89 | 1014.7 |
| 20260509020347 | 59 | 1 | 2.0 | 4.0 | 0.00 | 0.20 | 0.00 | 89 | 1011.5 |
| 20260509020338 | 56 | 56 | 3.0 | 3.0 | 0.00 | 0.00 | 0.00 | 78 | 1017.3 |
| 20260509020335 | 56 | 280 | 0.0 | 0.0 | 0.00 | 0.00 | 0.00 | 88 | 1017.0 |
| 20260509020330 | 52 | 83 | 0.0 | 0.0 | 0.00 | 0.00 | 0.00 | 91 | 1039.7 |
| 20260509020328 | 47 | 258 | 2.0 | 2.0 | 0.00 | 0.00 | 0.00 | 93 | 1013.5 |
| 20260509015902 | 54 | 275 | 3.0 | 4.0 | 0.00 | 0.00 | 0.00 | 78 | 1013.4 |
| 20260509015846 | 59 | 23 | 2.0 | 5.0 | 0.00 | 0.20 | 0.00 | 89 | 1011.6 |
| 20260509015841 | 57 | 57 | 2.0 | 3.0 | 0.00 | 0.00 | 0.00 | 78 | 1017.3 |
| 20260509015835 | 56 | 280 | 0.0 | 0.0 | 0.00 | 0.00 | 0.00 | 87 | 1017.0 |
| 20260509015830 | 52 | 83 | 0.0 | 0.0 | 0.00 | 0.00 | 0.00 | 90 | 1039.7 |
| 20260509015824 | 56 | 139 | 3.0 | 4.0 | 0.00 | 0.00 | 0.00 | 77 | 1015.4 |
| 20260509015356 | 54 | 272 | 3.0 | 3.0 | 0.00 | 0.00 | 0.00 | 78 | 1013.3 |
| 20260509015352 | 59 | 357 | 2.0 | 6.0 | 0.00 | 0.20 | 0.00 | 89 | 1011.7 |
| 20260509015338 | 57 | 56 | 0.0 | 0.0 | 0.00 | 0.00 | 0.00 | 77 | 1017.2 |
| 20260509015332 | 56 | 280 | 0.0 | 1.0 | 0.00 | 0.00 | 0.00 | 87 | 1017.1 |
| 20260509015330 | 52 | 83 | 0.0 | 1.0 | 0.00 | 0.00 | 0.00 | 90 | 1039.6 |
| 20260509015328 | 47 | 239 | 0.0 | 3.0 | 0.00 | 0.00 | 0.00 | 93 | 1013.7 |
| 20260509015321 | 57 | 155 | 3.0 | 6.0 | 0.00 | 0.00 | 0.00 | 77 | 1015.4 |
| 20260509014856 | 54 | 242 | 3.0 | 3.0 | 0.00 | 0.00 | 0.00 | 78 | 1013.3 |
| 20260509014847 | 57 | 106 | 0.0 | 0.0 | 0.00 | 0.00 | 0.00 | 89 | 1014.5 |
| 20260509014844 | 57 | 57 | 0.0 | 0.0 | 0.00 | 0.00 | 0.00 | 77 | 1017.3 |
| 20260509014835 | 56 | 280 | 0.0 | 0.0 | 0.00 | 0.00 | 0.00 | 87 | 1017.1 |
| 20260509014831 | 47 | 256 | 2.0 | 3.0 | 0.00 | 0.00 | 0.00 | 92 | 1013.7 |
| 20260509014827 | 52 | 83 | 0.0 | 1.0 | 0.00 | 0.00 | 0.00 | 91 | 1039.7 |
| 20260509014821 | 57 | 175 | 4.0 | 7.0 | 0.00 | 0.00 | 0.00 | 76 | 1015.3 |
| 20260509014356 | 54 | 279 | 2.0 | 3.0 | 0.00 | 0.00 | 0.00 | 78 | 1013.4 |
| 20260509014349 | 59 | 1 | 3.0 | 8.0 | 0.00 | 0.20 | 0.00 | 89 | 1011.7 |
| 20260509014338 | 57 | 57 | 0.0 | 4.0 | 0.00 | 0.00 | 0.00 | 78 | 1017.3 |
| 20260509014332 | 56 | 280 | 0.0 | 0.0 | 0.00 | 0.00 | 0.00 | 87 | 1017.0 |
| 20260509014329 | 47 | 262 | 2.0 | 3.0 | 0.00 | 0.00 | 0.00 | 92 | 1013.6 |
| 20260509014327 | 58 | 173 | 3.0 | 9.0 | 0.00 | 0.00 | 0.00 | 73 | 1015.3 |
| 20260509013857 | 54 | 273 | 2.0 | 4.0 | 0.00 | 0.00 | 0.00 | 78 | 1013.3 |
| 20260509013846 | 59 | 7 | 5.0 | 9.0 | 0.00 | 0.20 | 0.00 | 89 | 1011.6 |
| 20260509013844 | 56 | 66 | 2.0 | 3.0 | 0.00 | 0.00 | 0.00 | 78 | 1017.1 |
| 20260509013838 | 56 | 280 | 0.0 | 0.0 | 0.00 | 0.00 | 0.00 | 87 | 1017.0 |
| 20260509013828 | 47 | 269 | 1.0 | 3.0 | 0.00 | 0.00 | 0.00 | 92 | 1013.6 |
| 20260509013821 | 59 | 160 | 6.0 | 7.0 | 0.00 | 0.00 | 0.00 | 66 | 1015.3 |
| 20260509013359 | 54 | 269 | 3.0 | 4.0 | 0.00 | 0.00 | 0.00 | 78 | 1013.2 |
| 20260509013352 | 59 | 1 | 3.0 | 6.0 | 0.00 | 0.20 | 0.00 | 89 | 1011.6 |
| 20260509013346 | 57 | 106 | 0.0 | 0.0 | 0.00 | 0.00 | 0.00 | 88 | 1014.3 |
| 20260509013338 | 57 | 66 | 1.0 | 2.0 | 0.00 | 0.00 | 0.00 | 78 | 1017.2 |
| 20260509013336 | 58 | 83 | 0.0 | 0.0 | 0.00 | 0.00 | 0.00 | 82 | 1039.6 |
| 20260509013334 | 47 | 270 | 2.0 | 2.0 | 0.00 | 0.00 | 0.00 | 92 | 1013.7 |
| 20260509013332 | 57 | 280 | 0.0 | 2.0 | 0.00 | 0.00 | 0.00 | 87 | 1017.0 |
| 20260509013321 | 59 | 175 | 0.0 | 0.0 | 0.00 | 0.00 | 0.00 | 62 | 1015.1 |
| 20260509012900 | 54 | 269 | 3.0 | 6.0 | 0.00 | 0.00 | 0.00 | 79 | 1013.3 |
| 20260509012846 | 59 | 359 | 6.0 | 11.0 | 0.00 | 0.20 | 0.00 | 89 | 1011.8 |
| 20260509012838 | 57 | 66 | 0.0 | 0.0 | 0.00 | 0.00 | 0.00 | 77 | 1017.1 |
| 20260509012835 | 57 | 280 | 0.0 | 2.0 | 0.00 | 0.00 | 0.00 | 87 | 1016.9 |
| 20260509012827 | 58 | 83 | 0.0 | 0.0 | 0.00 | 0.00 | 0.00 | 82 | 1039.7 |
| 20260509012821 | 59 | 89 | 0.0 | 0.0 | 0.00 | 0.00 | 0.00 | 60 | 1015.1 |
| 20260509012356 | 54 | 284 | 2.0 | 3.0 | 0.00 | 0.00 | 0.00 | 78 | 1013.3 |
| 20260509012352 | 59 | 349 | 3.0 | 8.0 | 0.00 | 0.20 | 0.00 | 89 | 1011.8 |
| 20260509012344 | 57 | 66 | 0.0 | 0.0 | 0.00 | 0.00 | 0.00 | 77 | 1017.1 |
| 20260509012332 | 57 | 280 | 0.0 | 1.0 | 0.00 | 0.00 | 0.00 | 86 | 1017.0 |
| 20260509012328 | 47 | 270 | 1.0 | 2.0 | 0.00 | 0.00 | 0.00 | 92 | 1013.7 |
| 20260509012321 | 59 | 89 | 0.0 | 0.0 | 0.00 | 0.00 | 0.00 | 59 | 1015.1 |
| 20260509011856 | 54 | 271 | 2.0 | 3.0 | 0.00 | 0.00 | 0.00 | 78 | 1013.3 |
| 20260509011849 | 59 | 24 | 4.0 | 8.0 | 0.00 | 0.20 | 0.00 | 89 | 1011.8 |
| 20260509011843 | 58 | 106 | 0.0 | 0.0 | 0.00 | 0.00 | 0.00 | 88 | 1014.2 |
| 20260509011841 | 57 | 66 | 0.0 | 0.0 | 0.00 | 0.00 | 0.00 | 76 | 1017.1 |
| 20260509011832 | 57 | 280 | 0.0 | 2.0 | 0.00 | 0.00 | 0.00 | 87 | 1017.0 |
| 20260509011828 | 47 | 270 | 1.0 | 2.0 | 0.00 | 0.00 | 0.00 | 92 | 1013.7 |
| 20260509011821 | 59 | 89 | 0.0 | 0.0 | 0.00 | 0.00 | 0.00 | 61 | 1015.1 |
| 20260509011357 | 54 | 279 | 3.0 | 4.0 | 0.00 | 0.00 | 0.00 | 78 | 1013.4 |
| 20260509011355 | 59 | 1 | 2.0 | 8.0 | 0.00 | 0.20 | 0.00 | 89 | 1011.8 |
| 20260509011338 | 57 | 66 | 0.0 | 0.0 | 0.00 | 0.00 | 0.00 | 76 | 1017.1 |
| 20260509011334 | 47 | 271 | 2.0 | 2.0 | 0.00 | 0.00 | 0.00 | 92 | 1013.8 |
| 20260509011332 | 57 | 280 | 0.0 | 1.0 | 0.00 | 0.00 | 0.00 | 87 | 1016.9 |
| 20260509011330 | 58 | 83 | 0.0 | 0.0 | 0.00 | 0.00 | 0.00 | 82 | 1039.6 |
| 20260509011324 | 59 | 145 | 0.0 | 0.0 | 0.00 | 0.00 | 0.00 | 65 | 1015.0 |
| 20260509010906 | 54 | 276 | 3.0 | 4.0 | 0.00 | 0.00 | 0.00 | 78 | 1013.3 |
| 20260509010846 | 59 | 338 | 5.0 | 10.0 | 0.00 | 0.20 | 0.00 | 89 | 1011.7 |
| 20260509010838 | 57 | 66 | 0.0 | 0.0 | 0.00 | 0.00 | 0.00 | 76 | 1017.0 |
| 20260509010835 | 57 | 280 | 0.0 | 1.0 | 0.00 | 0.00 | 0.00 | 87 | 1016.9 |
| 20260509010832 | 47 | 271 | 2.0 | 3.0 | 0.00 | 0.00 | 0.00 | 92 | 1013.8 |
| 20260509010827 | 58 | 83 | 0.0 | 0.0 | 0.00 | 0.00 | 0.00 | 82 | 1039.6 |
| 20260509010821 | 58 | 146 | 0.0 | 0.0 | 0.00 | 0.00 | 0.00 | 65 | 1015.1 |
| 20260509010357 | 54 | 275 | 3.0 | 4.0 | 0.00 | 0.00 | 0.00 | 78 | 1013.3 |
| 20260509010349 | 58 | 106 | 0.0 | 0.0 | 0.00 | 0.00 | 0.00 | 88 | 1014.4 |
| 20260509010346 | 59 | 20 | 4.0 | 8.0 | 0.00 | 0.20 | 0.00 | 89 | 1011.7 |
| 20260509010341 | 57 | 66 | 0.0 | 0.0 | 0.00 | 0.00 | 0.00 | 76 | 1017.1 |
| 20260509010328 | 47 | 268 | 1.0 | 3.0 | 0.00 | 0.00 | 0.00 | 92 | 1013.8 |
| 20260509010321 | 59 | 146 | 0.0 | 0.0 | 0.00 | 0.00 | 0.00 | 67 | 1015.1 |
| 20260509005900 | 54 | 294 | 3.0 | 4.0 | 0.00 | 0.00 | 0.00 | 78 | 1013.2 |
| 20260509005846 | 59 | 355 | 7.0 | 9.0 | 0.00 | 0.20 | 0.00 | 89 | 1011.8 |
| 20260509005841 | 57 | 281 | 0.0 | 3.0 | 0.00 | 0.00 | 0.00 | 87 | 1016.9 |
| 20260509005838 | 57 | 62 | 0.0 | 9.0 | 0.00 | 0.00 | 0.00 | 76 | 1017.2 |
| 20260509005831 | 48 | 265 | 1.0 | 2.0 | 0.00 | 0.00 | 0.00 | 92 | 1013.7 |
| 20260509005827 | 58 | 83 | 0.0 | 0.0 | 0.00 | 0.00 | 0.00 | 82 | 1039.6 |
| 20260509005821 | 58 | 145 | 0.0 | 0.0 | 0.00 | 0.00 | 0.00 | 67 | 1015.1 |
| 20260509005357 | 54 | 269 | 4.0 | 4.0 | 0.00 | 0.00 | 0.00 | 78 | 1013.3 |
| 20260509005352 | 59 | 351 | 2.0 | 11.0 | 0.00 | 0.20 | 0.00 | 89 | 1011.8 |
| 20260509005341 | 57 | 63 | 0.0 | 0.0 | 0.00 | 0.00 | 0.00 | 76 | 1017.2 |
| 20260509005337 | 48 | 234 | 1.0 | 2.0 | 0.00 | 0.00 | 0.00 | 92 | 1013.8 |
| 20260509005335 | 57 | 281 | 1.0 | 3.0 | 0.00 | 0.00 | 0.00 | 86 | 1016.9 |
| 20260509005330 | 58 | 83 | 0.0 | 0.0 | 0.00 | 0.00 | 0.00 | 82 | 1039.5 |
| 20260509005324 | 58 | 145 | 0.0 | 0.0 | 0.00 | 0.00 | 0.00 | 69 | 1015.2 |
| 20260509004900 | 54 | 269 | 3.0 | 4.0 | 0.00 | 0.00 | 0.00 | 78 | 1013.2 |
| 20260509004846 | 59 | 334 | 4.0 | 7.0 | 0.00 | 0.20 | 0.00 | 89 | 1011.8 |
| 20260509004844 | 58 | 106 | 0.0 | 0.0 | 0.00 | 0.00 | 0.00 | 87 | 1014.5 |
| 20260509004838 | 57 | 48 | 0.0 | 0.0 | 0.00 | 0.00 | 0.00 | 76 | 1017.3 |
| 20260509004832 | 57 | 281 | 1.0 | 3.0 | 0.00 | 0.00 | 0.00 | 86 | 1016.9 |
| 20260509004828 | 48 | 234 | 1.0 | 2.0 | 0.00 | 0.00 | 0.00 | 92 | 1013.8 |
| 20260509004824 | 58 | 145 | 0.0 | 0.0 | 0.00 | 0.00 | 0.00 | 68 | 1015.3 |
| 20260509004403 | 54 | 259 | 4.0 | 4.0 | 0.00 | 0.00 | 0.00 | 78 | 1013.2 |
| 20260509004346 | 59 | 0 | 7.0 | 7.0 | 0.00 | 0.20 | 0.00 | 89 | 1011.8 |
| 20260509004344 | 57 | 101 | 0.0 | 0.0 | 0.00 | 0.00 | 0.00 | 75 | 1017.3 |
| 20260509004332 | 57 | 281 | 1.0 | 3.0 | 0.00 | 0.00 | 0.00 | 86 | 1016.9 |
| 20260509004327 | 58 | 83 | 0.0 | 0.0 | 0.00 | 0.00 | 0.00 | 82 | 1039.6 |
| 20260509004321 | 58 | 193 | 0.0 | 0.0 | 0.00 | 0.00 | 0.00 | 67 | 1015.3 |
| 20260509003857 | 54 | 273 | 2.0 | 4.0 | 0.00 | 0.00 | 0.00 | 77 | 1013.2 |
| 20260509003855 | 59 | 354 | 1.0 | 8.0 | 0.00 | 0.20 | 0.00 | 89 | 1011.7 |
| 20260509003841 | 57 | 101 | 0.0 | 0.0 | 0.00 | 0.00 | 0.00 | 75 | 1017.2 |
| 20260509003835 | 57 | 282 | 2.0 | 3.0 | 0.00 | 0.00 | 0.00 | 86 | 1016.9 |
| 20260509003831 | 48 | 242 | 2.0 | 3.0 | 0.00 | 0.00 | 0.00 | 92 | 1013.8 |
| 20260509003821 | 58 | 212 | 0.0 | 0.0 | 0.00 | 0.00 | 0.00 | 66 | 1015.3 |
| 20260509003400 | 54 | 286 | 2.0 | 4.0 | 0.00 | 0.00 | 0.00 | 77 | 1013.2 |
| 20260509003349 | 59 | 359 | 4.0 | 8.0 | 0.00 | 0.20 | 0.00 | 89 | 1011.8 |
| 20260509003346 | 58 | 106 | 0.0 | 0.0 | 0.00 | 0.00 | 0.00 | 87 | 1014.3 |
| 20260509003341 | 57 | 84 | 0.0 | 0.0 | 0.00 | 0.00 | 0.00 | 75 | 1017.2 |
| 20260509003335 | 58 | 283 | 1.0 | 4.0 | 0.00 | 0.00 | 0.00 | 86 | 1016.9 |
| 20260509003330 | 58 | 83 | 0.0 | 0.0 | 0.00 | 0.00 | 0.00 | 82 | 1039.7 |
| 20260509003321 | 58 | 266 | 0.0 | 0.0 | 0.00 | 0.00 | 0.00 | 67 | 1015.3 |
| 20260509002858 | 54 | 285 | 3.0 | 4.0 | 0.00 | 0.00 | 0.00 | 77 | 1013.2 |
| 20260509002846 | 59 | 354 | 3.0 | 9.0 | 0.00 | 0.20 | 0.00 | 89 | 1011.7 |
| 20260509002841 | 58 | 79 | 0.0 | 0.0 | 0.00 | 0.00 | 0.00 | 75 | 1017.2 |
| 20260509002834 | 48 | 256 | 0.0 | 2.0 | 0.00 | 0.00 | 0.00 | 92 | 1013.7 |
| 20260509002832 | 58 | 270 | 4.0 | 6.0 | 0.00 | 0.00 | 0.00 | 86 | 1016.9 |
| 20260509002827 | 58 | 83 | 0.0 | 0.0 | 0.00 | 0.00 | 0.00 | 82 | 1039.7 |
| 20260509002821 | 59 | 271 | 0.0 | 0.0 | 0.00 | 0.00 | 0.00 | 66 | 1015.4 |
| 20260509002357 | 54 | 274 | 3.0 | 6.0 | 0.00 | 0.00 | 0.00 | 78 | 1013.2 |
| 20260509002355 | 59 | 344 | 2.0 | 8.0 | 0.00 | 0.20 | 0.00 | 89 | 1011.7 |
| 20260509002338 | 58 | 82 | 0.0 | 0.0 | 0.00 | 0.00 | 0.00 | 75 | 1017.2 |
| 20260509002332 | 58 | 276 | 3.0 | 4.0 | 0.00 | 0.00 | 0.00 | 86 | 1016.9 |
| 20260509002330 | 58 | 83 | 0.0 | 0.0 | 0.00 | 0.00 | 0.00 | 82 | 1039.7 |
| 20260509002328 | 48 | 256 | 2.0 | 2.0 | 0.00 | 0.00 | 0.00 | 91 | 1013.7 |
| 20260509002324 | 59 | 143 | 0.0 | 2.0 | 0.00 | 0.00 | 0.00 | 65 | 1015.3 |
| 20260509001857 | 54 | 265 | 3.0 | 4.0 | 0.00 | 0.00 | 0.00 | 78 | 1013.3 |
| 20260509001849 | 59 | 351 | 4.0 | 9.0 | 0.00 | 0.20 | 0.00 | 89 | 1011.7 |
| 20260509001844 | 58 | 106 | 0.0 | 0.0 | 0.00 | 0.00 | 0.00 | 87 | 1014.3 |
| 20260509001838 | 58 | 81 | 0.0 | 0.0 | 0.00 | 0.00 | 0.00 | 74 | 1017.2 |
| 20260509001833 | 58 | 83 | 0.0 | 0.0 | 0.00 | 0.00 | 0.00 | 82 | 1039.7 |
| 20260509001828 | 48 | 256 | 1.0 | 2.0 | 0.00 | 0.00 | 0.00 | 92 | 1013.7 |
| 20260509001821 | 59 | 123 | 0.0 | 0.0 | 0.00 | 0.00 | 0.00 | 64 | 1015.4 |
| 20260509001357 | 54 | 265 | 2.0 | 4.0 | 0.00 | 0.00 | 0.00 | 77 | 1013.2 |
| 20260509001349 | 59 | 359 | 3.0 | 6.0 | 0.00 | 0.20 | 0.00 | 89 | 1011.7 |
| 20260509001338 | 58 | 50 | 0.0 | 0.0 | 0.00 | 0.00 | 0.00 | 74 | 1017.2 |
| 20260509001333 | 58 | 83 | 0.0 | 0.0 | 0.00 | 0.00 | 0.00 | 82 | 1039.7 |
| 20260509001328 | 49 | 256 | 1.0 | 2.0 | 0.00 | 0.00 | 0.00 | 91 | 1013.6 |
| 20260509001324 | 59 | 127 | 0.0 | 2.0 | 0.00 | 0.00 | 0.00 | 65 | 1015.4 |
| 20260509000906 | 54 | 264 | 3.0 | 4.0 | 0.00 | 0.00 | 0.00 | 77 | 1013.3 |
| 20260509000849 | 59 | 1 | 3.0 | 8.0 | 0.00 | 0.20 | 0.00 | 89 | 1011.7 |
| 20260509000838 | 58 | 69 | 0.0 | 0.0 | 0.00 | 0.00 | 0.00 | 74 | 1017.2 |
| 20260509000829 | 49 | 256 | 0.0 | 2.0 | 0.00 | 0.00 | 0.00 | 91 | 1013.6 |
| 20260509000827 | 58 | 83 | 0.0 | 0.0 | 0.00 | 0.00 | 0.00 | 82 | 1039.7 |
| 20260509000824 | 58 | 103 | 0.0 | 0.0 | 0.00 | 0.00 | 0.00 | 67 | 1015.3 |
| 20260509000403 | 55 | 261 | 3.0 | 4.0 | 0.00 | 0.00 | 0.00 | 77 | 1013.3 |
| 20260509000348 | 59 | 339 | 4.0 | 10.0 | 0.00 | 0.20 | 0.00 | 89 | 1011.7 |
| 20260509000344 | 58 | 106 | 0.0 | 0.0 | 0.00 | 0.00 | 0.00 | 87 | 1014.3 |
| 20260509000340 | 58 | 59 | 0.0 | 0.0 | 0.00 | 0.00 | 0.00 | 74 | 1017.2 |
| 20260509000333 | 58 | 83 | 0.0 | 0.0 | 0.00 | 0.00 | 0.00 | 82 | 1039.7 |
| 20260509000328 | 49 | 265 | 1.0 | 2.0 | 0.00 | 0.00 | 0.00 | 91 | 1013.6 |
| 20260509000325 | 58 | 58 | 0.0 | 0.0 | 0.00 | 0.00 | 0.00 | 69 | 1015.3 |
| 20260509000313 | 59 | 257 | 4.0 | 5.0 | 0.00 | 0.00 | 0.00 | 85 | 1015.4 |
| 20260508235906 | 54 | 269 | 2.0 | 4.0 | 0.00 | 0.00 | 0.00 | 77 | 1013.3 |
| 20260508235846 | 59 | 0 | 9.0 | 9.0 | 0.00 | 0.20 | 0.00 | 89 | 1011.6 |
| 20260508235838 | 58 | 69 | 0.0 | 0.0 | 0.00 | 0.00 | 0.00 | 74 | 1017.1 |
| 20260508235832 | 58 | 163 | 2.0 | 2.0 | 0.00 | 0.00 | 0.00 | 87 | 1016.8 |
| 20260508235830 | 58 | 58 | 0.0 | 3.0 | 0.00 | 0.00 | 0.00 | 70 | 1015.3 |
| 20260508235828 | 49 | 265 | 1.0 | 2.0 | 0.00 | 0.00 | 0.00 | 91 | 1013.6 |
| 20260508235812 | 59 | 253 | 3.0 | 6.0 | 0.00 | 0.00 | 0.00 | 85 | 1015.4 |
| 20260508235357 | 54 | 288 | 2.0 | 3.0 | 0.00 | 0.00 | 0.00 | 77 | 1013.3 |
| 20260508235349 | 59 | 358 | 5.0 | 7.0 | 0.00 | 0.20 | 0.00 | 89 | 1011.6 |
| 20260508235338 | 58 | 69 | 0.0 | 0.0 | 0.00 | 0.00 | 0.00 | 74 | 1017.1 |
| 20260508235333 | 58 | 83 | 0.0 | 0.0 | 0.00 | 0.00 | 0.00 | 82 | 1039.7 |
| 20260508235328 | 49 | 265 | 0.0 | 1.0 | 0.00 | 0.00 | 0.00 | 91 | 1013.6 |
| 20260508235324 | 58 | 44 | 0.0 | 4.0 | 0.00 | 0.00 | 0.00 | 70 | 1015.4 |
| 20260508235312 | 59 | 250 | 3.0 | 5.0 | 0.00 | 0.00 | 0.00 | 85 | 1015.5 |
| 20260508234904 | 55 | 283 | 2.0 | 4.0 | 0.00 | 0.00 | 0.00 | 76 | 1013.3 |
| 20260508234850 | 58 | 106 | 0.0 | 0.0 | 0.00 | 0.00 | 0.00 | 87 | 1014.1 |
| 20260508234847 | 59 | 354 | 4.0 | 11.0 | 0.00 | 0.20 | 0.00 | 89 | 1011.6 |
| 20260508234841 | 59 | 163 | 0.0 | 1.0 | 0.00 | 0.00 | 0.00 | 86 | 1016.7 |
| 20260508234838 | 58 | 69 | 0.0 | 0.0 | 0.00 | 0.00 | 0.00 | 73 | 1017.2 |
| 20260508234827 | 58 | 83 | 0.0 | 0.0 | 0.00 | 0.00 | 0.00 | 82 | 1039.7 |
| 20260508234822 | 58 | 58 | 1.0 | 3.0 | 0.00 | 0.00 | 0.00 | 72 | 1015.3 |
| 20260508234812 | 59 | 250 | 2.0 | 4.0 | 0.00 | 0.00 | 0.00 | 85 | 1015.4 |
| 20260508234357 | 54 | 265 | 2.0 | 3.0 | 0.00 | 0.00 | 0.00 | 76 | 1013.3 |
| 20260508234346 | 60 | 359 | 4.0 | 9.0 | 0.00 | 0.20 | 0.00 | 89 | 1011.6 |
| 20260508234341 | 58 | 69 | 0.0 | 0.0 | 0.00 | 0.00 | 0.00 | 73 | 1017.2 |
| 20260508234334 | 49 | 265 | 1.0 | 2.0 | 0.00 | 0.00 | 0.00 | 91 | 1013.7 |
| 20260508234332 | 59 | 163 | 0.0 | 4.0 | 0.00 | 0.00 | 0.00 | 86 | 1016.7 |
| 20260508234321 | 58 | 61 | 0.0 | 0.0 | 0.00 | 0.00 | 0.00 | 73 | 1015.3 |
| 20260508234313 | 59 | 251 | 3.0 | 6.0 | 0.00 | 0.00 | 0.00 | 85 | 1015.4 |
| 20260508233857 | 54 | 272 | 2.0 | 4.0 | 0.00 | 0.00 | 0.00 | 75 | 1013.4 |
| 20260508233849 | 60 | 356 | 3.0 | 10.0 | 0.00 | 0.20 | 0.00 | 89 | 1011.5 |
| 20260508233838 | 59 | 69 | 0.0 | 0.0 | 0.00 | 0.00 | 0.00 | 73 | 1017.1 |
| 20260508233835 | 59 | 163 | 2.0 | 2.0 | 0.00 | 0.00 | 0.00 | 86 | 1016.7 |
| 20260508233832 | 49 | 265 | 0.0 | 2.0 | 0.00 | 0.00 | 0.00 | 91 | 1013.7 |
| 20260508233827 | 58 | 83 | 0.0 | 0.0 | 0.00 | 0.00 | 0.00 | 82 | 1039.8 |
| 20260508233822 | 58 | 93 | 0.0 | 0.0 | 0.00 | 0.00 | 0.00 | 74 | 1015.4 |
| 20260508233812 | 59 | 263 | 3.0 | 4.0 | 0.00 | 0.00 | 0.00 | 84 | 1015.5 |
| 20260508233400 | 54 | 273 | 3.0 | 4.0 | 0.00 | 0.00 | 0.00 | 75 | 1013.4 |
| 20260508233353 | 60 | 347 | 4.0 | 8.0 | 0.00 | 0.20 | 0.00 | 90 | 1011.4 |
| 20260508233347 | 58 | 106 | 0.0 | 0.0 | 0.00 | 0.00 | 0.00 | 86 | 1014.1 |
| 20260508233338 | 59 | 69 | 0.0 | 0.0 | 0.00 | 0.00 | 0.00 | 73 | 1017.0 |
| 20260508233332 | 59 | 162 | 1.0 | 2.0 | 0.00 | 0.00 | 0.00 | 85 | 1016.7 |
| 20260508233328 | 49 | 266 | 1.0 | 2.0 | 0.00 | 0.00 | 0.00 | 91 | 1013.7 |
| 20260508233324 | 58 | 165 | 0.0 | 0.0 | 0.00 | 0.00 | 0.00 | 72 | 1015.5 |
| 20260508233312 | 59 | 263 | 3.0 | 6.0 | 0.00 | 0.00 | 0.00 | 84 | 1015.5 |
| 20260508232903 | 54 | 271 | 2.0 | 3.0 | 0.00 | 0.00 | 0.00 | 75 | 1013.4 |
| 20260508232849 | 61 | 340 | 4.0 | 5.0 | 0.00 | 0.20 | 0.00 | 90 | 1011.6 |
| 20260508232838 | 59 | 65 | 0.0 | 0.0 | 0.00 | 0.00 | 0.00 | 73 | 1017.2 |
| 20260508232835 | 59 | 162 | 1.0 | 2.0 | 0.00 | 0.00 | 0.00 | 85 | 1016.7 |
| 20260508232828 | 49 | 266 | 0.0 | 2.0 | 0.00 | 0.00 | 0.00 | 91 | 1013.8 |
| 20260508232822 | 58 | 165 | 0.0 | 0.0 | 0.00 | 0.00 | 0.00 | 74 | 1015.6 |
| 20260508232815 | 60 | 263 | 2.0 | 6.0 | 0.00 | 0.00 | 0.00 | 83 | 1015.5 |
| 20260508232400 | 55 | 274 | 1.0 | 3.0 | 0.00 | 0.00 | 0.00 | 75 | 1013.4 |
| 20260508232349 | 61 | 1 | 1.0 | 5.0 | 0.00 | 0.20 | 0.00 | 90 | 1011.6 |
| 20260508232338 | 59 | 67 | 0.0 | 0.0 | 0.00 | 0.00 | 0.00 | 72 | 1017.1 |
| 20260508232336 | 58 | 83 | 0.0 | 0.0 | 0.00 | 0.00 | 0.00 | 82 | 1039.9 |
| 20260508232332 | 59 | 162 | 0.0 | 1.0 | 0.00 | 0.00 | 0.00 | 85 | 1016.7 |
| 20260508232328 | 57 | 165 | 0.0 | 0.0 | 0.00 | 0.00 | 0.00 | 76 | 1015.6 |
| 20260508232312 | 60 | 273 | 4.0 | 6.0 | 0.00 | 0.00 | 0.00 | 82 | 1015.5 |
| 20260508231858 | 55 | 231 | 2.0 | 4.0 | 0.00 | 0.00 | 0.00 | 75 | 1013.4 |
| 20260508231849 | 61 | 356 | 3.0 | 5.0 | 0.00 | 0.20 | 0.00 | 90 | 1011.7 |
| 20260508231845 | 58 | 106 | 0.0 | 0.0 | 0.00 | 0.00 | 0.00 | 85 | 1014.1 |
| 20260508231838 | 59 | 62 | 0.0 | 0.0 | 0.00 | 0.00 | 0.00 | 72 | 1017.0 |
| 20260508231835 | 59 | 162 | 0.0 | 0.0 | 0.00 | 0.00 | 0.00 | 85 | 1016.6 |
| 20260508231827 | 58 | 83 | 0.0 | 0.0 | 0.00 | 0.00 | 0.00 | 82 | 1040.0 |
| 20260508231825 | 57 | 165 | 0.0 | 0.0 | 0.00 | 0.00 | 0.00 | 79 | 1015.6 |
| 20260508231816 | 61 | 281 | 4.0 | 4.0 | 0.00 | 0.00 | 0.00 | 81 | 1015.4 |
| 20260508231357 | 55 | 279 | 2.0 | 6.0 | 0.00 | 0.00 | 0.00 | 75 | 1013.4 |
| 20260508231346 | 61 | 323 | 4.0 | 5.0 | 0.00 | 0.20 | 0.00 | 90 | 1011.7 |
| 20260508231341 | 59 | 57 | 0.0 | 4.0 | 0.00 | 0.00 | 0.00 | 72 | 1017.0 |
| 20260508231332 | 60 | 162 | 0.0 | 0.0 | 0.00 | 0.00 | 0.00 | 86 | 1016.6 |
| 20260508231327 | 58 | 83 | 0.0 | 0.0 | 0.00 | 0.00 | 0.00 | 82 | 1040.0 |
| 20260508231322 | 57 | 165 | 0.0 | 0.0 | 0.00 | 0.00 | 0.00 | 81 | 1015.5 |
| 20260508231312 | 61 | 279 | 3.0 | 4.0 | 0.00 | 0.00 | 0.00 | 79 | 1015.5 |
| 20260508230904 | 55 | 265 | 1.0 | 6.0 | 0.00 | 0.00 | 0.00 | 75 | 1013.5 |
| 20260508230846 | 61 | 0 | 1.0 | 6.0 | 0.00 | 0.20 | 0.00 | 90 | 1011.8 |
| 20260508230838 | 59 | 55 | 0.0 | 3.0 | 0.00 | 0.00 | 0.00 | 71 | 1017.0 |
| 20260508230835 | 60 | 162 | 0.0 | 0.0 | 0.00 | 0.00 | 0.00 | 85 | 1016.6 |
| 20260508230828 | 57 | 165 | 0.0 | 0.0 | 0.00 | 0.00 | 0.00 | 83 | 1015.6 |
| 20260508230819 | 61 | 306 | 2.0 | 4.0 | 0.00 | 0.00 | 0.00 | 79 | 1015.4 |
| 20260508230400 | 55 | 268 | 2.0 | 6.0 | 0.00 | 0.00 | 0.00 | 75 | 1013.5 |
| 20260508230349 | 61 | 336 | 0.0 | 3.0 | 0.00 | 0.20 | 0.00 | 90 | 1011.7 |
| 20260508230345 | 59 | 106 | 0.0 | 0.0 | 0.00 | 0.00 | 0.00 | 85 | 1014.1 |
| 20260508230341 | 59 | 55 | 3.0 | 3.0 | 0.00 | 0.00 | 0.00 | 71 | 1016.9 |
| 20260508230335 | 60 | 162 | 0.0 | 0.0 | 0.00 | 0.00 | 0.00 | 85 | 1016.6 |
| 20260508230330 | 58 | 83 | 0.0 | 0.0 | 0.00 | 0.00 | 0.00 | 82 | 1040.1 |
| 20260508230322 | 57 | 165 | 0.0 | 0.0 | 0.00 | 0.00 | 0.00 | 83 | 1015.6 |
| 20260508230315 | 61 | 315 | 2.0 | 3.0 | 0.00 | 0.00 | 0.00 | 79 | 1015.4 |
| 20260508225903 | 55 | 293 | 3.0 | 4.0 | 0.00 | 0.00 | 0.00 | 75 | 1013.6 |
| 20260508225846 | 61 | 335 | 1.0 | 4.0 | 0.00 | 0.20 | 0.00 | 90 | 1011.8 |
| 20260508225844 | 59 | 28 | 0.0 | 0.0 | 0.00 | 0.00 | 0.00 | 71 | 1017.1 |
| 20260508225838 | 60 | 162 | 0.0 | 0.0 | 0.00 | 0.00 | 0.00 | 85 | 1016.6 |
| 20260508225835 | 50 | 260 | 2.0 | 2.0 | 0.00 | 0.00 | 0.00 | 91 | 1013.9 |
| 20260508225830 | 58 | 83 | 0.0 | 0.0 | 0.00 | 0.00 | 0.00 | 82 | 1040.2 |
| 20260508225822 | 57 | 165 | 0.0 | 0.0 | 0.00 | 0.00 | 0.00 | 83 | 1015.5 |
| 20260508225816 | 61 | 314 | 2.0 | 3.0 | 0.00 | 0.00 | 0.00 | 81 | 1015.5 |
| 20260508225357 | 55 | 248 | 1.0 | 4.0 | 0.00 | 0.00 | 0.00 | 74 | 1013.6 |
| 20260508225346 | 60 | 320 | 2.0 | 4.0 | 0.00 | 0.20 | 0.00 | 89 | 1011.8 |
| 20260508225338 | 60 | 63 | 0.0 | 0.0 | 0.00 | 0.00 | 0.00 | 71 | 1017.0 |
| 20260508225331 | 50 | 260 | 1.0 | 3.0 | 0.00 | 0.00 | 0.00 | 90 | 1013.9 |
| 20260508225328 | 57 | 165 | 0.0 | 0.0 | 0.00 | 0.00 | 0.00 | 82 | 1015.5 |
| 20260508225312 | 61 | 315 | 2.0 | 3.0 | 0.00 | 0.00 | 0.00 | 81 | 1015.5 |
| 20260508224858 | 55 | 272 | 2.0 | 4.0 | 0.00 | 0.00 | 0.00 | 74 | 1013.5 |
| 20260508224852 | 60 | 312 | 2.0 | 4.0 | 0.00 | 0.20 | 0.00 | 89 | 1011.7 |
| 20260508224844 | 60 | 63 | 0.0 | 2.0 | 0.00 | 0.00 | 0.00 | 71 | 1016.9 |
| 20260508224832 | 60 | 162 | 0.0 | 0.0 | 0.00 | 0.00 | 0.00 | 84 | 1016.6 |
| 20260508224830 | 58 | 83 | 0.0 | 0.0 | 0.00 | 0.00 | 0.00 | 82 | 1040.4 |
| 20260508224828 | 50 | 259 | 3.0 | 4.0 | 0.00 | 0.00 | 0.00 | 91 | 1013.9 |
| 20260508224825 | 57 | 165 | 0.0 | 0.0 | 0.00 | 0.00 | 0.00 | 82 | 1015.4 |
| 20260508224815 | 61 | 314 | 3.0 | 4.0 | 0.00 | 0.00 | 0.00 | 81 | 1015.5 |
| 20260508224357 | 55 | 291 | 3.0 | 4.0 | 0.00 | 0.00 | 0.00 | 74 | 1013.5 |
| 20260508224346 | 60 | 307 | 3.0 | 4.0 | 0.00 | 0.20 | 0.00 | 89 | 1011.7 |
| 20260508224344 | 60 | 63 | 0.0 | 0.0 | 0.00 | 0.00 | 0.00 | 72 | 1017.0 |
| 20260508224332 | 50 | 242 | 0.0 | 3.0 | 0.00 | 0.00 | 0.00 | 90 | 1013.8 |
| 20260508224327 | 58 | 83 | 0.0 | 0.0 | 0.00 | 0.00 | 0.00 | 82 | 1040.6 |
| 20260508224322 | 57 | 165 | 0.0 | 0.0 | 0.00 | 0.00 | 0.00 | 83 | 1015.5 |
| 20260508224313 | 61 | 315 | 3.0 | 5.0 | 0.00 | 0.00 | 0.00 | 81 | 1015.5 |
| 20260508223857 | 55 | 278 | 4.0 | 4.0 | 0.00 | 0.00 | 0.00 | 73 | 1013.6 |
| 20260508223848 | 60 | 306 | 2.0 | 4.0 | 0.00 | 0.20 | 0.00 | 89 | 1011.7 |
| 20260508223838 | 60 | 63 | 0.0 | 0.0 | 0.00 | 0.00 | 0.00 | 71 | 1017.0 |
| 20260508223832 | 50 | 242 | 2.0 | 2.0 | 0.00 | 0.00 | 0.00 | 90 | 1013.8 |
| 20260508223830 | 58 | 83 | 0.0 | 0.0 | 0.00 | 0.00 | 0.00 | 82 | 1040.7 |
| 20260508223828 | 57 | 165 | 0.0 | 0.0 | 0.00 | 0.00 | 0.00 | 84 | 1015.5 |
| 20260508223813 | 61 | 317 | 5.0 | 5.0 | 0.00 | 0.00 | 0.00 | 81 | 1015.5 |
| 20260508223357 | 55 | 274 | 2.0 | 4.0 | 0.00 | 0.00 | 0.00 | 73 | 1013.5 |
| 20260508223349 | 60 | 305 | 3.0 | 4.0 | 0.00 | 0.20 | 0.00 | 89 | 1011.7 |
| 20260508223345 | 60 | 106 | 0.0 | 0.0 | 0.00 | 0.00 | 0.00 | 84 | 1014.3 |
| 20260508223338 | 60 | 63 | 0.0 | 0.0 | 0.00 | 0.00 | 0.00 | 71 | 1017.0 |
| 20260508223332 | 60 | 162 | 0.0 | 0.0 | 0.00 | 0.00 | 0.00 | 84 | 1016.5 |
| 20260508223329 | 50 | 242 | 0.0 | 1.0 | 0.00 | 0.00 | 0.00 | 90 | 1013.8 |
| 20260508223327 | 58 | 83 | 0.0 | 0.0 | 0.00 | 0.00 | 0.00 | 82 | 1040.9 |
| 20260508223322 | 57 | 165 | 0.0 | 0.0 | 0.00 | 0.00 | 0.00 | 87 | 1015.5 |
| 20260508223319 | 61 | 309 | 4.0 | 5.0 | 0.00 | 0.00 | 0.00 | 81 | 1015.5 |
| 20260508222900 | 55 | 273 | 3.0 | 3.0 | 0.00 | 0.00 | 0.00 | 73 | 1013.7 |
| 20260508222846 | 60 | 305 | 2.0 | 5.0 | 0.00 | 0.20 | 0.00 | 89 | 1011.7 |
| 20260508222838 | 60 | 103 | 0.0 | 0.0 | 0.00 | 0.00 | 0.00 | 70 | 1017.0 |
| 20260508222833 | 58 | 83 | 0.0 | 0.0 | 0.00 | 0.00 | 0.00 | 82 | 1041.2 |
| 20260508222829 | 51 | 242 | 0.0 | 2.0 | 0.00 | 0.00 | 0.00 | 90 | 1013.8 |
| 20260508222822 | 57 | 165 | 0.0 | 0.0 | 0.00 | 0.00 | 0.00 | 88 | 1015.5 |
| 20260508222812 | 60 | 313 | 3.0 | 6.0 | 0.00 | 0.00 | 0.00 | 82 | 1015.5 |
| 20260508222401 | 55 | 256 | 2.0 | 3.0 | 0.00 | 0.00 | 0.00 | 74 | 1013.7 |
| 20260508222350 | 60 | 310 | 3.0 | 5.0 | 0.00 | 0.20 | 0.00 | 89 | 1011.7 |
| 20260508222341 | 60 | 103 | 0.0 | 0.0 | 0.00 | 0.00 | 0.00 | 70 | 1017.0 |
| 20260508222338 | 61 | 162 | 0.0 | 0.0 | 0.00 | 0.00 | 0.00 | 83 | 1016.7 |
| 20260508222329 | 51 | 242 | 1.0 | 2.0 | 0.00 | 0.00 | 0.00 | 90 | 1013.8 |
| 20260508222327 | 58 | 83 | 0.0 | 0.0 | 0.00 | 0.00 | 0.00 | 82 | 1041.6 |
| 20260508222322 | 57 | 165 | 0.0 | 0.0 | 0.00 | 0.00 | 0.00 | 87 | 1015.5 |
| 20260508222313 | 60 | 310 | 5.0 | 6.0 | 0.00 | 0.00 | 0.00 | 83 | 1015.6 |
| 20260508221900 | 55 | 285 | 2.0 | 3.0 | 0.00 | 0.00 | 0.00 | 74 | 1013.6 |
| 20260508221851 | 60 | 307 | 1.0 | 5.0 | 0.00 | 0.20 | 0.00 | 89 | 1011.6 |
| 20260508221845 | 61 | 106 | 0.0 | 0.0 | 0.00 | 0.00 | 0.00 | 83 | 1014.2 |
| 20260508221835 | 61 | 162 | 0.0 | 0.0 | 0.00 | 0.00 | 0.00 | 83 | 1016.7 |
| 20260508221830 | 58 | 83 | 0.0 | 0.0 | 0.00 | 0.00 | 0.00 | 82 | 1042.2 |
| 20260508221822 | 57 | 137 | 0.0 | 0.0 | 0.00 | 0.00 | 0.00 | 89 | 1015.5 |
| 20260508221812 | 60 | 298 | 4.0 | 7.0 | 0.00 | 0.00 | 0.00 | 84 | 1015.6 |
| 20260508221357 | 55 | 235 | 2.0 | 3.0 | 0.00 | 0.00 | 0.00 | 73 | 1013.6 |
| 20260508221347 | 60 | 316 | 2.0 | 5.0 | 0.00 | 0.20 | 0.00 | 89 | 1011.6 |
| 20260508221341 | 61 | 94 | 0.0 | 0.0 | 0.00 | 0.00 | 0.00 | 70 | 1017.0 |
| 20260508221335 | 61 | 162 | 0.0 | 0.0 | 0.00 | 0.00 | 0.00 | 83 | 1016.6 |
| 20260508221332 | 51 | 242 | 1.0 | 2.0 | 0.00 | 0.00 | 0.00 | 90 | 1013.7 |
| 20260508221327 | 58 | 83 | 0.0 | 0.0 | 0.00 | 0.00 | 0.00 | 82 | 1043.0 |
| 20260508221322 | 57 | 137 | 0.0 | 0.0 | 0.00 | 0.00 | 0.00 | 88 | 1015.6 |
| 20260508221312 | 60 | 309 | 3.0 | 9.0 | 0.00 | 0.00 | 0.00 | 84 | 1015.6 |
| 20260508220857 | 55 | 227 | 1.0 | 4.0 | 0.00 | 0.00 | 0.00 | 73 | 1013.7 |
| 20260508220848 | 61 | 288 | 2.0 | 5.0 | 0.00 | 0.20 | 0.00 | 89 | 1011.6 |
| 20260508220841 | 61 | 94 | 0.0 | 0.0 | 0.00 | 0.00 | 0.00 | 69 | 1016.9 |
| 20260508220835 | 61 | 162 | 0.0 | 0.0 | 0.00 | 0.00 | 0.00 | 82 | 1016.6 |
| 20260508220833 | 58 | 83 | 0.0 | 0.0 | 0.00 | 0.00 | 0.00 | 82 | 1044.2 |
| 20260508220829 | 51 | 242 | 0.0 | 3.0 | 0.00 | 0.00 | 0.00 | 90 | 1013.7 |
| 20260508220822 | 57 | 137 | 0.0 | 0.0 | 0.00 | 0.00 | 0.00 | 86 | 1015.6 |
| 20260508220815 | 60 | 319 | 3.0 | 8.0 | 0.00 | 0.00 | 0.00 | 85 | 1015.7 |
| 20260508220357 | 55 | 271 | 3.0 | 4.0 | 0.00 | 0.00 | 0.00 | 73 | 1013.6 |
| 20260508220354 | 60 | 106 | 0.0 | 0.0 | 0.00 | 0.00 | 0.00 | 85 | 1014.2 |
| 20260508220351 | 61 | 297 | 1.0 | 5.0 | 0.00 | 0.20 | 0.00 | 89 | 1011.6 |
| 20260508220341 | 61 | 94 | 0.0 | 0.0 | 0.00 | 0.00 | 0.00 | 69 | 1016.9 |
| 20260508220333 | 58 | 83 | 0.0 | 0.0 | 0.00 | 0.00 | 0.00 | 82 | 1046.7 |
| 20260508220329 | 51 | 242 | 2.0 | 3.0 | 0.00 | 0.00 | 0.00 | 90 | 1013.7 |
| 20260508220325 | 57 | 137 | 0.0 | 0.0 | 0.00 | 0.00 | 0.00 | 90 | 1015.6 |
| 20260508220315 | 60 | 315 | 4.0 | 7.0 | 0.00 | 0.00 | 0.00 | 85 | 1015.7 |
| 20260508215857 | 55 | 265 | 3.0 | 4.0 | 0.00 | 0.00 | 0.00 | 73 | 1013.7 |
| 20260508215848 | 61 | 293 | 2.0 | 4.0 | 0.00 | 0.20 | 0.00 | 89 | 1011.6 |
| 20260508215838 | 62 | 162 | 0.0 | 0.0 | 0.00 | 0.00 | 0.00 | 82 | 1016.6 |
| 20260508215832 | 51 | 242 | 1.0 | 2.0 | 0.00 | 0.00 | 0.00 | 89 | 1013.7 |
| 20260508215827 | 58 | 83 | 0.0 | 0.0 | 0.00 | 0.00 | 0.00 | 82 | 1052.9 |
| 20260508215822 | 56 | 137 | 0.0 | 0.0 | 0.00 | 0.00 | 0.00 | 90 | 1015.6 |
| 20260508215812 | 60 | 284 | 2.0 | 4.0 | 0.00 | 0.00 | 0.00 | 85 | 1015.6 |
| 20260508215401 | 55 | 314 | 3.0 | 5.0 | 0.00 | 0.00 | 0.00 | 72 | 1013.7 |
| 20260508215349 | 61 | 285 | 2.0 | 4.0 | 0.00 | 0.20 | 0.00 | 89 | 1011.7 |
| 20260508215338 | 61 | 113 | 0.0 | 0.0 | 0.00 | 0.00 | 0.00 | 68 | 1017.0 |
| 20260508215333 | 58 | 83 | 0.0 | 0.0 | 0.00 | 0.00 | 0.00 | 82 | 1112.1 |
| 20260508215329 | 52 | 242 | 1.0 | 1.0 | 0.00 | 0.00 | 0.00 | 89 | 1013.8 |
| 20260508215322 | 56 | 146 | 0.0 | 0.0 | 0.00 | 0.00 | 0.00 | 90 | 1015.6 |
| 20260508215313 | 60 | 260 | 3.0 | 4.0 | 0.00 | 0.00 | 0.00 | 84 | 1015.6 |
| 20260508214900 | 55 | 211 | 1.0 | 6.0 | 0.00 | 0.00 | 0.00 | 72 | 1013.7 |
| 20260508214849 | 61 | 285 | 0.0 | 2.0 | 0.00 | 0.20 | 0.00 | 89 | 1011.6 |
| 20260508214844 | 60 | 106 | 0.0 | 0.0 | 0.00 | 0.00 | 0.00 | 85 | 1014.0 |
| 20260508214841 | 61 | 113 | 0.0 | 0.0 | 0.00 | 0.00 | 0.00 | 68 | 1017.0 |
| 20260508214833 | 58 | 83 | 0.0 | 0.0 | 0.00 | 0.00 | 0.00 | 82 | 1016.2 |
| 20260508214830 | 52 | 242 | 1.0 | 1.0 | 0.00 | 0.00 | 0.00 | 89 | 1013.8 |
| 20260508214828 | 56 | 158 | 0.0 | 0.0 | 0.00 | 0.00 | 0.00 | 90 | 1015.5 |
| 20260508214813 | 60 | 260 | 2.0 | 4.0 | 0.00 | 0.00 | 0.00 | 83 | 1015.6 |
| 20260508214400 | 55 | 293 | 0.0 | 4.0 | 0.00 | 0.00 | 0.00 | 71 | 1013.8 |
| 20260508214352 | 61 | 285 | 1.0 | 4.0 | 0.00 | 0.20 | 0.00 | 89 | 1011.6 |
| 20260508214338 | 61 | 65 | 0.0 | 6.0 | 0.00 | 0.00 | 0.00 | 68 | 1016.9 |
| 20260508214332 | 62 | 162 | 0.0 | 0.0 | 0.00 | 0.00 | 0.00 | 81 | 1016.6 |
| 20260508214329 | 52 | 242 | 0.0 | 1.0 | 0.00 | 0.00 | 0.00 | 89 | 1013.7 |
| 20260508214327 | 58 | 83 | 0.0 | 0.0 | 0.00 | 0.00 | 0.00 | 82 | 1016.2 |
| 20260508214325 | 57 | 203 | 0.0 | 0.0 | 0.00 | 0.00 | 0.00 | 90 | 1015.5 |
| 20260508214313 | 61 | 260 | 3.0 | 4.0 | 0.00 | 0.00 | 0.00 | 83 | 1015.6 |
| 20260508213900 | 55 | 292 | 1.0 | 3.0 | 0.00 | 0.00 | 0.00 | 71 | 1013.7 |
| 20260508213845 | 61 | 285 | 2.0 | 4.0 | 0.00 | 0.20 | 0.00 | 89 | 1011.5 |
| 20260508213832 | 62 | 162 | 0.0 | 0.0 | 0.00 | 0.00 | 0.00 | 81 | 1016.6 |
| 20260508213829 | 52 | 242 | 0.0 | 2.0 | 0.00 | 0.00 | 0.00 | 89 | 1013.7 |
| 20260508213827 | 58 | 83 | 0.0 | 1.0 | 0.00 | 0.00 | 0.00 | 82 | 1016.2 |
| 20260508213822 | 56 | 152 | 0.0 | 0.0 | 0.00 | 0.00 | 0.00 | 90 | 1015.5 |
| 20260508213357 | 55 | 292 | 0.0 | 1.0 | 0.00 | 0.00 | 0.00 | 71 | 1013.7 |
| 20260508213350 | 61 | 106 | 0.0 | 0.0 | 0.00 | 0.00 | 0.00 | 85 | 1014.0 |
| 20260508213345 | 61 | 271 | 1.0 | 3.0 | 0.00 | 0.20 | 0.00 | 89 | 1011.5 |
| 20260508213338 | 62 | 35 | 1.0 | 3.0 | 0.00 | 0.00 | 0.00 | 67 | 1016.8 |
| 20260508213333 | 58 | 83 | 0.0 | 0.0 | 0.00 | 0.00 | 0.00 | 82 | 1016.2 |
| 20260508213322 | 56 | 131 | 0.0 | 0.0 | 0.00 | 0.00 | 0.00 | 90 | 1015.4 |
| 20260508213315 | 61 | 260 | 3.0 | 4.0 | 0.00 | 0.00 | 0.00 | 81 | 1015.6 |
| 20260508212857 | 55 | 290 | 1.0 | 3.0 | 0.00 | 0.00 | 0.00 | 71 | 1013.8 |
| 20260508212849 | 61 | 269 | 1.0 | 3.0 | 0.00 | 0.20 | 0.00 | 89 | 1011.6 |
| 20260508212844 | 62 | 62 | 0.0 | 0.0 | 0.00 | 0.00 | 0.00 | 67 | 1016.7 |
| 20260508212832 | 52 | 242 | 0.0 | 2.0 | 0.00 | 0.00 | 0.00 | 89 | 1013.7 |
| 20260508212827 | 58 | 83 | 0.0 | 0.0 | 0.00 | 0.00 | 0.00 | 82 | 1016.1 |
| 20260508212822 | 56 | 183 | 0.0 | 0.0 | 0.00 | 0.00 | 0.00 | 90 | 1015.4 |
| 20260508212815 | 61 | 260 | 3.0 | 4.0 | 0.00 | 0.00 | 0.00 | 79 | 1015.5 |
| 20260508212404 | 55 | 294 | 3.0 | 3.0 | 0.00 | 0.00 | 0.00 | 71 | 1013.8 |
| 20260508212346 | 61 | 269 | 2.0 | 3.0 | 0.00 | 0.20 | 0.00 | 89 | 1011.5 |
| 20260508212341 | 62 | 94 | 0.0 | 0.0 | 0.00 | 0.00 | 0.00 | 67 | 1016.7 |
| 20260508212332 | 63 | 162 | 1.0 | 1.0 | 0.00 | 0.00 | 0.00 | 80 | 1016.5 |
| 20260508212330 | 52 | 242 | 1.0 | 3.0 | 0.00 | 0.00 | 0.00 | 89 | 1013.7 |
| 20260508212327 | 58 | 83 | 0.0 | 0.0 | 0.00 | 0.00 | 0.00 | 82 | 1016.1 |
| 20260508212322 | 56 | 169 | 0.0 | 0.0 | 0.00 | 0.00 | 0.00 | 91 | 1015.5 |
| 20260508212315 | 61 | 175 | 3.0 | 3.0 | 0.00 | 0.00 | 0.00 | 76 | 1015.4 |
| 20260508211858 | 55 | 278 | 1.0 | 3.0 | 0.00 | 0.00 | 0.00 | 71 | 1013.7 |
| 20260508211848 | 61 | 269 | 1.0 | 3.0 | 0.00 | 0.20 | 0.00 | 89 | 1011.6 |
| 20260508211844 | 61 | 106 | 0.0 | 0.0 | 0.00 | 0.00 | 0.00 | 85 | 1014.1 |
| 20260508211841 | 62 | 98 | 0.0 | 0.0 | 0.00 | 0.00 | 0.00 | 66 | 1016.7 |
| 20260508211832 | 52 | 241 | 2.0 | 3.0 | 0.00 | 0.00 | 0.00 | 89 | 1013.7 |
| 20260508211827 | 58 | 83 | 0.0 | 1.0 | 0.00 | 0.00 | 0.00 | 82 | 1016.0 |
| 20260508211822 | 56 | 205 | 0.0 | 0.0 | 0.00 | 0.00 | 0.00 | 90 | 1015.4 |
| 20260508211817 | 61 | 174 | 1.0 | 3.0 | 0.00 | 0.00 | 0.00 | 77 | 1015.4 |
| 20260508211400 | 55 | 277 | 2.0 | 4.0 | 0.00 | 0.00 | 0.00 | 71 | 1013.7 |
| 20260508211348 | 61 | 269 | 0.0 | 4.0 | 0.00 | 0.20 | 0.00 | 89 | 1011.5 |
| 20260508211344 | 62 | 355 | 0.0 | 0.0 | 0.00 | 0.00 | 0.00 | 66 | 1016.6 |
| 20260508211338 | 63 | 162 | 0.0 | 1.0 | 0.00 | 0.00 | 0.00 | 80 | 1016.6 |
| 20260508211336 | 58 | 83 | 1.0 | 1.0 | 0.00 | 0.00 | 0.00 | 81 | 1016.0 |
| 20260508211322 | 56 | 167 | 0.0 | 0.0 | 0.00 | 0.00 | 0.00 | 90 | 1015.5 |
| 20260508211315 | 62 | 174 | 2.0 | 3.0 | 0.00 | 0.00 | 0.00 | 75 | 1015.4 |
| 20260508210907 | 55 | 254 | 1.0 | 3.0 | 0.00 | 0.00 | 0.00 | 71 | 1013.7 |
| 20260508210848 | 61 | 269 | 3.0 | 4.0 | 0.00 | 0.20 | 0.00 | 89 | 1011.5 |
| 20260508210838 | 62 | 355 | 0.0 | 0.0 | 0.00 | 0.00 | 0.00 | 66 | 1016.6 |
| 20260508210835 | 63 | 162 | 0.0 | 1.0 | 0.00 | 0.00 | 0.00 | 80 | 1016.5 |
| 20260508210830 | 59 | 83 | 0.0 | 0.0 | 0.00 | 0.00 | 0.00 | 82 | 1016.0 |
| 20260508210828 | 56 | 163 | 0.0 | 4.0 | 0.00 | 0.00 | 0.00 | 90 | 1015.6 |
| 20260508210821 | 62 | 174 | 2.0 | 4.0 | 0.00 | 0.00 | 0.00 | 74 | 1015.4 |
| 20260508210357 | 55 | 288 | 2.0 | 4.0 | 0.00 | 0.00 | 0.00 | 71 | 1013.7 |
| 20260508210347 | 61 | 106 | 0.0 | 0.0 | 0.00 | 0.00 | 0.00 | 84 | 1014.0 |
| 20260508210341 | 63 | 355 | 0.0 | 0.0 | 0.00 | 0.00 | 0.00 | 64 | 1016.5 |
| 20260508210332 | 63 | 162 | 0.0 | 1.0 | 0.00 | 0.00 | 0.00 | 80 | 1016.5 |
| 20260508210330 | 59 | 83 | 0.0 | 0.0 | 0.00 | 0.00 | 0.00 | 80 | 1015.9 |
| 20260508210325 | 56 | 143 | 3.0 | 3.0 | 0.00 | 0.00 | 0.00 | 90 | 1015.5 |
| 20260508210318 | 62 | 174 | 0.0 | 0.0 | 0.00 | 0.00 | 0.00 | 75 | 1015.4 |
| 20260508205903 | 56 | 288 | 2.0 | 3.0 | 0.00 | 0.00 | 0.00 | 72 | 1013.8 |
| 20260508205845 | 61 | 290 | 2.0 | 4.0 | 0.00 | 0.20 | 0.00 | 89 | 1011.5 |
| 20260508205841 | 63 | 355 | 0.0 | 0.0 | 0.00 | 0.00 | 0.00 | 64 | 1016.5 |
| 20260508205832 | 63 | 162 | 0.0 | 1.0 | 0.00 | 0.00 | 0.00 | 80 | 1016.5 |
| 20260508205829 | 53 | 241 | 1.0 | 3.0 | 0.00 | 0.00 | 0.00 | 88 | 1013.6 |
| 20260508205827 | 59 | 83 | 0.0 | 0.0 | 0.00 | 0.00 | 0.00 | 80 | 1015.9 |
| 20260508205825 | 56 | 210 | 0.0 | 0.0 | 0.00 | 0.00 | 0.00 | 90 | 1015.5 |
| 20260508205821 | 61 | 174 | 0.0 | 0.0 | 0.00 | 0.00 | 0.00 | 75 | 1015.4 |
| 20260508205400 | 56 | 255 | 2.0 | 4.0 | 0.00 | 0.00 | 0.00 | 71 | 1013.7 |
| 20260508205353 | 61 | 290 | 1.0 | 4.0 | 0.00 | 0.20 | 0.00 | 89 | 1011.5 |
| 20260508205338 | 63 | 355 | 0.0 | 0.0 | 0.00 | 0.00 | 0.00 | 64 | 1016.4 |
| 20260508205335 | 63 | 162 | 0.0 | 1.0 | 0.00 | 0.00 | 0.00 | 80 | 1016.5 |
| 20260508205329 | 53 | 246 | 1.0 | 2.0 | 0.00 | 0.00 | 0.00 | 87 | 1013.7 |
| 20260508205327 | 59 | 83 | 0.0 | 0.0 | 0.00 | 0.00 | 0.00 | 80 | 1015.9 |
| 20260508205316 | 61 | 174 | 0.0 | 0.0 | 0.00 | 0.00 | 0.00 | 76 | 1015.4 |
| 20260508204857 | 56 | 270 | 2.0 | 4.0 | 0.00 | 0.00 | 0.00 | 72 | 1013.7 |
| 20260508204853 | 61 | 106 | 0.0 | 0.0 | 0.00 | 0.00 | 0.00 | 83 | 1013.9 |
| 20260508204845 | 61 | 276 | 2.0 | 3.0 | 0.00 | 0.20 | 0.00 | 89 | 1011.5 |
| 20260508204841 | 63 | 355 | 0.0 | 0.0 | 0.00 | 0.00 | 0.00 | 64 | 1016.4 |
| 20260508204833 | 59 | 83 | 0.0 | 1.0 | 0.00 | 0.00 | 0.00 | 80 | 1015.9 |
| 20260508204828 | 56 | 173 | 0.0 | 0.0 | 0.00 | 0.00 | 0.00 | 89 | 1015.5 |
| 20260508204818 | 61 | 174 | 0.0 | 0.0 | 0.00 | 0.00 | 0.00 | 78 | 1015.4 |
| 20260508204358 | 55 | 292 | 2.0 | 4.0 | 0.00 | 0.00 | 0.00 | 72 | 1013.8 |
| 20260508204351 | 61 | 276 | 3.0 | 3.0 | 0.00 | 0.20 | 0.00 | 89 | 1011.5 |
| 20260508204341 | 63 | 355 | 0.0 | 0.0 | 0.00 | 0.00 | 0.00 | 63 | 1016.5 |
| 20260508204336 | 54 | 246 | 1.0 | 2.0 | 0.00 | 0.00 | 0.00 | 87 | 1013.6 |
| 20260508204333 | 60 | 83 | 1.0 | 2.0 | 0.00 | 0.00 | 0.00 | 80 | 1015.9 |
| 20260508204322 | 57 | 183 | 0.0 | 0.0 | 0.00 | 0.00 | 0.00 | 88 | 1015.6 |
| 20260508204315 | 61 | 174 | 0.0 | 1.0 | 0.00 | 0.00 | 0.00 | 80 | 1015.4 |
| 20260508203858 | 55 | 250 | 2.0 | 3.0 | 0.00 | 0.00 | 0.00 | 72 | 1013.7 |
| 20260508203845 | 61 | 276 | 2.0 | 4.0 | 0.00 | 0.20 | 0.00 | 89 | 1011.5 |
| 20260508203838 | 64 | 355 | 0.0 | 0.0 | 0.00 | 0.00 | 0.00 | 62 | 1016.3 |
| 20260508203832 | 64 | 161 | 1.0 | 2.0 | 0.00 | 0.00 | 0.00 | 80 | 1016.6 |
| 20260508203829 | 54 | 246 | 2.0 | 2.0 | 0.00 | 0.00 | 0.00 | 87 | 1013.6 |
| 20260508203827 | 60 | 83 | 0.0 | 1.0 | 0.00 | 0.00 | 0.00 | 79 | 1015.8 |
| 20260508203822 | 57 | 186 | 0.0 | 4.0 | 0.00 | 0.00 | 0.00 | 88 | 1015.5 |
| 20260508203815 | 61 | 174 | 1.0 | 3.0 | 0.00 | 0.00 | 0.00 | 81 | 1015.4 |
| 20260508203400 | 55 | 247 | 1.0 | 3.0 | 0.00 | 0.00 | 0.00 | 72 | 1013.7 |
| 20260508203348 | 61 | 277 | 3.0 | 5.0 | 0.00 | 0.20 | 0.00 | 89 | 1011.4 |
| 20260508203344 | 62 | 106 | 0.0 | 0.0 | 0.00 | 0.00 | 0.00 | 81 | 1013.9 |
| 20260508203332 | 64 | 161 | 0.0 | 2.0 | 0.00 | 0.00 | 0.00 | 80 | 1016.5 |
| 20260508203329 | 54 | 246 | 1.0 | 2.0 | 0.00 | 0.00 | 0.00 | 86 | 1013.6 |
| 20260508203327 | 60 | 83 | 0.0 | 0.0 | 0.00 | 0.00 | 0.00 | 78 | 1015.7 |
| 20260508203321 | 61 | 174 | 2.0 | 5.0 | 0.00 | 0.00 | 0.00 | 82 | 1015.4 |
| 20260508202858 | 55 | 246 | 2.0 | 4.0 | 0.00 | 0.00 | 0.00 | 72 | 1013.7 |
| 20260508202851 | 61 | 257 | 1.0 | 4.0 | 0.00 | 0.20 | 0.00 | 89 | 1011.3 |
| 20260508202841 | 64 | 355 | 0.0 | 0.0 | 0.00 | 0.00 | 0.00 | 62 | 1016.3 |
| 20260508202832 | 64 | 161 | 0.0 | 1.0 | 0.00 | 0.00 | 0.00 | 80 | 1016.5 |
| 20260508202830 | 61 | 83 | 0.0 | 0.0 | 0.00 | 0.00 | 0.00 | 78 | 1015.6 |
| 20260508202818 | 60 | 174 | 3.0 | 6.0 | 0.00 | 0.00 | 0.00 | 84 | 1015.5 |
| 20260508202357 | 55 | 262 | 2.0 | 3.0 | 0.00 | 0.00 | 0.00 | 72 | 1013.6 |
| 20260508202354 | 61 | 250 | 2.0 | 5.0 | 0.00 | 0.20 | 0.00 | 89 | 1011.4 |
| 20260508202344 | 64 | 355 | 0.0 | 0.0 | 0.00 | 0.00 | 0.00 | 61 | 1016.3 |
| 20260508202332 | 64 | 161 | 0.0 | 1.0 | 0.00 | 0.00 | 0.00 | 80 | 1016.5 |
| 20260508202329 | 55 | 246 | 0.0 | 2.0 | 0.00 | 0.00 | 0.00 | 86 | 1013.7 |
| 20260508202327 | 61 | 83 | 0.0 | 0.0 | 0.00 | 0.00 | 0.00 | 77 | 1015.6 |
| 20260508202319 | 61 | 174 | 5.0 | 6.0 | 0.00 | 0.00 | 0.00 | 84 | 1015.5 |
| 20260508201901 | 55 | 281 | 1.0 | 3.0 | 0.00 | 0.00 | 0.00 | 72 | 1013.5 |
| 20260508201847 | 64 | 0 | 0.0 | 4.0 | 0.00 | 0.00 | 0.00 | 60 | 1016.2 |
| 20260508201845 | 61 | 240 | 4.0 | 5.0 | 0.00 | 0.20 | 0.00 | 88 | 1011.3 |
| 20260508201836 | 62 | 83 | 0.0 | 1.0 | 0.00 | 0.00 | 0.00 | 76 | 1015.5 |
| 20260508201829 | 55 | 246 | 1.0 | 2.0 | 0.00 | 0.00 | 0.00 | 86 | 1013.7 |
| 20260508201826 | 57 | 222 | 0.0 | 0.0 | 0.00 | 0.00 | 0.00 | 83 | 1015.6 |
| 20260508201818 | 61 | 163 | 5.0 | 5.0 | 0.00 | 0.00 | 0.00 | 85 | 1015.5 |
| 20260508201357 | 55 | 275 | 2.0 | 3.0 | 0.00 | 0.00 | 0.00 | 72 | 1013.5 |
| 20260508201345 | 61 | 233 | 1.0 | 5.0 | 0.00 | 0.20 | 0.00 | 88 | 1011.3 |
| 20260508201338 | 64 | 20 | 0.0 | 0.0 | 0.00 | 0.00 | 0.00 | 59 | 1016.1 |
| 20260508201333 | 62 | 83 | 0.0 | 0.0 | 0.00 | 0.00 | 0.00 | 75 | 1015.5 |
| 20260508201323 | 58 | 222 | 0.0 | 1.0 | 0.00 | 0.00 | 0.00 | 81 | 1015.5 |
| 20260508201315 | 61 | 151 | 3.0 | 4.0 | 0.00 | 0.00 | 0.00 | 85 | 1015.4 |
| 20260508200857 | 55 | 274 | 2.0 | 4.0 | 0.00 | 0.00 | 0.00 | 72 | 1013.5 |
| 20260508200847 | 61 | 238 | 2.0 | 5.0 | 0.00 | 0.20 | 0.00 | 88 | 1011.3 |
| 20260508200838 | 65 | 62 | 0.0 | 0.0 | 0.00 | 0.00 | 0.00 | 59 | 1016.1 |
| 20260508200833 | 64 | 161 | 0.0 | 1.0 | 0.00 | 0.00 | 0.00 | 79 | 1016.4 |
| 20260508200830 | 55 | 246 | 0.0 | 2.0 | 0.00 | 0.00 | 0.00 | 86 | 1013.5 |
| 20260508200822 | 58 | 265 | 0.0 | 0.0 | 0.00 | 0.00 | 0.00 | 77 | 1015.5 |
| 20260508200813 | 61 | 150 | 1.0 | 3.0 | 0.00 | 0.00 | 0.00 | 85 | 1015.4 |
| 20260508200357 | 56 | 273 | 2.0 | 3.0 | 0.00 | 0.00 | 0.00 | 73 | 1013.6 |
| 20260508200348 | 61 | 238 | 1.0 | 5.0 | 0.00 | 0.20 | 0.00 | 88 | 1011.2 |
| 20260508200344 | 63 | 106 | 0.0 | 0.0 | 0.00 | 0.00 | 0.00 | 78 | 1013.9 |
| 20260508200338 | 65 | 17 | 0.0 | 0.0 | 0.00 | 0.00 | 0.00 | 59 | 1016.1 |
| 20260508200332 | 55 | 246 | 1.0 | 2.0 | 0.00 | 0.00 | 0.00 | 86 | 1013.5 |
| 20260508200330 | 63 | 83 | 1.0 | 1.0 | 0.00 | 0.00 | 0.00 | 73 | 1015.4 |
| 20260508200322 | 59 | 242 | 0.0 | 0.0 | 0.00 | 0.00 | 0.00 | 68 | 1015.4 |
| 20260508195857 | 56 | 277 | 3.0 | 3.0 | 0.00 | 0.00 | 0.00 | 73 | 1013.5 |
| 20260508195845 | 61 | 236 | 2.0 | 5.0 | 0.00 | 0.20 | 0.00 | 88 | 1011.1 |
| 20260508195838 | 65 | 52 | 0.0 | 5.0 | 0.00 | 0.00 | 0.00 | 58 | 1015.9 |
| 20260508195832 | 65 | 161 | 0.0 | 1.0 | 0.00 | 0.00 | 0.00 | 79 | 1016.4 |
| 20260508195830 | 64 | 83 | 0.0 | 0.0 | 0.00 | 0.00 | 0.00 | 73 | 1015.4 |
| 20260508195822 | 60 | 304 | 0.0 | 0.0 | 0.00 | 0.00 | 0.00 | 55 | 1015.3 |
| 20260508195817 | 61 | 150 | 1.0 | 3.0 | 0.00 | 0.00 | 0.00 | 85 | 1015.4 |
| 20260508195400 | 56 | 281 | 2.0 | 4.0 | 0.00 | 0.00 | 0.00 | 73 | 1013.5 |
| 20260508195345 | 61 | 239 | 2.0 | 4.0 | 0.00 | 0.20 | 0.00 | 88 | 1011.1 |
| 20260508195335 | 65 | 161 | 1.0 | 1.0 | 0.00 | 0.00 | 0.00 | 79 | 1016.3 |
| 20260508195332 | 56 | 246 | 1.0 | 2.0 | 0.00 | 0.00 | 0.00 | 85 | 1013.3 |
| 20260508195330 | 64 | 83 | 0.0 | 2.0 | 0.00 | 0.00 | 0.00 | 73 | 1015.3 |
| 20260508195322 | 60 | 267 | 0.0 | 1.0 | 0.00 | 0.00 | 0.00 | 54 | 1015.2 |
| 20260508195313 | 61 | 150 | 2.0 | 6.0 | 0.00 | 0.00 | 0.00 | 85 | 1015.4 |
| 20260508194903 | 56 | 271 | 2.0 | 3.0 | 0.00 | 0.00 | 0.00 | 73 | 1013.4 |
| 20260508194853 | 63 | 106 | 0.0 | 0.0 | 0.00 | 0.00 | 0.00 | 77 | 1013.8 |
| 20260508194851 | 61 | 239 | 2.0 | 5.0 | 0.00 | 0.20 | 0.00 | 88 | 1011.0 |
| 20260508194841 | 65 | 44 | 0.0 | 0.0 | 0.00 | 0.00 | 0.00 | 57 | 1015.8 |
| 20260508194835 | 65 | 161 | 1.0 | 2.0 | 0.00 | 0.00 | 0.00 | 78 | 1016.2 |
| 20260508194830 | 64 | 83 | 1.0 | 5.0 | 0.00 | 0.00 | 0.00 | 72 | 1015.2 |
| 20260508194825 | 60 | 88 | 0.0 | 0.0 | 0.00 | 0.00 | 0.00 | 55 | 1015.2 |
| 20260508194815 | 61 | 167 | 5.0 | 6.0 | 0.00 | 0.00 | 0.00 | 85 | 1015.3 |
| 20260508194401 | 56 | 273 | 2.0 | 3.0 | 0.00 | 0.00 | 0.00 | 73 | 1013.4 |
| 20260508194348 | 61 | 238 | 1.0 | 5.0 | 0.00 | 0.20 | 0.00 | 88 | 1010.8 |
| 20260508194341 | 65 | 160 | 0.0 | 2.0 | 0.00 | 0.00 | 0.00 | 78 | 1016.2 |
| 20260508194338 | 66 | 91 | 0.0 | 0.0 | 0.00 | 0.00 | 0.00 | 57 | 1015.8 |
| 20260508194332 | 56 | 245 | 1.0 | 2.0 | 0.00 | 0.00 | 0.00 | 84 | 1013.2 |
| 20260508194327 | 65 | 93 | 2.0 | 3.0 | 0.00 | 0.00 | 0.00 | 71 | 1015.1 |
| 20260508194315 | 61 | 179 | 4.0 | 6.0 | 0.00 | 0.00 | 0.00 | 85 | 1015.3 |
| 20260508193903 | 56 | 275 | 2.0 | 3.0 | 0.00 | 0.00 | 0.00 | 73 | 1013.3 |
| 20260508193854 | 61 | 229 | 3.0 | 5.0 | 0.00 | 0.20 | 0.00 | 88 | 1010.8 |
| 20260508193841 | 66 | 19 | 0.0 | 0.0 | 0.00 | 0.00 | 0.00 | 56 | 1015.7 |
| 20260508193835 | 65 | 160 | 1.0 | 4.0 | 0.00 | 0.00 | 0.00 | 78 | 1016.2 |
| 20260508193830 | 57 | 245 | 1.0 | 2.0 | 0.00 | 0.00 | 0.00 | 83 | 1013.2 |
| 20260508193827 | 65 | 85 | 2.0 | 3.0 | 0.00 | 0.00 | 0.00 | 71 | 1015.0 |
| 20260508193824 | 60 | 147 | 0.0 | 3.0 | 0.00 | 0.00 | 0.00 | 56 | 1015.0 |
| 20260508193812 | 61 | 161 | 6.0 | 6.0 | 0.00 | 0.00 | 0.00 | 85 | 1015.3 |
| 20260508193401 | 56 | 283 | 2.0 | 4.0 | 0.00 | 0.00 | 0.00 | 73 | 1013.2 |
| 20260508193345 | 62 | 268 | 4.0 | 5.0 | 0.00 | 0.20 | 0.00 | 87 | 1010.6 |
| 20260508193341 | 66 | 10 | 0.0 | 0.0 | 0.00 | 0.00 | 0.00 | 56 | 1015.6 |
| 20260508193335 | 57 | 245 | 1.0 | 2.0 | 0.00 | 0.00 | 0.00 | 83 | 1013.2 |
| 20260508193332 | 66 | 159 | 1.0 | 2.0 | 0.00 | 0.00 | 0.00 | 78 | 1016.1 |
| 20260508193327 | 65 | 85 | 2.0 | 3.0 | 0.00 | 0.00 | 0.00 | 71 | 1014.9 |
| 20260508193325 | 59 | 30 | 0.0 | 6.0 | 0.00 | 0.00 | 0.00 | 58 | 1014.9 |
| 20260508193312 | 61 | 132 | 3.0 | 7.0 | 0.00 | 0.00 | 0.00 | 85 | 1015.2 |
| 20260508192857 | 56 | 265 | 3.0 | 3.0 | 0.00 | 0.00 | 0.00 | 73 | 1013.1 |
| 20260508192851 | 62 | 267 | 2.0 | 4.0 | 0.00 | 0.20 | 0.00 | 87 | 1010.5 |
| 20260508192841 | 66 | 10 | 0.0 | 0.0 | 0.00 | 0.00 | 0.00 | 55 | 1015.5 |
| 20260508192835 | 58 | 245 | 1.0 | 2.0 | 0.00 | 0.00 | 0.00 | 83 | 1013.0 |
| 20260508192832 | 66 | 159 | 0.0 | 2.0 | 0.00 | 0.00 | 0.00 | 78 | 1016.0 |
| 20260508192827 | 65 | 85 | 2.0 | 3.0 | 0.00 | 0.00 | 0.00 | 70 | 1014.9 |
| 20260508192823 | 59 | 11 | 1.0 | 3.0 | 0.00 | 0.00 | 0.00 | 59 | 1014.9 |
| 20260508192815 | 61 | 128 | 5.0 | 6.0 | 0.00 | 0.00 | 0.00 | 85 | 1015.2 |
| 20260508192401 | 56 | 273 | 2.0 | 3.0 | 0.00 | 0.00 | 0.00 | 73 | 1013.0 |
| 20260508192345 | 62 | 276 | 2.0 | 6.0 | 0.00 | 0.20 | 0.00 | 87 | 1010.4 |
| 20260508192341 | 67 | 0 | 0.0 | 3.0 | 0.00 | 0.00 | 0.00 | 55 | 1015.5 |
| 20260508192335 | 66 | 158 | 1.0 | 1.0 | 0.00 | 0.00 | 0.00 | 77 | 1015.9 |
| 20260508192329 | 58 | 245 | 0.0 | 2.0 | 0.00 | 0.00 | 0.00 | 83 | 1013.0 |
| 20260508192327 | 59 | 65 | 0.0 | 6.0 | 0.00 | 0.00 | 0.00 | 61 | 1014.9 |
| 20260508192313 | 61 | 111 | 2.0 | 7.0 | 0.00 | 0.00 | 0.00 | 85 | 1015.1 |
| 20260508191857 | 56 | 278 | 2.0 | 3.0 | 0.00 | 0.00 | 0.00 | 74 | 1013.0 |
| 20260508191847 | 67 | 34 | 0.0 | 4.0 | 0.00 | 0.00 | 0.00 | 55 | 1015.4 |
| 20260508191845 | 62 | 304 | 5.0 | 5.0 | 0.00 | 0.20 | 0.00 | 87 | 1010.3 |
| 20260508191835 | 66 | 158 | 0.0 | 0.0 | 0.00 | 0.00 | 0.00 | 77 | 1015.7 |
| 20260508191833 | 58 | 245 | 1.0 | 4.0 | 0.00 | 0.00 | 0.00 | 82 | 1013.0 |
| 20260508191827 | 65 | 194 | 2.0 | 2.0 | 0.00 | 0.00 | 0.00 | 68 | 1014.6 |
| 20260508191812 | 61 | 142 | 2.0 | 4.0 | 0.00 | 0.00 | 0.00 | 86 | 1015.0 |
| 20260508191401 | 56 | 286 | 2.0 | 3.0 | 0.00 | 0.00 | 0.00 | 74 | 1012.9 |
| 20260508191347 | 62 | 280 | 1.0 | 4.0 | 0.00 | 0.20 | 0.00 | 86 | 1010.2 |
| 20260508191338 | 67 | 5 | 0.0 | 6.0 | 0.00 | 0.00 | 0.00 | 54 | 1015.3 |
| 20260508191335 | 66 | 158 | 0.0 | 0.0 | 0.00 | 0.00 | 0.00 | 77 | 1015.4 |
| 20260508191332 | 58 | 277 | 1.0 | 2.0 | 0.00 | 0.00 | 0.00 | 82 | 1012.8 |
| 20260508191327 | 65 | 194 | 1.0 | 2.0 | 0.00 | 0.00 | 0.00 | 65 | 1014.5 |
| 20260508191323 | 59 | 354 | 2.0 | 8.0 | 0.00 | 0.00 | 0.00 | 63 | 1014.7 |
| 20260508191312 | 61 | 124 | 0.0 | 0.0 | 0.00 | 0.00 | 0.00 | 86 | 1015.0 |
| 20260508190857 | 56 | 294 | 2.0 | 3.0 | 0.00 | 0.00 | 0.00 | 74 | 1012.9 |
| 20260508190845 | 62 | 274 | 3.0 | 4.0 | 0.00 | 0.20 | 0.00 | 86 | 1010.1 |
| 20260508190838 | 67 | 158 | 0.0 | 0.0 | 0.00 | 0.00 | 0.00 | 77 | 1015.5 |
| 20260508190829 | 59 | 277 | 1.0 | 3.0 | 0.00 | 0.00 | 0.00 | 81 | 1012.8 |
| 20260508190827 | 66 | 194 | 1.0 | 2.0 | 0.00 | 0.00 | 0.00 | 64 | 1014.5 |
| 20260508190818 | 61 | 124 | 0.0 | 1.0 | 0.00 | 0.00 | 0.00 | 85 | 1015.0 |
| 20260508190358 | 56 | 292 | 2.0 | 4.0 | 0.00 | 0.00 | 0.00 | 74 | 1012.9 |
| 20260508190351 | 62 | 273 | 0.0 | 4.0 | 0.00 | 0.20 | 0.00 | 86 | 1009.9 |
| 20260508190341 | 67 | 48 | 3.0 | 5.0 | 0.00 | 0.00 | 0.00 | 54 | 1015.0 |
| 20260508190335 | 67 | 158 | 0.0 | 1.0 | 0.00 | 0.00 | 0.00 | 76 | 1015.2 |
| 20260508190331 | 66 | 194 | 0.0 | 0.0 | 0.00 | 0.00 | 0.00 | 64 | 1014.4 |
| 20260508190329 | 59 | 261 | 1.0 | 3.0 | 0.00 | 0.00 | 0.00 | 81 | 1012.8 |
| 20260508190315 | 61 | 124 | 0.0 | 2.0 | 0.00 | 0.00 | 0.00 | 85 | 1014.9 |
| 20260508185906 | 56 | 292 | 2.0 | 3.0 | 0.00 | 0.00 | 0.00 | 74 | 1012.8 |
| 20260508185847 | 63 | 273 | 3.0 | 6.0 | 0.00 | 0.20 | 0.00 | 86 | 1009.9 |
| 20260508185838 | 67 | 85 | 3.0 | 7.0 | 0.00 | 0.00 | 0.00 | 54 | 1015.0 |
| 20260508185835 | 59 | 262 | 0.0 | 3.0 | 0.00 | 0.00 | 0.00 | 81 | 1012.7 |
| 20260508185832 | 67 | 159 | 1.0 | 2.0 | 0.00 | 0.00 | 0.00 | 76 | 1015.3 |
| 20260508185830 | 66 | 194 | 0.0 | 4.0 | 0.00 | 0.00 | 0.00 | 63 | 1014.3 |
| 20260508185812 | 61 | 124 | 0.0 | 3.0 | 0.00 | 0.00 | 0.00 | 85 | 1014.8 |
| 20260508185403 | 56 | 292 | 2.0 | 2.0 | 0.00 | 0.00 | 0.00 | 74 | 1012.8 |
| 20260508185345 | 63 | 262 | 1.0 | 4.0 | 0.00 | 0.20 | 0.00 | 85 | 1009.7 |
| 20260508185338 | 68 | 5 | 5.0 | 7.0 | 0.00 | 0.00 | 0.00 | 54 | 1014.8 |
| 20260508185335 | 59 | 263 | 2.0 | 3.0 | 0.00 | 0.00 | 0.00 | 81 | 1012.7 |
| 20260508185332 | 67 | 159 | 1.0 | 2.0 | 0.00 | 0.00 | 0.00 | 76 | 1015.2 |
| 20260508185327 | 66 | 194 | 4.0 | 4.0 | 0.00 | 0.00 | 0.00 | 63 | 1014.2 |
| 20260508185312 | 61 | 124 | 1.0 | 3.0 | 0.00 | 0.00 | 0.00 | 85 | 1014.7 |
| 20260508184901 | 56 | 281 | 1.0 | 4.0 | 0.00 | 0.00 | 0.00 | 74 | 1012.7 |
| 20260508184846 | 63 | 258 | 0.0 | 5.0 | 0.00 | 0.20 | 0.00 | 85 | 1009.6 |
| 20260508184844 | 68 | 17 | 0.0 | 0.0 | 0.00 | 0.00 | 0.00 | 54 | 1014.8 |
| 20260508184838 | 67 | 159 | 0.0 | 2.0 | 0.00 | 0.00 | 0.00 | 75 | 1015.3 |
| 20260508184830 | 67 | 199 | 1.0 | 6.0 | 0.00 | 0.00 | 0.00 | 62 | 1014.1 |
| 20260508184812 | 61 | 126 | 3.0 | 3.0 | 0.00 | 0.00 | 0.00 | 85 | 1014.6 |
| 20260508184401 | 56 | 268 | 2.0 | 3.0 | 0.00 | 0.00 | 0.00 | 74 | 1012.7 |
| 20260508184345 | 63 | 248 | 2.0 | 6.0 | 0.00 | 0.20 | 0.00 | 85 | 1009.5 |
| 20260508184332 | 68 | 159 | 0.0 | 2.0 | 0.00 | 0.00 | 0.00 | 75 | 1015.2 |
| 20260508184330 | 67 | 197 | 1.0 | 7.0 | 0.00 | 0.00 | 0.00 | 62 | 1014.0 |
| 20260508184312 | 61 | 131 | 3.0 | 5.0 | 0.00 | 0.00 | 0.00 | 85 | 1014.5 |
| 20260508183858 | 56 | 268 | 2.0 | 7.0 | 0.00 | 0.00 | 0.00 | 74 | 1012.6 |
| 20260508183845 | 63 | 219 | 1.0 | 7.0 | 0.00 | 0.20 | 0.00 | 85 | 1009.4 |
| 20260508183838 | 60 | 291 | 1.0 | 5.0 | 0.00 | 0.00 | 0.00 | 80 | 1012.2 |
| 20260508183836 | 67 | 204 | 1.0 | 5.0 | 0.00 | 0.00 | 0.00 | 62 | 1014.0 |
| 20260508183832 | 68 | 159 | 1.0 | 4.0 | 0.00 | 0.00 | 0.00 | 74 | 1015.1 |
| 20260508183815 | 61 | 103 | 0.0 | 4.0 | 0.00 | 0.00 | 0.00 | 84 | 1014.5 |
| 20260508183358 | 56 | 297 | 2.0 | 3.0 | 0.00 | 0.00 | 0.00 | 75 | 1012.6 |
| 20260508183347 | 63 | 213 | 1.0 | 7.0 | 0.00 | 0.20 | 0.00 | 85 | 1009.3 |
| 20260508183341 | 68 | 35 | 0.0 | 5.0 | 0.00 | 0.00 | 0.00 | 53 | 1014.5 |
| 20260508183335 | 68 | 159 | 0.0 | 4.0 | 0.00 | 0.00 | 0.00 | 74 | 1015.1 |
| 20260508183333 | 61 | 248 | 2.0 | 4.0 | 0.00 | 0.00 | 0.00 | 79 | 1012.2 |
| 20260508183330 | 67 | 205 | 1.0 | 6.0 | 0.00 | 0.00 | 0.00 | 62 | 1013.9 |
| 20260508183313 | 61 | 67 | 0.0 | 3.0 | 0.00 | 0.00 | 0.00 | 84 | 1014.4 |
| 20260508182901 | 56 | 301 | 2.0 | 3.0 | 0.00 | 0.00 | 0.00 | 75 | 1012.5 |
| 20260508182848 | 63 | 203 | 6.0 | 7.0 | 0.00 | 0.20 | 0.00 | 84 | 1009.3 |
| 20260508182844 | 68 | 0 | 4.0 | 8.0 | 0.00 | 0.00 | 0.00 | 54 | 1014.5 |
| 20260508182835 | 62 | 250 | 1.0 | 3.0 | 0.00 | 0.00 | 0.00 | 78 | 1012.1 |
| 20260508182832 | 69 | 152 | 1.0 | 3.0 | 0.00 | 0.00 | 0.00 | 73 | 1014.9 |
| 20260508182827 | 68 | 201 | 0.0 | 4.0 | 0.00 | 0.00 | 0.00 | 62 | 1013.9 |
| 20260508182818 | 61 | 67 | 2.0 | 3.0 | 0.00 | 0.00 | 0.00 | 83 | 1014.4 |
| 20260508182401 | 57 | 301 | 1.0 | 3.0 | 0.00 | 0.00 | 0.00 | 75 | 1012.5 |
| 20260508182348 | 63 | 260 | 4.0 | 8.0 | 0.00 | 0.20 | 0.00 | 84 | 1009.2 |
| 20260508182338 | 68 | 0 | 6.0 | 7.0 | 0.00 | 0.00 | 0.00 | 53 | 1014.5 |
| 20260508182335 | 62 | 250 | 2.0 | 2.0 | 0.00 | 0.00 | 0.00 | 77 | 1012.1 |
| 20260508182332 | 69 | 152 | 2.0 | 3.0 | 0.00 | 0.00 | 0.00 | 73 | 1014.9 |
| 20260508182327 | 68 | 202 | 2.0 | 8.0 | 0.00 | 0.00 | 0.00 | 61 | 1013.9 |
| 20260508182316 | 61 | 67 | 1.0 | 3.0 | 0.00 | 0.00 | 0.00 | 83 | 1014.3 |
| 20260508181858 | 57 | 302 | 0.0 | 4.0 | 0.00 | 0.00 | 0.00 | 76 | 1012.4 |
| 20260508181848 | 63 | 203 | 5.0 | 8.0 | 0.00 | 0.20 | 0.00 | 84 | 1009.0 |
| 20260508181844 | 67 | 106 | 0.0 | 0.0 | 0.00 | 0.00 | 0.00 | 68 | 1012.4 |
| 20260508181838 | 68 | 23 | 0.0 | 10.0 | 0.00 | 0.00 | 0.00 | 52 | 1014.3 |
| 20260508181835 | 69 | 152 | 2.0 | 3.0 | 0.00 | 0.00 | 0.00 | 72 | 1014.8 |
| 20260508181829 | 62 | 250 | 1.0 | 4.0 | 0.00 | 0.00 | 0.00 | 77 | 1012.1 |
| 20260508181827 | 68 | 211 | 2.0 | 8.0 | 0.00 | 0.00 | 0.00 | 60 | 1013.7 |
| 20260508181812 | 61 | 67 | 1.0 | 2.0 | 0.00 | 0.00 | 0.00 | 83 | 1014.3 |
| 20260508181407 | 57 | 321 | 1.0 | 2.0 | 0.00 | 0.00 | 0.00 | 75 | 1012.4 |
| 20260508181350 | 64 | 204 | 4.0 | 7.0 | 0.00 | 0.20 | 0.00 | 83 | 1008.9 |
| 20260508181341 | 69 | 65 | 5.0 | 7.0 | 0.00 | 0.00 | 0.00 | 52 | 1014.3 |
| 20260508181333 | 70 | 150 | 0.0 | 2.0 | 0.00 | 0.00 | 0.00 | 72 | 1014.8 |
| 20260508181327 | 68 | 214 | 5.0 | 7.0 | 0.00 | 0.00 | 0.00 | 61 | 1013.7 |
| 20260508181313 | 61 | 67 | 0.0 | 3.0 | 0.00 | 0.00 | 0.00 | 82 | 1014.3 |
| 20260508180858 | 57 | 321 | 0.0 | 1.0 | 0.00 | 0.00 | 0.00 | 75 | 1012.3 |
| 20260508180845 | 64 | 203 | 4.0 | 7.0 | 0.00 | 0.20 | 0.00 | 83 | 1008.9 |
| 20260508180838 | 69 | 55 | 0.0 | 4.0 | 0.00 | 0.00 | 0.00 | 52 | 1014.2 |
| 20260508180832 | 70 | 150 | 0.0 | 4.0 | 0.00 | 0.00 | 0.00 | 71 | 1014.7 |
| 20260508180830 | 68 | 211 | 5.0 | 6.0 | 0.00 | 0.00 | 0.00 | 60 | 1013.7 |
| 20260508180818 | 61 | 67 | 2.0 | 3.0 | 0.00 | 0.00 | 0.00 | 82 | 1014.3 |
| 20260508180358 | 57 | 321 | 0.0 | 2.0 | 0.00 | 0.00 | 0.00 | 75 | 1012.3 |
| 20260508180348 | 64 | 165 | 5.0 | 9.0 | 0.00 | 0.20 | 0.00 | 83 | 1008.9 |
| 20260508180344 | 69 | 106 | 0.0 | 0.0 | 0.00 | 0.00 | 0.00 | 63 | 1012.3 |
| 20260508180338 | 69 | 30 | 0.0 | 4.0 | 0.00 | 0.00 | 0.00 | 51 | 1014.1 |
| 20260508180335 | 70 | 160 | 1.0 | 4.0 | 0.00 | 0.00 | 0.00 | 70 | 1014.6 |
| 20260508180329 | 64 | 245 | 1.0 | 3.0 | 0.00 | 0.00 | 0.00 | 75 | 1012.2 |
| 20260508180327 | 68 | 208 | 4.0 | 9.0 | 0.00 | 0.00 | 0.00 | 60 | 1013.5 |
| 20260508180321 | 61 | 67 | 1.0 | 3.0 | 0.00 | 0.00 | 0.00 | 82 | 1014.2 |
| 20260508175858 | 58 | 321 | 1.0 | 2.0 | 0.00 | 0.00 | 0.00 | 74 | 1012.2 |
| 20260508175845 | 65 | 202 | 6.0 | 7.0 | 0.00 | 0.20 | 0.00 | 82 | 1008.9 |
| 20260508175841 | 69 | 0 | 0.0 | 5.0 | 0.00 | 0.00 | 0.00 | 52 | 1013.9 |
| 20260508175835 | 71 | 168 | 0.0 | 3.0 | 0.00 | 0.00 | 0.00 | 70 | 1014.6 |
| 20260508175830 | 64 | 259 | 2.0 | 4.0 | 0.00 | 0.00 | 0.00 | 75 | 1012.1 |
| 20260508175827 | 68 | 210 | 3.0 | 7.0 | 0.00 | 0.00 | 0.00 | 61 | 1013.4 |
| 20260508175812 | 61 | 67 | 2.0 | 3.0 | 0.00 | 0.00 | 0.00 | 82 | 1014.2 |
| 20260508175359 | 58 | 256 | 1.0 | 3.0 | 0.00 | 0.00 | 0.00 | 74 | 1012.1 |
| 20260508175345 | 65 | 195 | 3.0 | 6.0 | 0.00 | 0.20 | 0.00 | 82 | 1008.8 |
| 20260508175332 | 71 | 171 | 1.0 | 4.0 | 0.00 | 0.00 | 0.00 | 69 | 1014.6 |
| 20260508175330 | 68 | 242 | 3.0 | 5.0 | 0.00 | 0.00 | 0.00 | 61 | 1013.4 |
| 20260508175315 | 61 | 67 | 2.0 | 5.0 | 0.00 | 0.00 | 0.00 | 82 | 1014.2 |
| 20260508174901 | 58 | 171 | 0.0 | 4.0 | 0.00 | 0.00 | 0.00 | 73 | 1012.2 |
| 20260508174845 | 65 | 217 | 2.0 | 5.0 | 0.00 | 0.20 | 0.00 | 82 | 1008.7 |
| 20260508174832 | 71 | 177 | 0.0 | 2.0 | 0.00 | 0.00 | 0.00 | 69 | 1014.6 |
| 20260508174829 | 65 | 253 | 2.0 | 3.0 | 0.00 | 0.00 | 0.00 | 74 | 1012.0 |
| 20260508174827 | 69 | 236 | 3.0 | 8.0 | 0.00 | 0.00 | 0.00 | 60 | 1013.4 |
| 20260508174812 | 61 | 67 | 3.0 | 4.0 | 0.00 | 0.00 | 0.00 | 82 | 1014.1 |
| 20260508174401 | 58 | 174 | 3.0 | 4.0 | 0.00 | 0.00 | 0.00 | 73 | 1012.2 |
| 20260508174345 | 65 | 229 | 2.0 | 6.0 | 0.00 | 0.20 | 0.00 | 82 | 1008.6 |
| 20260508174335 | 65 | 259 | 2.0 | 3.0 | 0.00 | 0.00 | 0.00 | 73 | 1011.6 |
| 20260508174330 | 69 | 235 | 4.0 | 9.0 | 0.00 | 0.00 | 0.00 | 59 | 1013.3 |
| 20260508174312 | 61 | 67 | 2.0 | 4.0 | 0.00 | 0.00 | 0.00 | 82 | 1014.1 |
| 20260508173858 | 58 | 257 | 0.0 | 3.0 | 0.00 | 0.00 | 0.00 | 72 | 1012.1 |
| 20260508173848 | 65 | 218 | 3.0 | 6.0 | 0.00 | 0.20 | 0.00 | 82 | 1008.6 |
| 20260508173838 | 70 | 32 | 2.0 | 3.0 | 0.00 | 0.00 | 0.00 | 51 | 1013.9 |
| 20260508173832 | 66 | 267 | 2.0 | 3.0 | 0.00 | 0.00 | 0.00 | 71 | 1011.6 |
| 20260508173830 | 69 | 250 | 7.0 | 11.0 | 0.00 | 0.00 | 0.00 | 59 | 1013.3 |
| 20260508173812 | 61 | 67 | 2.0 | 4.0 | 0.00 | 0.00 | 0.00 | 82 | 1014.2 |
| 20260508173358 | 58 | 256 | 1.0 | 3.0 | 0.00 | 0.00 | 0.00 | 72 | 1012.0 |
| 20260508173345 | 65 | 203 | 2.0 | 6.0 | 0.00 | 0.20 | 0.00 | 82 | 1008.5 |
| 20260508173338 | 70 | 56 | 0.0 | 0.0 | 0.00 | 0.00 | 0.00 | 51 | 1013.9 |
| 20260508173333 | 66 | 29 | 0.0 | 1.0 | 0.00 | 0.00 | 0.00 | 70 | 1011.6 |
| 20260508173327 | 69 | 221 | 6.0 | 9.0 | 0.00 | 0.00 | 0.00 | 59 | 1013.3 |
| 20260508173315 | 61 | 67 | 3.0 | 4.0 | 0.00 | 0.00 | 0.00 | 82 | 1014.2 |
| 20260508172858 | 58 | 193 | 0.0 | 1.0 | 0.00 | 0.00 | 0.00 | 72 | 1012.0 |
| 20260508172846 | 66 | 214 | 4.0 | 7.0 | 0.00 | 0.20 | 0.00 | 82 | 1008.5 |
| 20260508172840 | 70 | 45 | 0.0 | 6.0 | 0.00 | 0.00 | 0.00 | 50 | 1013.8 |
| 20260508172835 | 72 | 173 | 5.0 | 6.0 | 0.00 | 0.00 | 0.00 | 65 | 1014.5 |
| 20260508172830 | 70 | 221 | 6.0 | 9.0 | 0.00 | 0.00 | 0.00 | 58 | 1013.2 |
| 20260508172816 | 61 | 63 | 3.0 | 4.0 | 0.00 | 0.00 | 0.00 | 83 | 1014.2 |
| 20260508172358 | 59 | 193 | 0.0 | 4.0 | 0.00 | 0.00 | 0.00 | 72 | 1012.0 |
| 20260508172345 | 66 | 229 | 2.0 | 6.0 | 0.00 | 0.20 | 0.00 | 82 | 1008.5 |
| 20260508172341 | 70 | 30 | 0.0 | 0.0 | 0.00 | 0.00 | 0.00 | 50 | 1013.8 |
| 20260508172332 | 72 | 163 | 0.0 | 4.0 | 0.00 | 0.00 | 0.00 | 65 | 1014.5 |
| 20260508172329 | 67 | 320 | 0.0 | 2.0 | 0.00 | 0.00 | 0.00 | 66 | 1011.7 |
| 20260508172321 | 61 | 63 | 1.0 | 3.0 | 0.00 | 0.00 | 0.00 | 83 | 1014.2 |
| 20260508171901 | 59 | 189 | 1.0 | 2.0 | 0.00 | 0.00 | 0.00 | 71 | 1011.9 |
| 20260508171851 | 66 | 192 | 1.0 | 6.0 | 0.00 | 0.20 | 0.00 | 82 | 1008.5 |
| 20260508171846 | 70 | 105 | 0.0 | 0.0 | 0.00 | 0.00 | 0.00 | 64 | 1011.8 |
| 20260508171838 | 70 | 314 | 0.0 | 5.0 | 0.00 | 0.00 | 0.00 | 50 | 1014.0 |
| 20260508171835 | 72 | 167 | 3.0 | 4.0 | 0.00 | 0.00 | 0.00 | 65 | 1014.4 |
| 20260508171833 | 70 | 203 | 7.0 | 9.0 | 0.00 | 0.00 | 0.00 | 58 | 1013.2 |
| 20260508171829 | 67 | 312 | 1.0 | 2.0 | 0.00 | 0.00 | 0.00 | 67 | 1011.7 |
| 20260508171821 | 61 | 63 | 2.0 | 3.0 | 0.00 | 0.00 | 0.00 | 83 | 1014.2 |
| 20260508171401 | 59 | 226 | 0.0 | 3.0 | 0.00 | 0.00 | 0.00 | 70 | 1011.9 |
| 20260508171351 | 66 | 214 | 3.0 | 5.0 | 0.00 | 0.20 | 0.00 | 81 | 1008.4 |
| 20260508171341 | 70 | 339 | 0.0 | 0.0 | 0.00 | 0.00 | 0.00 | 51 | 1013.8 |
| 20260508171333 | 70 | 199 | 2.0 | 12.0 | 0.00 | 0.00 | 0.00 | 58 | 1013.1 |
| 20260508171329 | 67 | 323 | 1.0 | 3.0 | 0.00 | 0.00 | 0.00 | 65 | 1011.8 |
| 20260508171321 | 61 | 49 | 3.0 | 4.0 | 0.00 | 0.00 | 0.00 | 83 | 1014.2 |
| 20260508170901 | 59 | 186 | 1.0 | 3.0 | 0.00 | 0.00 | 0.00 | 71 | 1011.9 |
| 20260508170845 | 66 | 223 | 2.0 | 6.0 | 0.00 | 0.20 | 0.00 | 82 | 1008.3 |
| 20260508170838 | 70 | 319 | 0.0 | 0.0 | 0.00 | 0.00 | 0.00 | 50 | 1013.9 |
| 20260508170835 | 73 | 142 | 1.0 | 3.0 | 0.00 | 0.00 | 0.00 | 65 | 1014.4 |
| 20260508170833 | 70 | 208 | 9.0 | 9.0 | 0.00 | 0.00 | 0.00 | 58 | 1013.2 |
| 20260508170829 | 67 | 78 | 0.0 | 2.0 | 0.00 | 0.00 | 0.00 | 64 | 1011.8 |
| 20260508170817 | 61 | 89 | 2.0 | 3.0 | 0.00 | 0.00 | 0.00 | 83 | 1014.2 |
| 20260508170401 | 59 | 213 | 2.0 | 2.0 | 0.00 | 0.00 | 0.00 | 71 | 1011.9 |
| 20260508170345 | 66 | 205 | 4.0 | 6.0 | 0.00 | 0.20 | 0.00 | 82 | 1008.2 |
| 20260508170338 | 70 | 47 | 0.0 | 0.0 | 0.00 | 0.00 | 0.00 | 52 | 1013.8 |
| 20260508170333 | 71 | 186 | 2.0 | 10.0 | 0.00 | 0.00 | 0.00 | 58 | 1013.2 |
| 20260508170330 | 67 | 81 | 2.0 | 4.0 | 0.00 | 0.00 | 0.00 | 64 | 1011.8 |
| 20260508170319 | 61 | 89 | 1.0 | 4.0 | 0.00 | 0.00 | 0.00 | 82 | 1014.2 |
| 20260508165858 | 59 | 213 | 0.0 | 3.0 | 0.00 | 0.00 | 0.00 | 71 | 1011.9 |
| 20260508165848 | 66 | 215 | 6.0 | 9.0 | 0.00 | 0.20 | 0.00 | 81 | 1008.1 |
| 20260508165844 | 71 | 16 | 0.0 | 0.0 | 0.00 | 0.00 | 0.00 | 50 | 1013.8 |
| 20260508165832 | 73 | 136 | 2.0 | 4.0 | 0.00 | 0.00 | 0.00 | 65 | 1014.4 |
| 20260508165829 | 67 | 53 | 2.0 | 5.0 | 0.00 | 0.00 | 0.00 | 63 | 1011.7 |
| 20260508165827 | 71 | 241 | 3.0 | 8.0 | 0.00 | 0.00 | 0.00 | 57 | 1013.1 |
| 20260508165815 | 61 | 60 | 2.0 | 5.0 | 0.00 | 0.00 | 0.00 | 82 | 1014.1 |
| 20260508165402 | 59 | 229 | 1.0 | 3.0 | 0.00 | 0.00 | 0.00 | 71 | 1011.9 |
| 20260508165352 | 65 | 205 | 4.0 | 9.0 | 0.00 | 0.20 | 0.00 | 81 | 1008.0 |
| 20260508165338 | 73 | 176 | 2.0 | 4.0 | 0.00 | 0.00 | 0.00 | 65 | 1014.4 |
| 20260508165329 | 67 | 55 | 0.0 | 5.0 | 0.00 | 0.00 | 0.00 | 64 | 1011.7 |
| 20260508165327 | 71 | 222 | 5.0 | 9.0 | 0.00 | 0.00 | 0.00 | 56 | 1013.1 |
| 20260508165312 | 61 | 63 | 4.0 | 6.0 | 0.00 | 0.00 | 0.00 | 82 | 1014.1 |
| 20260508164907 | 59 | 215 | 0.0 | 2.0 | 0.00 | 0.00 | 0.00 | 71 | 1011.8 |
| 20260508164852 | 70 | 106 | 0.0 | 0.0 | 0.00 | 0.00 | 0.00 | 64 | 1011.5 |
| 20260508164845 | 65 | 204 | 5.0 | 10.0 | 0.00 | 0.20 | 0.00 | 81 | 1008.0 |
| 20260508164843 | 71 | 5 | 0.0 | 9.0 | 0.00 | 0.00 | 0.00 | 50 | 1013.8 |
| 20260508164841 | 73 | 163 | 0.0 | 5.0 | 0.00 | 0.00 | 0.00 | 65 | 1014.4 |
| 20260508164833 | 71 | 240 | 4.0 | 8.0 | 0.00 | 0.00 | 0.00 | 56 | 1013.1 |
| 20260508164829 | 67 | 69 | 0.0 | 5.0 | 0.00 | 0.00 | 0.00 | 64 | 1011.7 |
| 20260508164812 | 61 | 69 | 3.0 | 7.0 | 0.00 | 0.00 | 0.00 | 82 | 1014.1 |
| 20260508164358 | 59 | 217 | 0.0 | 3.0 | 0.00 | 0.00 | 0.00 | 71 | 1011.9 |
| 20260508164345 | 65 | 204 | 5.0 | 9.0 | 0.00 | 0.20 | 0.00 | 82 | 1007.9 |
| 20260508164338 | 71 | 30 | 0.0 | 4.0 | 0.00 | 0.00 | 0.00 | 50 | 1013.6 |
| 20260508164332 | 73 | 130 | 1.0 | 5.0 | 0.00 | 0.00 | 0.00 | 64 | 1014.4 |
| 20260508164330 | 71 | 214 | 4.0 | 10.0 | 0.00 | 0.00 | 0.00 | 56 | 1013.1 |
| 20260508164312 | 62 | 47 | 4.0 | 5.0 | 0.00 | 0.00 | 0.00 | 81 | 1014.1 |
| 20260508163901 | 59 | 203 | 0.0 | 3.0 | 0.00 | 0.00 | 0.00 | 70 | 1011.8 |
| 20260508163845 | 65 | 198 | 1.0 | 9.0 | 0.00 | 0.20 | 0.00 | 82 | 1008.0 |
| 20260508163838 | 71 | 310 | 0.0 | 1.0 | 0.00 | 0.00 | 0.00 | 49 | 1013.7 |
| 20260508163835 | 67 | 34 | 2.0 | 4.0 | 0.00 | 0.00 | 0.00 | 64 | 1011.7 |
| 20260508163833 | 72 | 215 | 3.0 | 7.0 | 0.00 | 0.00 | 0.00 | 56 | 1013.0 |
| 20260508163812 | 62 | 98 | 0.0 | 4.0 | 0.00 | 0.00 | 0.00 | 81 | 1014.0 |
| 20260508163358 | 60 | 175 | 2.0 | 4.0 | 0.00 | 0.00 | 0.00 | 70 | 1011.8 |
| 20260508163351 | 65 | 162 | 3.0 | 9.0 | 0.00 | 0.20 | 0.00 | 82 | 1007.9 |
| 20260508163345 | 71 | 97 | 0.0 | 0.0 | 0.00 | 0.00 | 0.00 | 60 | 1011.5 |
| 20260508163340 | 71 | 9 | 0.0 | 10.0 | 0.00 | 0.00 | 0.00 | 49 | 1013.5 |
| 20260508163338 | 74 | 156 | 2.0 | 7.0 | 0.00 | 0.00 | 0.00 | 64 | 1014.4 |
| 20260508163333 | 67 | 63 | 2.0 | 5.0 | 0.00 | 0.00 | 0.00 | 65 | 1011.7 |
| 20260508163331 | 72 | 238 | 3.0 | 9.0 | 0.00 | 0.00 | 0.00 | 56 | 1012.9 |
| 20260508163312 | 62 | 117 | 0.0 | 1.0 | 0.00 | 0.00 | 0.00 | 81 | 1013.9 |
| 20260508162908 | 60 | 162 | 0.0 | 4.0 | 0.00 | 0.00 | 0.00 | 70 | 1011.8 |
| 20260508162848 | 65 | 198 | 7.0 | 9.0 | 0.00 | 0.20 | 0.00 | 82 | 1007.8 |
| 20260508162841 | 72 | 350 | 0.0 | 7.0 | 0.00 | 0.00 | 0.00 | 49 | 1013.5 |
| 20260508162832 | 67 | 36 | 2.0 | 5.0 | 0.00 | 0.00 | 0.00 | 65 | 1011.7 |
| 20260508162830 | 72 | 213 | 9.0 | 10.0 | 0.00 | 0.00 | 0.00 | 56 | 1012.9 |
| 20260508162820 | 62 | 117 | 0.0 | 4.0 | 0.00 | 0.00 | 0.00 | 81 | 1013.9 |
| 20260508162358 | 60 | 160 | 1.0 | 5.0 | 0.00 | 0.00 | 0.00 | 69 | 1011.8 |
| 20260508162349 | 66 | 200 | 5.0 | 12.0 | 0.00 | 0.20 | 0.00 | 81 | 1007.8 |
| 20260508162338 | 71 | 342 | 2.0 | 9.0 | 0.00 | 0.00 | 0.00 | 49 | 1013.5 |
| 20260508162330 | 71 | 210 | 0.0 | 8.0 | 0.00 | 0.00 | 0.00 | 58 | 1012.9 |
| 20260508162312 | 62 | 117 | 1.0 | 3.0 | 0.00 | 0.00 | 0.00 | 81 | 1013.9 |
| 20260508161858 | 60 | 198 | 1.0 | 3.0 | 0.00 | 0.00 | 0.00 | 70 | 1011.8 |
| 20260508161852 | 71 | 106 | 0.0 | 0.0 | 0.00 | 0.00 | 0.00 | 58 | 1011.5 |
| 20260508161846 | 66 | 194 | 5.0 | 11.0 | 0.00 | 0.20 | 0.00 | 81 | 1007.8 |
| 20260508161838 | 71 | 0 | 6.0 | 9.0 | 0.00 | 0.00 | 0.00 | 49 | 1013.5 |
| 20260508161835 | 67 | 40 | 4.0 | 5.0 | 0.00 | 0.00 | 0.00 | 66 | 1011.6 |
| 20260508161832 | 74 | 123 | 4.0 | 7.0 | 0.00 | 0.00 | 0.00 | 62 | 1014.4 |
| 20260508161827 | 71 | 233 | 5.0 | 9.0 | 0.00 | 0.00 | 0.00 | 57 | 1012.9 |
| 20260508161812 | 62 | 117 | 0.0 | 4.0 | 0.00 | 0.00 | 0.00 | 81 | 1013.9 |
| 20260508161401 | 60 | 180 | 0.0 | 5.0 | 0.00 | 0.00 | 0.00 | 69 | 1011.8 |
| 20260508161346 | 71 | 350 | 2.0 | 7.0 | 0.00 | 0.00 | 0.00 | 49 | 1013.4 |
| 20260508161332 | 74 | 248 | 1.0 | 4.0 | 0.00 | 0.00 | 0.00 | 62 | 1014.4 |
| 20260508161329 | 67 | 34 | 3.0 | 7.0 | 0.00 | 0.00 | 0.00 | 66 | 1011.7 |
| 20260508161327 | 72 | 218 | 6.0 | 9.0 | 0.00 | 0.00 | 0.00 | 57 | 1012.9 |
| 20260508161312 | 62 | 148 | 2.0 | 3.0 | 0.00 | 0.00 | 0.00 | 81 | 1013.8 |
| 20260508160858 | 60 | 160 | 1.0 | 5.0 | 0.00 | 0.00 | 0.00 | 69 | 1011.7 |
| 20260508160848 | 66 | 200 | 2.0 | 11.0 | 0.00 | 0.20 | 0.00 | 80 | 1007.9 |
| 20260508160838 | 71 | 346 | 1.0 | 5.0 | 0.00 | 0.00 | 0.00 | 49 | 1013.3 |
| 20260508160829 | 67 | 42 | 4.0 | 7.0 | 0.00 | 0.00 | 0.00 | 65 | 1011.7 |
| 20260508160827 | 72 | 187 | 6.0 | 10.0 | 0.00 | 0.00 | 0.00 | 56 | 1012.9 |
| 20260508160817 | 62 | 149 | 0.0 | 2.0 | 0.00 | 0.00 | 0.00 | 81 | 1013.8 |
| 20260508160358 | 60 | 173 | 2.0 | 6.0 | 0.00 | 0.00 | 0.00 | 69 | 1011.7 |
| 20260508160346 | 66 | 162 | 5.0 | 10.0 | 0.00 | 0.20 | 0.00 | 80 | 1007.8 |
| 20260508160338 | 71 | 320 | 6.0 | 11.0 | 0.00 | 0.00 | 0.00 | 48 | 1013.2 |
| 20260508160332 | 73 | 124 | 1.0 | 2.0 | 0.00 | 0.00 | 0.00 | 65 | 1014.3 |
| 20260508160330 | 67 | 74 | 2.0 | 6.0 | 0.00 | 0.00 | 0.00 | 65 | 1011.7 |
| 20260508160327 | 72 | 220 | 5.0 | 11.0 | 0.00 | 0.00 | 0.00 | 55 | 1012.8 |
| 20260508160316 | 62 | 148 | 0.0 | 5.0 | 0.00 | 0.00 | 0.00 | 81 | 1013.8 |
| 20260508155858 | 60 | 171 | 4.0 | 5.0 | 0.00 | 0.00 | 0.00 | 68 | 1011.6 |
| 20260508155851 | 66 | 229 | 6.0 | 11.0 | 0.00 | 0.20 | 0.00 | 80 | 1007.8 |
| 20260508155843 | 72 | 29 | 8.0 | 9.0 | 0.00 | 0.00 | 0.00 | 48 | 1013.2 |
| 20260508155836 | 67 | 76 | 4.0 | 5.0 | 0.00 | 0.00 | 0.00 | 65 | 1011.6 |
| 20260508155833 | 72 | 223 | 4.0 | 11.0 | 0.00 | 0.00 | 0.00 | 54 | 1012.7 |
| 20260508155815 | 62 | 115 | 3.0 | 3.0 | 0.00 | 0.00 | 0.00 | 82 | 1013.8 |
| 20260508155402 | 60 | 198 | 3.0 | 4.0 | 0.00 | 0.00 | 0.00 | 69 | 1011.6 |
| 20260508155345 | 67 | 200 | 10.0 | 11.0 | 0.00 | 0.20 | 0.00 | 80 | 1007.6 |
| 20260508155338 | 72 | 25 | 0.0 | 6.0 | 0.00 | 0.00 | 0.00 | 49 | 1013.2 |
| 20260508155335 | 73 | 116 | 0.0 | 3.0 | 0.00 | 0.00 | 0.00 | 64 | 1014.2 |
| 20260508155329 | 67 | 16 | 0.0 | 7.0 | 0.00 | 0.00 | 0.00 | 65 | 1011.6 |
| 20260508155327 | 72 | 222 | 8.0 | 11.0 | 0.00 | 0.00 | 0.00 | 54 | 1012.7 |
| 20260508155312 | 62 | 108 | 2.0 | 4.0 | 0.00 | 0.00 | 0.00 | 82 | 1013.9 |
| 20260508154907 | 60 | 180 | 0.0 | 6.0 | 0.00 | 0.00 | 0.00 | 69 | 1011.6 |
| 20260508154846 | 67 | 215 | 7.0 | 9.0 | 0.00 | 0.20 | 0.00 | 80 | 1007.5 |
| 20260508154838 | 73 | 119 | 1.0 | 6.0 | 0.00 | 0.00 | 0.00 | 64 | 1014.1 |
| 20260508154833 | 72 | 203 | 7.0 | 10.0 | 0.00 | 0.00 | 0.00 | 54 | 1012.7 |
| 20260508154829 | 67 | 30 | 7.0 | 8.0 | 0.00 | 0.00 | 0.00 | 65 | 1011.6 |
| 20260508154813 | 62 | 96 | 4.0 | 6.0 | 0.00 | 0.00 | 0.00 | 81 | 1013.9 |
| 20260508154401 | 60 | 161 | 4.0 | 5.0 | 0.00 | 0.00 | 0.00 | 69 | 1011.6 |
| 20260508154345 | 67 | 211 | 3.0 | 9.0 | 0.00 | 0.20 | 0.00 | 80 | 1007.6 |
| 20260508154338 | 72 | 5 | 0.0 | 9.0 | 0.00 | 0.00 | 0.00 | 47 | 1013.2 |
| 20260508154335 | 73 | 177 | 2.0 | 8.0 | 0.00 | 0.00 | 0.00 | 64 | 1014.1 |
| 20260508154332 | 68 | 36 | 8.0 | 10.0 | 0.00 | 0.00 | 0.00 | 65 | 1011.6 |
| 20260508154327 | 73 | 222 | 6.0 | 10.0 | 0.00 | 0.00 | 0.00 | 53 | 1012.7 |
| 20260508154313 | 62 | 99 | 1.0 | 6.0 | 0.00 | 0.00 | 0.00 | 81 | 1013.9 |
| 20260508153904 | 60 | 171 | 0.0 | 5.0 | 0.00 | 0.00 | 0.00 | 70 | 1011.5 |
| 20260508153852 | 67 | 233 | 9.0 | 10.0 | 0.00 | 0.20 | 0.00 | 80 | 1007.6 |
| 20260508153832 | 74 | 130 | 4.0 | 6.0 | 0.00 | 0.00 | 0.00 | 64 | 1014.1 |
| 20260508153830 | 73 | 202 | 4.0 | 9.0 | 0.00 | 0.00 | 0.00 | 52 | 1012.6 |
| 20260508153821 | 61 | 136 | 7.0 | 7.0 | 0.00 | 0.00 | 0.00 | 82 | 1014.0 |
| 20260508153404 | 60 | 117 | 2.0 | 3.0 | 0.00 | 0.00 | 0.00 | 69 | 1011.5 |
| 20260508153348 | 71 | 103 | 0.0 | 0.0 | 0.00 | 0.00 | 0.00 | 61 | 1011.5 |
| 20260508153339 | 68 | 32 | 2.0 | 7.0 | 0.00 | 0.00 | 0.00 | 66 | 1011.5 |
| 20260508153333 | 73 | 235 | 5.0 | 8.0 | 0.00 | 0.00 | 0.00 | 52 | 1012.6 |
| 20260508153315 | 61 | 86 | 2.0 | 9.0 | 0.00 | 0.00 | 0.00 | 82 | 1013.9 |
| 20260508152901 | 60 | 135 | 1.0 | 7.0 | 0.00 | 0.00 | 0.00 | 70 | 1011.6 |
| 20260508152849 | 67 | 216 | 7.0 | 9.0 | 0.00 | 0.20 | 0.00 | 81 | 1007.5 |
| 20260508152835 | 74 | 134 | 1.0 | 9.0 | 0.00 | 0.00 | 0.00 | 63 | 1014.1 |
| 20260508152830 | 73 | 256 | 3.0 | 9.0 | 0.00 | 0.00 | 0.00 | 54 | 1012.6 |
| 20260508152813 | 61 | 98 | 6.0 | 9.0 | 0.00 | 0.00 | 0.00 | 83 | 1014.0 |
| 20260508152358 | 60 | 161 | 1.0 | 6.0 | 0.00 | 0.00 | 0.00 | 69 | 1011.5 |
| 20260508152346 | 67 | 163 | 3.0 | 7.0 | 0.00 | 0.20 | 0.00 | 81 | 1007.5 |
| 20260508152335 | 74 | 110 | 3.0 | 7.0 | 0.00 | 0.00 | 0.00 | 65 | 1014.1 |
| 20260508152333 | 68 | 310 | 3.0 | 8.0 | 0.00 | 0.00 | 0.00 | 66 | 1011.5 |
| 20260508152327 | 73 | 244 | 5.0 | 8.0 | 0.00 | 0.00 | 0.00 | 53 | 1012.6 |
| 20260508152318 | 62 | 92 | 3.0 | 9.0 | 0.00 | 0.00 | 0.00 | 84 | 1014.0 |
| 20260508151858 | 60 | 117 | 4.0 | 5.0 | 0.00 | 0.00 | 0.00 | 71 | 1011.5 |
| 20260508151848 | 68 | 219 | 7.0 | 11.0 | 0.00 | 0.20 | 0.00 | 80 | 1007.4 |
| 20260508151845 | 71 | 104 | 0.0 | 0.0 | 0.00 | 0.00 | 0.00 | 62 | 1011.4 |
| 20260508151835 | 74 | 104 | 3.0 | 9.0 | 0.00 | 0.00 | 0.00 | 62 | 1014.2 |
| 20260508151829 | 68 | 299 | 2.0 | 11.0 | 0.00 | 0.00 | 0.00 | 66 | 1011.5 |
| 20260508151827 | 73 | 227 | 4.0 | 8.0 | 0.00 | 0.00 | 0.00 | 54 | 1012.5 |
| 20260508151822 | 62 | 104 | 4.0 | 13.0 | 0.00 | 0.00 | 0.00 | 84 | 1014.0 |
| 20260508151402 | 60 | 194 | 2.0 | 3.0 | 0.00 | 0.00 | 0.00 | 70 | 1011.6 |
| 20260508151345 | 68 | 217 | 6.0 | 8.0 | 0.00 | 0.20 | 0.00 | 81 | 1007.5 |
| 20260508151336 | 73 | 210 | 4.0 | 8.0 | 0.00 | 0.00 | 0.00 | 52 | 1012.6 |
| 20260508151330 | 68 | 339 | 5.0 | 9.0 | 0.00 | 0.00 | 0.00 | 65 | 1011.5 |
| 20260508151312 | 62 | 66 | 8.0 | 10.0 | 0.00 | 0.00 | 0.00 | 83 | 1013.9 |
| 20260508150858 | 61 | 138 | 3.0 | 4.0 | 0.00 | 0.00 | 0.00 | 70 | 1011.5 |
| 20260508150851 | 67 | 214 | 4.0 | 8.0 | 0.00 | 0.20 | 0.00 | 82 | 1007.4 |
| 20260508150835 | 74 | 121 | 5.0 | 8.0 | 0.00 | 0.00 | 0.00 | 63 | 1014.2 |
| 20260508150830 | 68 | 346 | 3.0 | 8.0 | 0.00 | 0.00 | 0.00 | 66 | 1011.5 |
| 20260508150827 | 73 | 229 | 4.0 | 9.0 | 0.00 | 0.00 | 0.00 | 52 | 1012.6 |
| 20260508150815 | 61 | 56 | 7.0 | 13.0 | 0.00 | 0.00 | 0.00 | 84 | 1013.9 |
| 20260508150404 | 61 | 125 | 0.0 | 3.0 | 0.00 | 0.00 | 0.00 | 70 | 1011.6 |
| 20260508150354 | 67 | 210 | 5.0 | 11.0 | 0.00 | 0.20 | 0.00 | 81 | 1007.4 |
| 20260508150348 | 72 | 105 | 0.0 | 0.0 | 0.00 | 0.00 | 0.00 | 58 | 1011.3 |
| 20260508150341 | 74 | 126 | 1.0 | 6.0 | 0.00 | 0.00 | 0.00 | 62 | 1014.3 |
| 20260508150330 | 68 | 45 | 6.0 | 7.0 | 0.00 | 0.00 | 0.00 | 65 | 1011.5 |
| 20260508150312 | 62 | 53 | 9.0 | 13.0 | 0.00 | 0.00 | 0.00 | 83 | 1013.8 |
| 20260508145858 | 61 | 169 | 2.0 | 4.0 | 0.00 | 0.00 | 0.00 | 68 | 1011.6 |
| 20260508145846 | 67 | 170 | 3.0 | 8.0 | 0.00 | 0.20 | 0.00 | 82 | 1007.5 |
| 20260508145835 | 74 | 155 | 0.0 | 3.0 | 0.00 | 0.00 | 0.00 | 62 | 1014.3 |
| 20260508145830 | 68 | 310 | 4.0 | 10.0 | 0.00 | 0.00 | 0.00 | 65 | 1011.6 |
| 20260508145818 | 61 | 69 | 9.0 | 11.0 | 0.00 | 0.00 | 0.00 | 83 | 1013.8 |
| 20260508145358 | 61 | 144 | 2.0 | 5.0 | 0.00 | 0.00 | 0.00 | 69 | 1011.5 |
| 20260508145345 | 67 | 224 | 7.0 | 11.0 | 0.00 | 0.20 | 0.00 | 81 | 1007.5 |
| 20260508145332 | 73 | 153 | 2.0 | 3.0 | 0.00 | 0.00 | 0.00 | 63 | 1014.3 |
| 20260508145330 | 68 | 317 | 8.0 | 9.0 | 0.00 | 0.00 | 0.00 | 65 | 1011.6 |
| 20260508145313 | 62 | 38 | 7.0 | 10.0 | 0.00 | 0.00 | 0.00 | 83 | 1013.8 |
| 20260508144902 | 61 | 138 | 2.0 | 3.0 | 0.00 | 0.00 | 0.00 | 70 | 1011.6 |
| 20260508144848 | 67 | 188 | 2.0 | 9.0 | 0.00 | 0.20 | 0.00 | 82 | 1007.5 |
| 20260508144845 | 72 | 100 | 0.0 | 0.0 | 0.00 | 0.00 | 0.00 | 62 | 1011.4 |
| 20260508144835 | 73 | 109 | 2.0 | 4.0 | 0.00 | 0.00 | 0.00 | 63 | 1014.4 |
| 20260508144831 | 67 | 324 | 1.0 | 11.0 | 0.00 | 0.00 | 0.00 | 65 | 1011.5 |
| 20260508144827 | 73 | 234 | 5.0 | 11.0 | 0.00 | 0.00 | 0.00 | 52 | 1012.6 |
| 20260508144812 | 62 | 77 | 9.0 | 13.0 | 0.00 | 0.00 | 0.00 | 83 | 1013.8 |
| 20260508144358 | 61 | 187 | 2.0 | 5.0 | 0.00 | 0.00 | 0.00 | 70 | 1011.6 |
| 20260508144354 | 67 | 237 | 2.0 | 12.0 | 0.00 | 0.20 | 0.00 | 81 | 1007.5 |
| 20260508144332 | 73 | 119 | 3.0 | 3.0 | 0.00 | 0.00 | 0.00 | 61 | 1014.4 |
| 20260508144330 | 67 | 300 | 6.0 | 8.0 | 0.00 | 0.00 | 0.00 | 65 | 1011.6 |
| 20260508144327 | 73 | 191 | 5.0 | 8.0 | 0.00 | 0.00 | 0.00 | 53 | 1012.6 |
| 20260508144315 | 62 | 52 | 10.0 | 13.0 | 0.00 | 0.00 | 0.00 | 82 | 1013.8 |
| 20260508143904 | 60 | 198 | 2.0 | 6.0 | 0.00 | 0.00 | 0.00 | 70 | 1011.6 |
| 20260508143849 | 67 | 218 | 4.0 | 9.0 | 0.00 | 0.20 | 0.00 | 81 | 1007.3 |
| 20260508143835 | 73 | 118 | 0.0 | 2.0 | 0.00 | 0.00 | 0.00 | 61 | 1014.5 |
| 20260508143830 | 67 | 329 | 6.0 | 11.0 | 0.00 | 0.00 | 0.00 | 64 | 1011.6 |
| 20260508143827 | 73 | 205 | 6.0 | 9.0 | 0.00 | 0.00 | 0.00 | 53 | 1012.7 |
| 20260508143818 | 61 | 74 | 8.0 | 13.0 | 0.00 | 0.00 | 0.00 | 82 | 1013.8 |
| 20260508143401 | 61 | 169 | 1.0 | 4.0 | 0.00 | 0.00 | 0.00 | 69 | 1011.7 |
| 20260508143345 | 71 | 101 | 0.0 | 0.0 | 0.00 | 0.00 | 0.00 | 64 | 1011.5 |
| 20260508143339 | 67 | 26 | 3.0 | 10.0 | 0.00 | 0.00 | 0.00 | 65 | 1011.6 |
| 20260508143335 | 73 | 119 | 0.0 | 4.0 | 0.00 | 0.00 | 0.00 | 61 | 1014.5 |
| 20260508143327 | 74 | 218 | 4.0 | 9.0 | 0.00 | 0.00 | 0.00 | 50 | 1012.6 |
| 20260508143318 | 62 | 72 | 11.0 | 13.0 | 0.00 | 0.00 | 0.00 | 82 | 1013.8 |
| 20260508142907 | 61 | 140 | 4.0 | 7.0 | 0.00 | 0.00 | 0.00 | 68 | 1011.7 |
| 20260508142848 | 67 | 221 | 3.0 | 10.0 | 0.00 | 0.20 | 0.00 | 81 | 1007.2 |
| 20260508142832 | 74 | 113 | 4.0 | 7.0 | 0.00 | 0.00 | 0.00 | 61 | 1014.6 |
| 20260508142830 | 67 | 257 | 5.0 | 10.0 | 0.00 | 0.00 | 0.00 | 64 | 1011.8 |
| 20260508142827 | 74 | 249 | 4.0 | 8.0 | 0.00 | 0.00 | 0.00 | 53 | 1012.6 |
| 20260508142817 | 62 | 55 | 10.0 | 14.0 | 0.00 | 0.00 | 0.00 | 81 | 1013.8 |
| 20260508142401 | 62 | 244 | 2.0 | 6.0 | 0.00 | 0.00 | 0.00 | 69 | 1011.7 |
| 20260508142348 | 67 | 181 | 2.0 | 8.0 | 0.00 | 0.20 | 0.00 | 81 | 1007.2 |
| 20260508142336 | 67 | 284 | 4.0 | 9.0 | 0.00 | 0.00 | 0.00 | 64 | 1011.8 |
| 20260508142332 | 74 | 238 | 2.0 | 7.0 | 0.00 | 0.00 | 0.00 | 62 | 1014.5 |
| 20260508142327 | 74 | 179 | 9.0 | 12.0 | 0.00 | 0.00 | 0.00 | 51 | 1012.6 |
| 20260508142312 | 62 | 49 | 9.0 | 13.0 | 0.00 | 0.00 | 0.00 | 81 | 1013.7 |
| 20260508142308 | 70 | 107 | 6.0 | 9.0 | 0.00 | 0.00 | 0.00 | 49 | 1051.9 |
| 20260508141859 | 62 | 183 | 2.0 | 7.0 | 0.00 | 0.00 | 0.00 | 69 | 1011.7 |
| 20260508141851 | 71 | 97 | 0.0 | 0.0 | 0.00 | 0.00 | 0.00 | 63 | 1011.5 |
| 20260508141848 | 67 | 226 | 2.0 | 10.0 | 0.00 | 0.20 | 0.00 | 81 | 1007.2 |
| 20260508141838 | 74 | 144 | 3.0 | 5.0 | 0.00 | 0.00 | 0.00 | 62 | 1014.6 |
| 20260508141833 | 67 | 300 | 4.0 | 11.0 | 0.00 | 0.00 | 0.00 | 64 | 1011.8 |
| 20260508141827 | 74 | 214 | 3.0 | 9.0 | 0.00 | 0.00 | 0.00 | 51 | 1012.7 |
| 20260508141808 | 71 | 107 | 9.0 | 9.0 | 0.00 | 0.00 | 0.00 | 45 | 1051.9 |
| 20260508141358 | 61 | 227 | 3.0 | 8.0 | 0.00 | 0.00 | 0.00 | 69 | 1011.7 |
| 20260508141345 | 67 | 219 | 5.0 | 9.0 | 0.00 | 0.20 | 0.00 | 82 | 1007.2 |
| 20260508141332 | 74 | 157 | 1.0 | 4.0 | 0.00 | 0.00 | 0.00 | 61 | 1014.6 |
| 20260508141330 | 67 | 86 | 4.0 | 7.0 | 0.00 | 0.00 | 0.00 | 64 | 1011.7 |
| 20260508141327 | 74 | 217 | 6.0 | 12.0 | 0.00 | 0.00 | 0.00 | 51 | 1012.7 |
| 20260508141308 | 71 | 89 | 4.0 | 9.0 | 0.00 | 0.00 | 0.00 | 47 | 1052.0 |
| 20260508140904 | 61 | 143 | 4.0 | 7.0 | 0.00 | 0.00 | 0.00 | 70 | 1011.7 |
| 20260508140846 | 67 | 193 | 6.0 | 10.0 | 0.00 | 0.20 | 0.00 | 82 | 1007.2 |
| 20260508140833 | 67 | 78 | 3.0 | 9.0 | 0.00 | 0.00 | 0.00 | 66 | 1011.6 |
| 20260508140827 | 74 | 206 | 9.0 | 13.0 | 0.00 | 0.00 | 0.00 | 51 | 1012.7 |
| 20260508140808 | 71 | 119 | 5.0 | 10.0 | 0.00 | 0.00 | 0.00 | 47 | 1051.9 |
| 20260508140401 | 61 | 181 | 4.0 | 6.0 | 0.00 | 0.00 | 0.00 | 69 | 1011.7 |
| 20260508140349 | 72 | 108 | 0.0 | 0.0 | 0.00 | 0.00 | 0.00 | 61 | 1011.5 |
| 20260508140338 | 73 | 149 | 0.0 | 4.0 | 0.00 | 0.00 | 0.00 | 62 | 1014.6 |
| 20260508140330 | 62 | 47 | 14.0 | 14.0 | 0.00 | 0.00 | 0.00 | 81 | 1013.7 |
| 20260508140308 | 70 | 153 | 5.0 | 10.0 | 0.00 | 0.00 | 0.00 | 47 | 1052.1 |
| 20260508135904 | 61 | 184 | 3.0 | 5.0 | 0.00 | 0.00 | 0.00 | 70 | 1011.8 |
| 20260508135849 | 67 | 206 | 4.0 | 9.0 | 0.00 | 0.20 | 0.00 | 82 | 1007.3 |
| 20260508135841 | 73 | 141 | 0.0 | 6.0 | 0.00 | 0.00 | 0.00 | 63 | 1014.7 |
| 20260508135836 | 67 | 23 | 2.0 | 9.0 | 0.00 | 0.00 | 0.00 | 65 | 1011.5 |
| 20260508135830 | 62 | 54 | 11.0 | 14.0 | 0.00 | 0.00 | 0.00 | 78 | 1013.7 |
| 20260508135827 | 74 | 258 | 3.0 | 12.0 | 0.00 | 0.00 | 0.00 | 50 | 1012.7 |
| 20260508135814 | 70 | 175 | 4.0 | 9.0 | 0.00 | 0.00 | 0.00 | 47 | 1052.1 |
| 20260508135401 | 61 | 117 | 3.0 | 10.0 | 0.00 | 0.00 | 0.00 | 68 | 1011.8 |
| 20260508135351 | 67 | 158 | 4.0 | 9.0 | 0.00 | 0.20 | 0.00 | 82 | 1007.3 |
| 20260508135334 | 67 | 324 | 7.0 | 12.0 | 0.00 | 0.00 | 0.00 | 65 | 1011.5 |
| 20260508135332 | 73 | 109 | 3.0 | 6.0 | 0.00 | 0.00 | 0.00 | 63 | 1014.7 |
| 20260508135330 | 74 | 195 | 6.0 | 13.0 | 0.00 | 0.00 | 0.00 | 50 | 1012.8 |
| 20260508135308 | 71 | 65 | 6.0 | 9.0 | 0.00 | 0.00 | 0.00 | 49 | 1052.2 |
| 20260508134858 | 62 | 138 | 3.0 | 9.0 | 0.00 | 0.00 | 0.00 | 70 | 1011.8 |
| 20260508134849 | 73 | 101 | 0.0 | 0.0 | 0.00 | 0.00 | 0.00 | 57 | 1011.6 |
| 20260508134845 | 67 | 173 | 4.0 | 8.0 | 0.00 | 0.20 | 0.00 | 83 | 1007.2 |
| 20260508134838 | 63 | 63 | 6.0 | 14.0 | 0.00 | 0.00 | 0.00 | 76 | 1013.6 |
| 20260508134830 | 68 | 302 | 5.0 | 10.0 | 0.00 | 0.00 | 0.00 | 65 | 1011.5 |
| 20260508134827 | 74 | 216 | 5.0 | 12.0 | 0.00 | 0.00 | 0.00 | 51 | 1012.7 |
| 20260508134811 | 72 | 105 | 7.0 | 9.0 | 0.00 | 0.00 | 0.00 | 53 | 1052.3 |
| 20260508134401 | 61 | 132 | 0.0 | 7.0 | 0.00 | 0.00 | 0.00 | 68 | 1011.9 |
| 20260508134346 | 66 | 166 | 3.0 | 7.0 | 0.00 | 0.20 | 0.00 | 84 | 1007.2 |
| 20260508134336 | 63 | 58 | 9.0 | 12.0 | 0.00 | 0.00 | 0.00 | 75 | 1013.5 |
| 20260508134332 | 73 | 94 | 3.0 | 4.0 | 0.00 | 0.00 | 0.00 | 61 | 1014.9 |
| 20260508134330 | 68 | 280 | 1.0 | 12.0 | 0.00 | 0.00 | 0.00 | 64 | 1011.5 |
| 20260508134327 | 74 | 217 | 9.0 | 16.0 | 0.00 | 0.00 | 0.00 | 51 | 1012.9 |
| 20260508134308 | 72 | 161 | 2.0 | 9.0 | 0.00 | 0.01 | 0.00 | 53 | 1052.3 |
| 20260508133902 | 61 | 217 | 1.0 | 7.0 | 0.00 | 0.00 | 0.00 | 69 | 1011.9 |
| 20260508133845 | 66 | 190 | 5.0 | 7.0 | 0.00 | 0.20 | 0.00 | 84 | 1007.2 |
| 20260508133837 | 73 | 80 | 3.0 | 8.0 | 0.00 | 0.00 | 0.00 | 61 | 1015.0 |
| 20260508133833 | 68 | 5 | 4.0 | 10.0 | 0.00 | 0.00 | 0.00 | 64 | 1011.5 |
| 20260508133830 | 63 | 52 | 11.0 | 15.0 | 0.00 | 0.00 | 0.00 | 71 | 1013.7 |
| 20260508133827 | 74 | 215 | 5.0 | 12.0 | 0.00 | 0.00 | 0.00 | 50 | 1012.9 |
| 20260508133811 | 71 | 84 | 4.0 | 8.0 | 0.00 | 0.01 | 0.00 | 53 | 1055.7 |
| 20260508133401 | 61 | 127 | 2.0 | 9.0 | 0.00 | 0.00 | 0.00 | 68 | 1012.0 |
| 20260508133348 | 73 | 94 | 0.0 | 0.0 | 0.00 | 0.00 | 0.00 | 59 | 1011.7 |
| 20260508133335 | 73 | 62 | 4.0 | 7.0 | 0.00 | 0.00 | 0.00 | 61 | 1015.0 |
| 20260508133333 | 74 | 246 | 7.0 | 13.0 | 0.00 | 0.00 | 0.00 | 51 | 1012.9 |
| 20260508133330 | 67 | 38 | 2.0 | 7.0 | 0.00 | 0.00 | 0.00 | 64 | 1011.5 |
| 20260508133308 | 71 | 92 | 8.0 | 8.0 | 0.00 | 0.01 | 0.00 | 53 | 1064.5 |
| 20260508132904 | 61 | 134 | 1.0 | 6.0 | 0.00 | 0.00 | 0.00 | 68 | 1012.0 |
| 20260508132846 | 65 | 120 | 3.0 | 7.0 | 0.00 | 0.20 | 0.00 | 85 | 1007.3 |
| 20260508132832 | 73 | 96 | 6.0 | 7.0 | 0.00 | 0.00 | 0.00 | 62 | 1015.1 |
| 20260508132830 | 67 | 22 | 6.0 | 8.0 | 0.00 | 0.00 | 0.00 | 64 | 1011.5 |
| 20260508132827 | 74 | 227 | 5.0 | 10.0 | 0.00 | 0.00 | 0.00 | 51 | 1013.0 |
| 20260508132808 | 71 | 53 | 2.0 | 8.0 | 0.00 | 0.01 | 0.00 | 53 | 1143.2 |
| 20260508132407 | 60 | 175 | 1.0 | 6.0 | 0.00 | 0.00 | 0.00 | 70 | 1012.0 |
| 20260508132346 | 65 | 142 | 4.0 | 7.0 | 0.00 | 0.20 | 0.00 | 86 | 1007.3 |
| 20260508132336 | 67 | 50 | 5.0 | 9.0 | 0.00 | 0.00 | 0.00 | 64 | 1011.5 |
| 20260508132333 | 74 | 235 | 5.0 | 12.0 | 0.00 | 0.00 | 0.00 | 51 | 1013.0 |
| 20260508132330 | 63 | 43 | 10.0 | 13.0 | 0.00 | 0.00 | 0.00 | 71 | 1013.6 |
| 20260508132317 | 71 | 144 | 5.0 | 12.0 | 0.00 | 0.01 | 0.00 | 53 | 1013.2 |
| 20260508131858 | 60 | 121 | 7.0 | 8.0 | 0.00 | 0.00 | 0.00 | 70 | 1012.0 |
| 20260508131850 | 73 | 92 | 0.0 | 0.0 | 0.00 | 0.00 | 0.00 | 63 | 1011.7 |
| 20260508131845 | 65 | 138 | 3.0 | 7.0 | 0.00 | 0.20 | 0.00 | 85 | 1007.4 |
| 20260508131833 | 67 | 325 | 4.0 | 5.0 | 0.00 | 0.00 | 0.00 | 65 | 1011.5 |
| 20260508131830 | 62 | 53 | 11.0 | 13.0 | 0.00 | 0.00 | 0.00 | 78 | 1013.6 |
| 20260508131808 | 71 | 150 | 5.0 | 10.0 | 0.00 | 0.01 | 0.00 | 53 | 1013.3 |
| 20260508131358 | 60 | 101 | 0.0 | 3.0 | 0.00 | 0.00 | 0.00 | 71 | 1012.0 |
| 20260508131345 | 64 | 136 | 3.0 | 8.0 | 0.00 | 0.20 | 0.00 | 86 | 1007.5 |
| 20260508131332 | 73 | 56 | 5.0 | 6.0 | 0.00 | 0.00 | 0.00 | 61 | 1015.2 |
| 20260508131330 | 63 | 46 | 7.0 | 12.0 | 0.00 | 0.00 | 0.00 | 76 | 1013.6 |
| 20260508131327 | 74 | 209 | 11.0 | 12.0 | 0.00 | 0.00 | 0.00 | 51 | 1013.0 |
| 20260508131308 | 71 | 164 | 5.0 | 9.0 | 0.00 | 0.01 | 0.00 | 53 | 1013.2 |
| 20260508130858 | 60 | 89 | 2.0 | 4.0 | 0.00 | 0.00 | 0.00 | 69 | 1012.0 |
| 20260508130845 | 64 | 159 | 5.0 | 8.0 | 0.00 | 0.20 | 0.00 | 86 | 1007.6 |
| 20260508130832 | 73 | 90 | 2.0 | 7.0 | 0.00 | 0.00 | 0.00 | 62 | 1015.3 |
| 20260508130830 | 63 | 40 | 7.0 | 12.0 | 0.00 | 0.00 | 0.00 | 79 | 1013.6 |
| 20260508130827 | 73 | 201 | 9.0 | 12.0 | 0.00 | 0.00 | 0.00 | 52 | 1013.0 |
| 20260508130808 | 71 | 203 | 5.0 | 14.0 | 0.00 | 0.01 | 0.00 | 51 | 1013.2 |
| 20260508130359 | 59 | 126 | 2.0 | 4.0 | 0.00 | 0.00 | 0.00 | 69 | 1012.0 |
| 20260508130351 | 71 | 89 | 0.0 | 0.0 | 0.00 | 0.00 | 0.00 | 62 | 1011.7 |
| 20260508130346 | 64 | 180 | 5.0 | 9.0 | 0.00 | 0.20 | 0.00 | 86 | 1007.5 |
| 20260508130338 | 72 | 93 | 3.0 | 5.0 | 0.00 | 0.00 | 0.00 | 62 | 1015.3 |
| 20260508130333 | 67 | 315 | 4.0 | 10.0 | 0.00 | 0.00 | 0.00 | 65 | 1011.6 |
| 20260508130330 | 63 | 30 | 10.0 | 13.0 | 0.00 | 0.00 | 0.00 | 78 | 1013.6 |
| 20260508130327 | 73 | 233 | 5.0 | 13.0 | 0.00 | 0.00 | 0.00 | 51 | 1013.0 |
| 20260508130308 | 72 | 175 | 4.0 | 10.0 | 0.00 | 0.01 | 0.00 | 52 | 1013.1 |
| 20260508125858 | 60 | 126 | 2.0 | 4.0 | 0.00 | 0.00 | 0.00 | 70 | 1011.9 |
| 20260508125848 | 64 | 112 | 4.0 | 10.0 | 0.00 | 0.20 | 0.00 | 87 | 1007.5 |
| 20260508125836 | 73 | 231 | 6.0 | 12.0 | 0.00 | 0.00 | 0.00 | 52 | 1013.0 |
| 20260508125833 | 67 | 267 | 3.0 | 11.0 | 0.00 | 0.00 | 0.00 | 65 | 1011.6 |
| 20260508125811 | 72 | 156 | 3.0 | 12.0 | 0.00 | 0.01 | 0.00 | 52 | 1013.3 |
| 20260508125358 | 60 | 137 | 0.0 | 3.0 | 0.00 | 0.00 | 0.00 | 70 | 1012.0 |
| 20260508125351 | 63 | 142 | 2.0 | 11.0 | 0.00 | 0.20 | 0.00 | 87 | 1007.6 |
| 20260508125335 | 72 | 100 | 2.0 | 4.0 | 0.00 | 0.00 | 0.00 | 63 | 1015.3 |
| 20260508125333 | 63 | 42 | 9.0 | 13.0 | 0.00 | 0.00 | 0.00 | 74 | 1013.7 |
| 20260508125330 | 66 | 349 | 5.0 | 10.0 | 0.00 | 0.00 | 0.00 | 65 | 1011.6 |
| 20260508125311 | 72 | 136 | 5.0 | 11.0 | 0.00 | 0.01 | 0.00 | 51 | 1013.4 |
| 20260508124858 | 60 | 129 | 3.0 | 5.0 | 0.00 | 0.00 | 0.00 | 71 | 1012.0 |
| 20260508124845 | 72 | 71 | 0.0 | 0.0 | 0.00 | 0.00 | 0.00 | 63 | 1011.7 |
| 20260508124834 | 72 | 123 | 1.0 | 7.0 | 0.00 | 0.00 | 0.00 | 63 | 1015.3 |
| 20260508124830 | 64 | 40 | 11.0 | 13.0 | 0.00 | 0.00 | 0.00 | 75 | 1013.6 |
| 20260508124817 | 71 | 151 | 5.0 | 10.0 | 0.00 | 0.01 | 0.00 | 52 | 1013.5 |
| 20260508124401 | 60 | 115 | 3.0 | 5.0 | 0.00 | 0.00 | 0.00 | 70 | 1011.9 |
| 20260508124345 | 63 | 151 | 5.0 | 11.0 | 0.00 | 0.20 | 0.00 | 87 | 1007.6 |
| 20260508124333 | 67 | 340 | 3.0 | 7.0 | 0.00 | 0.00 | 0.00 | 65 | 1011.8 |
| 20260508124331 | 63 | 57 | 9.0 | 15.0 | 0.00 | 0.00 | 0.00 | 74 | 1013.5 |
| 20260508124327 | 74 | 234 | 8.0 | 11.0 | 0.00 | 0.00 | 0.00 | 51 | 1012.9 |
| 20260508124322 | 75 | 234 | 0.0 | 5.0 | 0.00 | 0.00 | 0.00 | 39 | 1013.6 |
| 20260508124317 | 71 | 132 | 4.0 | 9.0 | 0.00 | 0.01 | 0.00 | 54 | 1013.6 |
| 20260508123904 | 59 | 230 | 1.0 | 3.0 | 0.00 | 0.00 | 0.00 | 71 | 1012.0 |
| 20260508123845 | 62 | 114 | 3.0 | 12.0 | 0.00 | 0.20 | 0.00 | 86 | 1007.6 |
| 20260508123838 | 72 | 71 | 4.0 | 5.0 | 0.00 | 0.00 | 0.00 | 66 | 1015.4 |
| 20260508123831 | 66 | 330 | 4.0 | 7.0 | 0.00 | 0.00 | 0.00 | 64 | 1011.8 |
| 20260508123815 | 70 | 161 | 9.0 | 12.0 | 0.00 | 0.01 | 0.00 | 54 | 1013.5 |
| 20260508123813 | 75 | 163 | 5.0 | 6.0 | 0.00 | 0.00 | 0.00 | 41 | 1013.7 |
| 20260508123402 | 59 | 138 | 2.0 | 5.0 | 0.00 | 0.00 | 0.00 | 72 | 1012.0 |
| 20260508123354 | 72 | 107 | 0.0 | 0.0 | 0.00 | 0.00 | 0.00 | 63 | 1011.8 |
| 20260508123346 | 62 | 143 | 5.0 | 12.0 | 0.00 | 0.20 | 0.00 | 87 | 1007.6 |
| 20260508123341 | 72 | 102 | 6.0 | 7.0 | 0.00 | 0.00 | 0.00 | 65 | 1015.4 |
| 20260508123333 | 64 | 77 | 7.0 | 13.0 | 0.00 | 0.00 | 0.00 | 79 | 1013.4 |
| 20260508123330 | 74 | 235 | 4.0 | 11.0 | 0.00 | 0.00 | 0.00 | 53 | 1013.0 |
| 20260508123316 | 75 | 0 | 3.0 | 6.0 | 0.00 | 0.00 | 0.00 | 39 | 1013.7 |
| 20260508123312 | 71 | 137 | 4.0 | 9.0 | 0.00 | 0.01 | 0.00 | 53 | 1013.5 |
| 20260508122859 | 59 | 111 | 2.0 | 5.0 | 0.00 | 0.00 | 0.00 | 71 | 1012.0 |
| 20260508122851 | 62 | 148 | 1.0 | 9.0 | 0.00 | 0.20 | 0.00 | 87 | 1007.7 |
| 20260508122838 | 73 | 63 | 5.0 | 9.0 | 0.00 | 0.00 | 0.00 | 64 | 1015.4 |
| 20260508122830 | 67 | 263 | 3.0 | 9.0 | 0.00 | 0.00 | 0.00 | 65 | 1011.8 |
| 20260508122827 | 73 | 246 | 9.0 | 12.0 | 0.00 | 0.00 | 0.00 | 52 | 1013.1 |
| 20260508122819 | 75 | 240 | 0.0 | 8.0 | 0.00 | 0.00 | 0.00 | 40 | 1013.8 |
| 20260508122808 | 70 | 153 | 10.0 | 13.0 | 0.00 | 0.01 | 0.00 | 54 | 1013.5 |
| 20260508122358 | 59 | 132 | 4.0 | 7.0 | 0.00 | 0.00 | 0.00 | 70 | 1012.1 |
| 20260508122346 | 62 | 149 | 6.0 | 10.0 | 0.00 | 0.20 | 0.00 | 87 | 1007.6 |
| 20260508122332 | 73 | 121 | 4.0 | 7.0 | 0.00 | 0.00 | 0.00 | 64 | 1015.4 |
| 20260508122330 | 67 | 331 | 3.0 | 12.0 | 0.00 | 0.00 | 0.00 | 64 | 1011.8 |
| 20260508122316 | 75 | 217 | 4.0 | 13.0 | 0.00 | 0.00 | 0.00 | 40 | 1013.9 |
| 20260508122309 | 70 | 146 | 4.0 | 11.0 | 0.00 | 0.04 | 0.00 | 55 | 1013.5 |
| 20260508121905 | 59 | 147 | 2.0 | 4.0 | 0.00 | 0.00 | 0.00 | 72 | 1012.0 |
| 20260508121845 | 71 | 95 | 0.0 | 0.0 | 0.00 | 0.00 | 0.00 | 65 | 1011.8 |
| 20260508121833 | 63 | 67 | 10.0 | 14.0 | 0.00 | 0.00 | 0.00 | 78 | 1013.5 |
| 20260508121830 | 67 | 301 | 7.0 | 7.0 | 0.00 | 0.00 | 0.00 | 64 | 1011.8 |
| 20260508121814 | 70 | 159 | 6.0 | 10.0 | 0.00 | 0.10 | 0.00 | 54 | 1013.5 |
| 20260508121402 | 59 | 119 | 3.0 | 5.0 | 0.00 | 0.00 | 0.00 | 70 | 1012.0 |
| 20260508121348 | 62 | 151 | 3.0 | 8.0 | 0.00 | 0.20 | 0.00 | 87 | 1007.7 |
| 20260508121334 | 67 | 298 | 4.0 | 8.0 | 0.00 | 0.00 | 0.00 | 64 | 1011.7 |
| 20260508121332 | 72 | 79 | 2.0 | 5.0 | 0.00 | 0.00 | 0.00 | 64 | 1015.4 |
| 20260508121316 | 75 | 216 | 3.0 | 10.0 | 0.00 | 0.00 | 0.00 | 41 | 1013.9 |
| 20260508121311 | 70 | 92 | 3.0 | 13.0 | 0.00 | 0.12 | 0.00 | 51 | 1013.5 |
| 20260508120859 | 59 | 126 | 2.0 | 8.0 | 0.00 | 0.00 | 0.00 | 70 | 1012.0 |
| 20260508120846 | 61 | 130 | 6.0 | 9.0 | 0.00 | 0.20 | 0.00 | 88 | 1007.7 |
| 20260508120839 | 67 | 341 | 5.0 | 9.0 | 0.00 | 0.00 | 0.00 | 63 | 1011.7 |
| 20260508120836 | 65 | 42 | 10.0 | 12.0 | 0.00 | 0.00 | 0.00 | 76 | 1013.4 |
| 20260508120832 | 72 | 63 | 4.0 | 7.0 | 0.00 | 0.00 | 0.00 | 66 | 1015.4 |
| 20260508120827 | 73 | 237 | 7.0 | 10.0 | 0.00 | 0.00 | 0.00 | 52 | 1013.1 |
| 20260508120822 | 75 | 150 | 5.0 | 12.0 | 0.00 | 0.00 | 0.00 | 42 | 1013.9 |
| 20260508120808 | 70 | 180 | 5.0 | 12.0 | 0.00 | 0.14 | 0.00 | 52 | 1013.5 |
| 20260508120359 | 59 | 130 | 1.0 | 7.0 | 0.00 | 0.00 | 0.00 | 70 | 1012.0 |
| 20260508120348 | 70 | 312 | 0.0 | 0.0 | 0.00 | 0.00 | 0.00 | 72 | 1011.8 |
| 20260508120345 | 61 | 142 | 4.0 | 9.0 | 0.00 | 0.20 | 0.00 | 88 | 1007.7 |
| 20260508120338 | 72 | 99 | 1.0 | 11.0 | 0.00 | 0.00 | 0.00 | 64 | 1015.4 |
| 20260508120336 | 73 | 221 | 7.0 | 15.0 | 0.00 | 0.00 | 0.00 | 52 | 1013.2 |
| 20260508120330 | 67 | 11 | 3.0 | 9.0 | 0.00 | 0.00 | 0.00 | 63 | 1011.7 |
| 20260508120313 | 74 | 190 | 6.0 | 11.0 | 0.00 | 0.00 | 0.00 | 43 | 1013.9 |
| 20260508120311 | 69 | 137 | 4.0 | 11.0 | 0.00 | 0.17 | 0.00 | 53 | 1013.5 |
| 20260508115858 | 59 | 119 | 4.0 | 8.0 | 0.00 | 0.00 | 0.00 | 70 | 1012.0 |
| 20260508115848 | 61 | 122 | 5.0 | 11.0 | 0.00 | 0.20 | 0.00 | 88 | 1007.7 |
| 20260508115836 | 67 | 329 | 3.0 | 10.0 | 0.00 | 0.00 | 0.00 | 63 | 1011.7 |
| 20260508115832 | 73 | 128 | 3.0 | 8.0 | 0.00 | 0.00 | 0.00 | 64 | 1015.4 |
| 20260508115830 | 64 | 43 | 9.0 | 12.0 | 0.00 | 0.00 | 0.00 | 71 | 1013.4 |
| 20260508115827 | 73 | 175 | 3.0 | 10.0 | 0.00 | 0.00 | 0.00 | 50 | 1013.2 |
| 20260508115816 | 74 | 226 | 4.0 | 6.0 | 0.00 | 0.00 | 0.00 | 41 | 1013.9 |
| 20260508115814 | 70 | 109 | 7.0 | 9.0 | 0.00 | 0.19 | 0.00 | 52 | 1013.5 |
| 20260508115359 | 59 | 128 | 1.0 | 8.0 | 0.00 | 0.00 | 0.00 | 70 | 1012.0 |
| 20260508115352 | 61 | 145 | 10.0 | 10.0 | 0.00 | 0.20 | 0.00 | 88 | 1007.7 |
| 20260508115339 | 64 | 55 | 10.0 | 15.0 | 0.00 | 0.00 | 0.00 | 77 | 1013.3 |
| 20260508115332 | 72 | 151 | 2.0 | 7.0 | 0.00 | 0.00 | 0.00 | 65 | 1015.5 |
| 20260508115327 | 73 | 231 | 5.0 | 10.0 | 0.00 | 0.00 | 0.00 | 53 | 1013.2 |
| 20260508115314 | 71 | 142 | 6.0 | 8.0 | 0.00 | 0.21 | 0.00 | 55 | 1013.6 |
| 20260508114859 | 59 | 109 | 6.0 | 7.0 | 0.00 | 0.00 | 0.00 | 70 | 1012.0 |
| 20260508114849 | 61 | 146 | 4.0 | 14.0 | 0.00 | 0.20 | 0.00 | 88 | 1007.7 |
| 20260508114845 | 69 | 102 | 0.0 | 0.0 | 0.00 | 0.00 | 0.00 | 73 | 1011.8 |
| 20260508114833 | 67 | 32 | 6.0 | 10.0 | 0.00 | 0.00 | 0.00 | 62 | 1011.7 |
| 20260508114830 | 73 | 229 | 3.0 | 12.0 | 0.00 | 0.00 | 0.00 | 55 | 1013.2 |
| 20260508114813 | 75 | 216 | 3.0 | 9.0 | 0.00 | 0.00 | 0.00 | 39 | 1013.9 |
| 20260508114808 | 71 | 130 | 2.0 | 8.0 | 0.00 | 0.21 | 0.00 | 53 | 1013.5 |
| 20260508114359 | 59 | 117 | 3.0 | 7.0 | 0.00 | 0.00 | 0.00 | 69 | 1012.0 |
| 20260508114348 | 61 | 147 | 5.0 | 10.0 | 0.00 | 0.20 | 0.00 | 88 | 1007.7 |
| 20260508114338 | 71 | 125 | 3.0 | 6.0 | 0.00 | 0.00 | 0.00 | 66 | 1015.5 |
| 20260508114336 | 67 | 35 | 6.0 | 9.0 | 0.00 | 0.00 | 0.00 | 61 | 1011.7 |
| 20260508114330 | 73 | 229 | 3.0 | 12.0 | 0.00 | 0.03 | 0.00 | 54 | 1013.2 |
| 20260508114319 | 74 | 193 | 6.0 | 11.0 | 0.00 | 0.00 | 0.00 | 39 | 1013.9 |
| 20260508114311 | 70 | 150 | 5.0 | 10.0 | 0.00 | 0.21 | 0.00 | 53 | 1013.6 |
| 20260508113902 | 59 | 110 | 1.0 | 3.0 | 0.00 | 0.00 | 0.00 | 70 | 1012.1 |
| 20260508113845 | 61 | 122 | 3.0 | 14.0 | 0.01 | 0.20 | 0.00 | 87 | 1007.7 |
| 20260508113833 | 73 | 210 | 6.0 | 13.0 | 0.00 | 0.04 | 0.00 | 52 | 1013.3 |
| 20260508113830 | 64 | 11 | 8.0 | 12.0 | 0.00 | 0.00 | 0.00 | 80 | 1013.3 |
| 20260508113813 | 74 | 186 | 8.0 | 11.0 | 0.00 | 0.00 | 0.00 | 40 | 1014.1 |
| 20260508113359 | 59 | 157 | 1.0 | 7.0 | 0.00 | 0.00 | 0.00 | 70 | 1012.1 |
| 20260508113349 | 61 | 113 | 2.0 | 9.0 | 0.01 | 0.20 | 0.00 | 88 | 1007.7 |
| 20260508113334 | 67 | 338 | 4.0 | 11.0 | 0.00 | 0.00 | 0.00 | 61 | 1011.7 |
| 20260508113332 | 71 | 96 | 1.0 | 4.0 | 0.00 | 0.00 | 0.00 | 67 | 1015.6 |
| 20260508113330 | 63 | 48 | 7.0 | 14.0 | 0.00 | 0.00 | 0.00 | 79 | 1013.3 |
| 20260508113327 | 73 | 202 | 8.0 | 10.0 | 0.00 | 0.04 | 0.00 | 54 | 1013.3 |
| 20260508113316 | 74 | 152 | 4.0 | 12.0 | 0.00 | 0.00 | 0.00 | 42 | 1014.1 |
| 20260508113314 | 71 | 126 | 5.0 | 10.0 | 0.00 | 0.22 | 0.00 | 53 | 1013.6 |
| 20260508112859 | 59 | 127 | 2.0 | 8.0 | 0.00 | 0.00 | 0.00 | 68 | 1012.1 |
| 20260508112848 | 60 | 116 | 8.0 | 15.0 | 0.01 | 0.20 | 0.00 | 88 | 1007.6 |
| 20260508112841 | 71 | 95 | 2.0 | 4.0 | 0.00 | 0.00 | 0.00 | 67 | 1015.7 |
| 20260508112833 | 63 | 56 | 13.0 | 13.0 | 0.00 | 0.00 | 0.00 | 78 | 1013.2 |
| 20260508112827 | 72 | 179 | 8.0 | 11.0 | 0.00 | 0.06 | 0.00 | 52 | 1013.3 |
| 20260508112817 | 71 | 142 | 5.0 | 10.0 | 0.00 | 0.22 | 0.00 | 53 | 1013.5 |
| 20260508112813 | 73 | 149 | 0.0 | 3.0 | 0.00 | 0.00 | 0.00 | 42 | 1014.1 |
| 20260508112405 | 60 | 111 | 8.0 | 8.0 | 0.00 | 0.00 | 0.00 | 67 | 1012.0 |
| 20260508112345 | 60 | 127 | 7.0 | 17.0 | 0.02 | 0.20 | 0.00 | 88 | 1007.6 |
| 20260508112339 | 64 | 42 | 9.0 | 11.0 | 0.00 | 0.00 | 0.00 | 77 | 1013.2 |
| 20260508112332 | 72 | 95 | 4.0 | 9.0 | 0.00 | 0.00 | 0.00 | 67 | 1015.8 |
| 20260508112330 | 67 | 11 | 3.0 | 12.0 | 0.00 | 0.00 | 0.00 | 60 | 1011.7 |
| 20260508112327 | 72 | 207 | 4.0 | 10.0 | 0.00 | 0.07 | 0.00 | 55 | 1013.4 |
| 20260508112313 | 73 | 195 | 1.0 | 5.0 | 0.00 | 0.00 | 0.00 | 44 | 1014.2 |
| 20260508112308 | 71 | 153 | 9.0 | 11.0 | 0.00 | 0.25 | 0.00 | 53 | 1013.6 |
| 20260508111902 | 60 | 150 | 2.0 | 6.0 | 0.00 | 0.00 | 0.00 | 68 | 1012.0 |
| 20260508111845 | 69 | 56 | 0.0 | 0.0 | 0.00 | 0.00 | 0.00 | 75 | 1011.6 |
| 20260508111835 | 72 | 113 | 4.0 | 5.0 | 0.00 | 0.00 | 0.00 | 67 | 1015.8 |
| 20260508111833 | 72 | 209 | 6.0 | 9.0 | 0.00 | 0.07 | 0.00 | 56 | 1013.4 |
| 20260508111830 | 67 | 27 | 6.0 | 11.0 | 0.00 | 0.00 | 0.00 | 59 | 1011.7 |
| 20260508111817 | 70 | 158 | 3.0 | 7.0 | 0.00 | 0.25 | 0.00 | 53 | 1013.6 |
| 20260508111813 | 73 | 181 | 2.0 | 8.0 | 0.00 | 0.00 | 0.00 | 44 | 1014.3 |
| 20260508111359 | 60 | 208 | 1.0 | 4.0 | 0.00 | 0.00 | 0.00 | 70 | 1012.1 |
| 20260508111345 | 60 | 127 | 14.0 | 13.0 | 0.03 | 0.20 | 0.00 | 88 | 1007.6 |
| 20260508111341 | 72 | 109 | 6.0 | 6.0 | 0.00 | 0.00 | 0.00 | 67 | 1015.8 |
| 20260508111330 | 63 | 67 | 9.0 | 11.0 | 0.00 | 0.00 | 0.00 | 79 | 1013.2 |
| 20260508111313 | 73 | 242 | 4.0 | 9.0 | 0.00 | 0.00 | 0.00 | 44 | 1014.3 |
| 20260508111308 | 70 | 113 | 1.0 | 9.0 | 0.00 | 0.25 | 0.00 | 54 | 1013.7 |
| 20260508110859 | 59 | 159 | 0.0 | 7.0 | 0.00 | 0.00 | 0.00 | 71 | 1012.0 |
| 20260508110846 | 60 | 134 | 7.0 | 12.0 | 0.02 | 0.19 | 0.00 | 88 | 1007.6 |
| 20260508110835 | 72 | 56 | 5.0 | 8.0 | 0.00 | 0.00 | 0.00 | 67 | 1015.7 |
| 20260508110833 | 62 | 34 | 8.0 | 13.0 | 0.00 | 0.00 | 0.00 | 79 | 1013.3 |
| 20260508110830 | 72 | 222 | 4.0 | 14.0 | 0.00 | 0.10 | 0.00 | 54 | 1013.6 |
| 20260508110819 | 72 | 217 | 3.0 | 9.0 | 0.00 | 0.00 | 0.00 | 44 | 1014.3 |
| 20260508110814 | 69 | 76 | 3.0 | 7.0 | 0.00 | 0.25 | 0.00 | 55 | 1013.6 |
| 20260508110400 | 59 | 277 | 3.0 | 3.0 | 0.00 | 0.00 | 0.00 | 70 | 1012.0 |
| 20260508110351 | 60 | 123 | 5.0 | 12.0 | 0.03 | 0.19 | 0.00 | 88 | 1007.7 |
| 20260508110345 | 69 | 330 | 0.0 | 0.0 | 0.00 | 0.00 | 0.00 | 75 | 1011.6 |
| 20260508110336 | 63 | 61 | 9.0 | 14.0 | 0.00 | 0.00 | 0.00 | 79 | 1013.2 |
| 20260508110330 | 67 | 0 | 4.0 | 11.0 | 0.00 | 0.00 | 0.00 | 59 | 1011.6 |
| 20260508110327 | 72 | 229 | 10.0 | 13.0 | 0.00 | 0.11 | 0.00 | 55 | 1013.5 |
| 20260508110314 | 69 | 167 | 1.0 | 7.0 | 0.00 | 0.25 | 0.00 | 51 | 1013.6 |
| 20260508105859 | 59 | 126 | 1.0 | 6.0 | 0.00 | 0.00 | 0.00 | 65 | 1012.1 |
| 20260508105846 | 60 | 156 | 5.0 | 11.0 | 0.03 | 0.19 | 0.00 | 88 | 1007.7 |
| 20260508105832 | 71 | 169 | 1.0 | 8.0 | 0.00 | 0.00 | 0.00 | 68 | 1015.8 |
| 20260508105830 | 63 | 71 | 10.0 | 14.0 | 0.00 | 0.00 | 0.00 | 81 | 1013.2 |
| 20260508105827 | 72 | 241 | 5.0 | 10.0 | 0.00 | 0.11 | 0.00 | 55 | 1013.6 |
| 20260508105813 | 71 | 174 | 5.0 | 10.0 | 0.00 | 0.00 | 0.00 | 48 | 1014.3 |
| 20260508105808 | 69 | 103 | 3.0 | 8.0 | 0.00 | 0.25 | 0.00 | 55 | 1013.7 |
| 20260508105359 | 59 | 155 | 1.0 | 6.0 | 0.00 | 0.00 | 0.00 | 66 | 1012.1 |
| 20260508105348 | 60 | 134 | 9.0 | 12.0 | 0.04 | 0.19 | 0.00 | 88 | 1007.7 |
| 20260508105335 | 71 | 110 | 7.0 | 12.0 | 0.00 | 0.00 | 0.00 | 66 | 1016.0 |
| 20260508105333 | 63 | 80 | 8.0 | 13.0 | 0.00 | 0.00 | 0.00 | 80 | 1013.3 |
| 20260508105330 | 67 | 13 | 7.0 | 11.0 | 0.00 | 0.00 | 0.00 | 59 | 1011.8 |
| 20260508105327 | 71 | 256 | 3.0 | 12.0 | 0.00 | 0.11 | 0.00 | 57 | 1013.7 |
| 20260508105316 | 72 | 185 | 3.0 | 8.0 | 0.00 | 0.00 | 0.00 | 48 | 1014.4 |
| 20260508105311 | 69 | 63 | 4.0 | 9.0 | 0.00 | 0.25 | 0.00 | 56 | 1013.7 |
| 20260508104902 | 59 | 120 | 3.0 | 8.0 | 0.00 | 0.00 | 0.00 | 68 | 1012.1 |
| 20260508104851 | 69 | 97 | 0.0 | 0.0 | 0.00 | 0.00 | 0.00 | 75 | 1011.6 |
| 20260508104849 | 60 | 157 | 3.0 | 11.0 | 0.05 | 0.19 | 0.00 | 88 | 1007.6 |
| 20260508104837 | 62 | 46 | 12.0 | 15.0 | 0.00 | 0.00 | 0.00 | 79 | 1013.3 |
| 20260508104832 | 71 | 67 | 6.0 | 9.0 | 0.00 | 0.00 | 0.00 | 67 | 1016.0 |
| 20260508104830 | 71 | 243 | 8.0 | 11.0 | 0.00 | 0.11 | 0.00 | 58 | 1013.7 |
| 20260508104816 | 72 | 144 | 6.0 | 8.0 | 0.00 | 0.02 | 0.00 | 49 | 1014.4 |
| 20260508104808 | 68 | 121 | 5.0 | 8.0 | 0.00 | 0.25 | 0.00 | 55 | 1013.7 |
| 20260508104359 | 59 | 140 | 3.0 | 4.0 | 0.00 | 0.00 | 0.00 | 68 | 1012.1 |
| 20260508104345 | 60 | 79 | 2.0 | 12.0 | 0.06 | 0.19 | 0.00 | 88 | 1007.6 |
| 20260508104336 | 71 | 241 | 7.0 | 9.0 | 0.00 | 0.11 | 0.00 | 59 | 1013.8 |
| 20260508104333 | 63 | 45 | 11.0 | 13.0 | 0.00 | 0.00 | 0.00 | 80 | 1013.3 |
| 20260508104316 | 72 | 196 | 4.0 | 11.0 | 0.00 | 0.02 | 0.00 | 48 | 1014.4 |
| 20260508104308 | 68 | 34 | 5.0 | 9.0 | 0.00 | 0.25 | 0.00 | 55 | 1013.8 |
| 20260508103859 | 59 | 170 | 2.0 | 5.0 | 0.00 | 0.00 | 0.00 | 66 | 1012.1 |
| 20260508103845 | 60 | 178 | 5.0 | 15.0 | 0.06 | 0.18 | 0.00 | 87 | 1007.7 |
| 20260508103839 | 67 | 0 | 9.0 | 11.0 | 0.00 | 0.00 | 0.00 | 59 | 1011.8 |
| 20260508103836 | 63 | 59 | 7.0 | 14.0 | 0.00 | 0.00 | 0.00 | 81 | 1013.2 |
| 20260508103827 | 71 | 236 | 3.0 | 7.0 | 0.00 | 0.11 | 0.00 | 59 | 1013.8 |
| 20260508103816 | 72 | 247 | 0.0 | 9.0 | 0.00 | 0.02 | 0.00 | 47 | 1014.5 |
| 20260508103808 | 69 | 14 | 3.0 | 4.0 | 0.00 | 0.25 | 0.00 | 57 | 1013.8 |
| 20260508103359 | 59 | 165 | 2.0 | 5.0 | 0.00 | 0.00 | 0.00 | 67 | 1012.1 |
| 20260508103351 | 60 | 112 | 8.0 | 14.0 | 0.06 | 0.18 | 0.00 | 87 | 1007.7 |
| 20260508103345 | 70 | 129 | 0.0 | 0.0 | 0.00 | 0.00 | 0.00 | 75 | 1011.6 |
| 20260508103338 | 71 | 95 | 4.0 | 6.0 | 0.00 | 0.00 | 0.00 | 70 | 1016.0 |
| 20260508103331 | 67 | 5 | 5.0 | 11.0 | 0.00 | 0.00 | 0.00 | 58 | 1011.8 |
| 20260508103327 | 71 | 201 | 3.0 | 10.0 | 0.00 | 0.11 | 0.00 | 55 | 1013.8 |
| 20260508103322 | 71 | 127 | 2.0 | 8.0 | 0.00 | 0.02 | 0.00 | 46 | 1014.5 |
| 20260508103310 | 69 | 0 | 2.0 | 6.0 | 0.00 | 0.25 | 0.00 | 57 | 1013.9 |
| 20260508102859 | 59 | 126 | 2.0 | 7.0 | 0.00 | 0.00 | 0.00 | 65 | 1012.1 |
| 20260508102848 | 60 | 106 | 12.0 | 15.0 | 0.06 | 0.18 | 0.00 | 87 | 1007.6 |
| 20260508102838 | 70 | 105 | 4.0 | 9.0 | 0.00 | 0.00 | 0.00 | 70 | 1016.1 |
| 20260508102836 | 67 | 39 | 10.0 | 15.0 | 0.00 | 0.00 | 0.00 | 59 | 1011.6 |
| 20260508102833 | 62 | 54 | 11.0 | 15.0 | 0.00 | 0.00 | 0.00 | 81 | 1013.3 |
| 20260508102813 | 71 | 142 | 1.0 | 11.0 | 0.00 | 0.02 | 0.00 | 47 | 1014.4 |
| 20260508102808 | 68 | 347 | 3.0 | 4.0 | 0.00 | 0.25 | 0.00 | 60 | 1013.9 |
| 20260508102403 | 60 | 123 | 5.0 | 6.0 | 0.00 | 0.00 | 0.00 | 66 | 1012.1 |
| 20260508102346 | 60 | 108 | 5.0 | 15.0 | 0.05 | 0.18 | 0.00 | 87 | 1007.6 |
| 20260508102333 | 63 | 45 | 12.0 | 14.0 | 0.00 | 0.00 | 0.00 | 80 | 1013.4 |
| 20260508102330 | 72 | 234 | 2.0 | 8.0 | 0.00 | 0.11 | 0.00 | 57 | 1013.9 |
| 20260508102313 | 71 | 184 | 7.0 | 10.0 | 0.00 | 0.02 | 0.00 | 45 | 1014.4 |
| 20260508102308 | 66 | 304 | 0.0 | 5.0 | 0.00 | 0.25 | 0.00 | 61 | 1013.9 |
| 20260508101859 | 60 | 167 | 1.0 | 3.0 | 0.00 | 0.00 | 0.00 | 66 | 1012.1 |
| 20260508101851 | 69 | 355 | 0.0 | 0.0 | 0.00 | 0.00 | 0.00 | 75 | 1011.6 |
| 20260508101848 | 60 | 152 | 7.0 | 13.0 | 0.05 | 0.18 | 0.00 | 87 | 1007.6 |
| 20260508101841 | 62 | 44 | 9.0 | 15.0 | 0.00 | 0.00 | 0.00 | 80 | 1013.5 |
| 20260508101835 | 70 | 156 | 3.0 | 7.0 | 0.00 | 0.00 | 0.00 | 70 | 1016.2 |
| 20260508101830 | 71 | 258 | 1.0 | 8.0 | 0.00 | 0.11 | 0.00 | 56 | 1013.9 |
| 20260508101813 | 71 | 181 | 5.0 | 8.0 | 0.00 | 0.02 | 0.00 | 50 | 1014.5 |
| 20260508101811 | 67 | 65 | 3.0 | 9.0 | 0.00 | 0.25 | 0.00 | 63 | 1014.1 |